<?xml version="1.0" encoding="UTF-8" standalone="no" ?><gpx xmlns="http://www.topografix.com/GPX/1/1" xmlns:gpxx="http://www.garmin.com/xmlschemas/GpxExtensions/v3" xmlns:wptx1="http://www.garmin.com/xmlschemas/WaypointExtension/v1" xmlns:gpxtpx="http://www.garmin.com/xmlschemas/TrackPointExtension/v1" creator="GuideVTT.com" version="1.1" xmlns:xsi="http://www.w3.org/2001/XMLSchema-instance" xsi:schemaLocation="http://www.topografix.com/GPX/1/1 http://www.topografix.com/GPX/1/1/gpx.xsd http://www.garmin.com/xmlschemas/GpxExtensions/v3 http://www8.garmin.com/xmlschemas/GpxExtensionsv3.xsd http://www.garmin.com/xmlschemas/WaypointExtension/v1 http://www8.garmin.com/xmlschemas/WaypointExtensionv1.xsd http://www.garmin.com/xmlschemas/TrackPointExtension/v1 http://www.garmin.com/xmlschemas/TrackPointExtensionv1.xsd">
<metadata><link href="http://www.garmin.com"><text>Garmin International</text></link><time>2013-06-22T15:13:50Z</time></metadata>
<trk><name>transvo1.gpx</name><extensions><gpxx:TrackExtension><gpxx:DisplayColor>Cyan</gpxx:DisplayColor></gpxx:TrackExtension></extensions><trkseg>
<trkpt lat="45.82224240" lon="3.07825696"><ele>380</ele><time>2006-09-16T11:05:36Z</time></trkpt>
<trkpt lat="45.82224240" lon="3.07825696"><ele>380</ele><time>2006-09-16T11:05:37Z</time></trkpt>
<trkpt lat="45.82223956" lon="3.07827422"><ele>380</ele><time>2006-09-16T11:05:48Z</time></trkpt>
<trkpt lat="45.82226839" lon="3.07837145"><ele>380</ele><time>2006-09-16T11:06:02Z</time></trkpt>
<trkpt lat="45.82232597" lon="3.07850020"><ele>380</ele><time>2006-09-16T11:06:17Z</time></trkpt>
<trkpt lat="45.82233955" lon="3.07853297"><ele>380</ele><time>2006-09-16T11:06:20Z</time></trkpt>
<trkpt lat="45.82238725" lon="3.07861813"><ele>379</ele><time>2006-09-16T11:06:28Z</time></trkpt>
<trkpt lat="45.82247701" lon="3.07884495"><ele>379</ele><time>2006-09-16T11:06:45Z</time></trkpt>
<trkpt lat="45.82257944" lon="3.07911786"><ele>379</ele><time>2006-09-16T11:07:01Z</time></trkpt>
<trkpt lat="45.82279352" lon="3.07960058"><ele>378</ele><time>2006-09-16T11:07:21Z</time></trkpt>
<trkpt lat="45.82304128" lon="3.08027909"><ele>377</ele><time>2006-09-16T11:07:40Z</time></trkpt>
<trkpt lat="45.82328612" lon="3.08088502"><ele>375</ele><time>2006-09-16T11:07:57Z</time></trkpt>
<trkpt lat="45.82344227" lon="3.08128417"><ele>375</ele><time>2006-09-16T11:08:16Z</time></trkpt>
<trkpt lat="45.82363824" lon="3.08172631"><ele>374</ele><time>2006-09-16T11:08:35Z</time></trkpt>
<trkpt lat="45.82376791" lon="3.08214868"><ele>373</ele><time>2006-09-16T11:08:52Z</time></trkpt>
<trkpt lat="45.82398282" lon="3.08283356"><ele>372</ele><time>2006-09-16T11:09:07Z</time></trkpt>
<trkpt lat="45.82455858" lon="3.08375347"><ele>371</ele><time>2006-09-16T11:09:26Z</time></trkpt>
<trkpt lat="45.82508362" lon="3.08464296"><ele>372</ele><time>2006-09-16T11:09:43Z</time></trkpt>
<trkpt lat="45.82539199" lon="3.08506625"><ele>373</ele><time>2006-09-16T11:09:53Z</time></trkpt>
<trkpt lat="45.82550975" lon="3.08515711"><ele>373</ele><time>2006-09-16T11:09:56Z</time></trkpt>
<trkpt lat="45.82561051" lon="3.08517613"><ele>373</ele><time>2006-09-16T11:09:58Z</time></trkpt>
<trkpt lat="45.82600420" lon="3.08520715"><ele>370</ele><time>2006-09-16T11:10:05Z</time></trkpt>
<trkpt lat="45.82631442" lon="3.08525995"><ele>369</ele><time>2006-09-16T11:10:10Z</time></trkpt>
<trkpt lat="45.82673309" lon="3.08514386"><ele>367</ele><time>2006-09-16T11:10:17Z</time></trkpt>
<trkpt lat="45.82692646" lon="3.08488168"><ele>367</ele><time>2006-09-16T11:10:22Z</time></trkpt>
<trkpt lat="45.82698807" lon="3.08467582"><ele>367</ele><time>2006-09-16T11:10:25Z</time></trkpt>
<trkpt lat="45.82712872" lon="3.08449611"><ele>368</ele><time>2006-09-16T11:10:29Z</time></trkpt>
<trkpt lat="45.82753264" lon="3.08449460"><ele>369</ele><time>2006-09-16T11:10:38Z</time></trkpt>
<trkpt lat="45.82786633" lon="3.08449326"><ele>369</ele><time>2006-09-16T11:10:47Z</time></trkpt>
<trkpt lat="45.82818727" lon="3.08430408"><ele>371</ele><time>2006-09-16T11:11:01Z</time></trkpt>
<trkpt lat="45.82854459" lon="3.08415832"><ele>373</ele><time>2006-09-16T11:11:13Z</time></trkpt>
<trkpt lat="45.82919863" lon="3.08379212"><ele>375</ele><time>2006-09-16T11:11:33Z</time></trkpt>
<trkpt lat="45.82973675" lon="3.08313715"><ele>378</ele><time>2006-09-16T11:11:53Z</time></trkpt>
<trkpt lat="45.82956609" lon="3.08277958"><ele>379</ele><time>2006-09-16T11:12:02Z</time></trkpt>
<trkpt lat="45.82915069" lon="3.08214423"><ele>381</ele><time>2006-09-16T11:12:18Z</time></trkpt>
<trkpt lat="45.82908539" lon="3.08206829"><ele>381</ele><time>2006-09-16T11:12:20Z</time></trkpt>
<trkpt lat="45.82887551" lon="3.08204088"><ele>382</ele><time>2006-09-16T11:12:25Z</time></trkpt>
<trkpt lat="45.82857653" lon="3.08222922"><ele>381</ele><time>2006-09-16T11:12:32Z</time></trkpt>
<trkpt lat="45.82844216" lon="3.08229435"><ele>380</ele><time>2006-09-16T11:12:35Z</time></trkpt>
<trkpt lat="45.82811711" lon="3.08220534"><ele>380</ele><time>2006-09-16T11:12:42Z</time></trkpt>
<trkpt lat="45.82734229" lon="3.08139967"><ele>381</ele><time>2006-09-16T11:13:02Z</time></trkpt>
<trkpt lat="45.82730818" lon="3.08135650"><ele>381</ele><time>2006-09-16T11:13:03Z</time></trkpt>
<trkpt lat="45.82720290" lon="3.08100882"><ele>382</ele><time>2006-09-16T11:13:09Z</time></trkpt>
<trkpt lat="45.82709678" lon="3.07970518"><ele>385</ele><time>2006-09-16T11:13:29Z</time></trkpt>
<trkpt lat="45.82707784" lon="3.07950343"><ele>385</ele><time>2006-09-16T11:13:32Z</time></trkpt>
<trkpt lat="45.82693392" lon="3.07916782"><ele>385</ele><time>2006-09-16T11:13:38Z</time></trkpt>
<trkpt lat="45.82639111" lon="3.07871285"><ele>385</ele><time>2006-09-16T11:13:51Z</time></trkpt>
<trkpt lat="45.82627242" lon="3.07860045"><ele>384</ele><time>2006-09-16T11:13:54Z</time></trkpt>
<trkpt lat="45.82614359" lon="3.07832343"><ele>384</ele><time>2006-09-16T11:13:59Z</time></trkpt>
<trkpt lat="45.82589155" lon="3.07716848"><ele>384</ele><time>2006-09-16T11:14:17Z</time></trkpt>
<trkpt lat="45.82559307" lon="3.07578539"><ele>384</ele><time>2006-09-16T11:14:38Z</time></trkpt>
<trkpt lat="45.82534731" lon="3.07452424"><ele>385</ele><time>2006-09-16T11:14:57Z</time></trkpt>
<trkpt lat="45.82551931" lon="3.07359913"><ele>390</ele><time>2006-09-16T11:15:11Z</time></trkpt>
<trkpt lat="45.82553700" lon="3.07302925"><ele>393</ele><time>2006-09-16T11:15:22Z</time></trkpt>
<trkpt lat="45.82553205" lon="3.07294509"><ele>394</ele><time>2006-09-16T11:15:24Z</time></trkpt>
<trkpt lat="45.82553691" lon="3.07290561"><ele>394</ele><time>2006-09-16T11:15:25Z</time></trkpt>
<trkpt lat="45.82565560" lon="3.07286882"><ele>396</ele><time>2006-09-16T11:15:30Z</time></trkpt>
<trkpt lat="45.82602122" lon="3.07285834"><ele>397</ele><time>2006-09-16T11:15:43Z</time></trkpt>
<trkpt lat="45.82660477" lon="3.07258249"><ele>399</ele><time>2006-09-16T11:16:03Z</time></trkpt>
<trkpt lat="45.82676570" lon="3.07255081"><ele>400</ele><time>2006-09-16T11:16:07Z</time></trkpt>
<trkpt lat="45.82698891" lon="3.07256347"><ele>400</ele><time>2006-09-16T11:16:12Z</time></trkpt>
<trkpt lat="45.82717080" lon="3.07249256"><ele>402</ele><time>2006-09-16T11:16:16Z</time></trkpt>
<trkpt lat="45.82731522" lon="3.07226197"><ele>403</ele><time>2006-09-16T11:16:21Z</time></trkpt>
<trkpt lat="45.82737833" lon="3.07159041"><ele>406</ele><time>2006-09-16T11:16:34Z</time></trkpt>
<trkpt lat="45.82730784" lon="3.07110686"><ele>408</ele><time>2006-09-16T11:16:45Z</time></trkpt>
<trkpt lat="45.82714540" lon="3.07038668"><ele>410</ele><time>2006-09-16T11:17:02Z</time></trkpt>
<trkpt lat="45.82695421" lon="3.06987640"><ele>413</ele><time>2006-09-16T11:17:15Z</time></trkpt>
<trkpt lat="45.82704364" lon="3.06941430"><ele>416</ele><time>2006-09-16T11:17:28Z</time></trkpt>
<trkpt lat="45.82720659" lon="3.06910627"><ele>418</ele><time>2006-09-16T11:17:39Z</time></trkpt>
<trkpt lat="45.82747422" lon="3.06871617"><ele>420</ele><time>2006-09-16T11:17:54Z</time></trkpt>
<trkpt lat="45.82760506" lon="3.06854837"><ele>421</ele><time>2006-09-16T11:18:00Z</time></trkpt>
<trkpt lat="45.82792743" lon="3.06792936"><ele>425</ele><time>2006-09-16T11:18:17Z</time></trkpt>
<trkpt lat="45.82824896" lon="3.06717080"><ele>428</ele><time>2006-09-16T11:18:37Z</time></trkpt>
<trkpt lat="45.82848743" lon="3.06664350"><ele>431</ele><time>2006-09-16T11:18:53Z</time></trkpt>
<trkpt lat="45.82865833" lon="3.06618283"><ele>435</ele><time>2006-09-16T11:19:10Z</time></trkpt>
<trkpt lat="45.82875791" lon="3.06589256"><ele>439</ele><time>2006-09-16T11:19:19Z</time></trkpt>
<trkpt lat="45.82887333" lon="3.06572928"><ele>440</ele><time>2006-09-16T11:19:26Z</time></trkpt>
<trkpt lat="45.82921397" lon="3.06553977"><ele>443</ele><time>2006-09-16T11:19:42Z</time></trkpt>
<trkpt lat="45.82960559" lon="3.06552091"><ele>445</ele><time>2006-09-16T11:19:57Z</time></trkpt>
<trkpt lat="45.83003146" lon="3.06575178"><ele>446</ele><time>2006-09-16T11:20:15Z</time></trkpt>
<trkpt lat="45.83056497" lon="3.06562275"><ele>451</ele><time>2006-09-16T11:20:35Z</time></trkpt>
<trkpt lat="45.83088247" lon="3.06552778"><ele>454</ele><time>2006-09-16T11:20:47Z</time></trkpt>
<trkpt lat="45.83090879" lon="3.06552610"><ele>454</ele><time>2006-09-16T11:20:48Z</time></trkpt>
<trkpt lat="45.83115726" lon="3.06557366"><ele>456</ele><time>2006-09-16T11:20:58Z</time></trkpt>
<trkpt lat="45.83149337" lon="3.06577117"><ele>460</ele><time>2006-09-16T11:21:13Z</time></trkpt>
<trkpt lat="45.83203440" lon="3.06564186"><ele>464</ele><time>2006-09-16T11:21:31Z</time></trkpt>
<trkpt lat="45.83225987" lon="3.06556734"><ele>465</ele><time>2006-09-16T11:21:41Z</time></trkpt>
<trkpt lat="45.83254385" lon="3.06541831"><ele>467</ele><time>2006-09-16T11:21:55Z</time></trkpt>
<trkpt lat="45.83293998" lon="3.06535880"><ele>470</ele><time>2006-09-16T11:22:12Z</time></trkpt>
<trkpt lat="45.83332806" lon="3.06538881"><ele>473</ele><time>2006-09-16T11:22:28Z</time></trkpt>
<trkpt lat="45.83374598" lon="3.06531446"><ele>477</ele><time>2006-09-16T11:22:46Z</time></trkpt>
<trkpt lat="45.83394572" lon="3.06519753"><ele>479</ele><time>2006-09-16T11:22:57Z</time></trkpt>
<trkpt lat="45.83424814" lon="3.06504540"><ele>481</ele><time>2006-09-16T11:23:13Z</time></trkpt>
<trkpt lat="45.83447219" lon="3.06488430"><ele>483</ele><time>2006-09-16T11:23:26Z</time></trkpt>
<trkpt lat="45.83479548" lon="3.06459722"><ele>486</ele><time>2006-09-16T11:23:41Z</time></trkpt>
<trkpt lat="45.83508130" lon="3.06416036"><ele>490</ele><time>2006-09-16T11:23:59Z</time></trkpt>
<trkpt lat="45.83550266" lon="3.06351009"><ele>493</ele><time>2006-09-16T11:24:19Z</time></trkpt>
<trkpt lat="45.83562596" lon="3.06332367"><ele>495</ele><time>2006-09-16T11:24:25Z</time></trkpt>
<trkpt lat="45.83584598" lon="3.06284951"><ele>498</ele><time>2006-09-16T11:24:43Z</time></trkpt>
<trkpt lat="45.83586903" lon="3.06218633"><ele>500</ele><time>2006-09-16T11:25:01Z</time></trkpt>
<trkpt lat="45.83587943" lon="3.06185139"><ele>500</ele><time>2006-09-16T11:25:08Z</time></trkpt>
<trkpt lat="45.83593382" lon="3.06176162"><ele>501</ele><time>2006-09-16T11:25:12Z</time></trkpt>
<trkpt lat="45.83622065" lon="3.06164243"><ele>501</ele><time>2006-09-16T11:25:24Z</time></trkpt>
<trkpt lat="45.83668878" lon="3.06143733"><ele>503</ele><time>2006-09-16T11:25:42Z</time></trkpt>
<trkpt lat="45.83709329" lon="3.06114052"><ele>505</ele><time>2006-09-16T11:25:57Z</time></trkpt>
<trkpt lat="45.83746721" lon="3.06064482"><ele>507</ele><time>2006-09-16T11:26:13Z</time></trkpt>
<trkpt lat="45.83791204" lon="3.06010134"><ele>509</ele><time>2006-09-16T11:26:30Z</time></trkpt>
<trkpt lat="45.83815746" lon="3.05965785"><ele>510</ele><time>2006-09-16T11:26:40Z</time></trkpt>
<trkpt lat="45.83827606" lon="3.05929542"><ele>512</ele><time>2006-09-16T11:26:46Z</time></trkpt>
<trkpt lat="45.83884738" lon="3.05896483"><ele>513</ele><time>2006-09-16T11:27:01Z</time></trkpt>
<trkpt lat="45.83959957" lon="3.05905661"><ele>515</ele><time>2006-09-16T11:27:20Z</time></trkpt>
<trkpt lat="45.84033659" lon="3.05916927"><ele>517</ele><time>2006-09-16T11:27:39Z</time></trkpt>
<trkpt lat="45.84069100" lon="3.05910281"><ele>518</ele><time>2006-09-16T11:27:56Z</time></trkpt>
<trkpt lat="45.84073808" lon="3.05844272"><ele>519</ele><time>2006-09-16T11:28:09Z</time></trkpt>
<trkpt lat="45.84077169" lon="3.05782867"><ele>521</ele><time>2006-09-16T11:28:24Z</time></trkpt>
<trkpt lat="45.84086674" lon="3.05708276"><ele>522</ele><time>2006-09-16T11:28:40Z</time></trkpt>
<trkpt lat="45.84087261" lon="3.05630173"><ele>523</ele><time>2006-09-16T11:28:57Z</time></trkpt>
<trkpt lat="45.84091460" lon="3.05536623"><ele>525</ele><time>2006-09-16T11:29:16Z</time></trkpt>
<trkpt lat="45.84093858" lon="3.05434364"><ele>526</ele><time>2006-09-16T11:29:36Z</time></trkpt>
<trkpt lat="45.84093045" lon="3.05331322"><ele>528</ele><time>2006-09-16T11:29:56Z</time></trkpt>
<trkpt lat="45.84092952" lon="3.05249929"><ele>529</ele><time>2006-09-16T11:30:13Z</time></trkpt>
<trkpt lat="45.84090220" lon="3.05220215"><ele>530</ele><time>2006-09-16T11:30:20Z</time></trkpt>
<trkpt lat="45.84092139" lon="3.05212554"><ele>530</ele><time>2006-09-16T11:30:30Z</time></trkpt>
<trkpt lat="45.84089818" lon="3.05209201"><ele>530</ele><time>2006-09-16T11:31:13Z</time></trkpt>
<trkpt lat="45.84084688" lon="3.05199956"><ele>530</ele><time>2006-09-16T11:31:18Z</time></trkpt>
<trkpt lat="45.84084646" lon="3.05132439"><ele>531</ele><time>2006-09-16T11:31:33Z</time></trkpt>
<trkpt lat="45.84087051" lon="3.05114854"><ele>532</ele><time>2006-09-16T11:31:38Z</time></trkpt>
<trkpt lat="45.84090748" lon="3.05077027"><ele>532</ele><time>2006-09-16T11:31:50Z</time></trkpt>
<trkpt lat="45.84096858" lon="3.05038420"><ele>533</ele><time>2006-09-16T11:32:03Z</time></trkpt>
<trkpt lat="45.84100211" lon="3.04964583"><ele>534</ele><time>2006-09-16T11:32:23Z</time></trkpt>
<trkpt lat="45.84100110" lon="3.04893413"><ele>535</ele><time>2006-09-16T11:32:43Z</time></trkpt>
<trkpt lat="45.84091729" lon="3.04834697"><ele>536</ele><time>2006-09-16T11:33:00Z</time></trkpt>
<trkpt lat="45.84083883" lon="3.04736964"><ele>537</ele><time>2006-09-16T11:33:23Z</time></trkpt>
<trkpt lat="45.84084034" lon="3.04732522"><ele>537</ele><time>2006-09-16T11:33:24Z</time></trkpt>
<trkpt lat="45.84048872" lon="3.04743519"><ele>537</ele><time>2006-09-16T11:33:34Z</time></trkpt>
<trkpt lat="45.83976553" lon="3.04789410"><ele>535</ele><time>2006-09-16T11:33:49Z</time></trkpt>
<trkpt lat="45.83959198" lon="3.04801807"><ele>535</ele><time>2006-09-16T11:33:50Z</time></trkpt>
<trkpt lat="45.83950425" lon="3.04766295"><ele>535</ele><time>2006-09-16T11:33:57Z</time></trkpt>
<trkpt lat="45.83941978" lon="3.04679297"><ele>536</ele><time>2006-09-16T11:34:15Z</time></trkpt>
<trkpt lat="45.83955878" lon="3.04615115"><ele>539</ele><time>2006-09-16T11:34:31Z</time></trkpt>
<trkpt lat="45.83935960" lon="3.04563368"><ele>541</ele><time>2006-09-16T11:34:44Z</time></trkpt>
<trkpt lat="45.83942911" lon="3.04531277"><ele>544</ele><time>2006-09-16T11:34:50Z</time></trkpt>
<trkpt lat="45.83938615" lon="3.04499041"><ele>546</ele><time>2006-09-16T11:34:57Z</time></trkpt>
<trkpt lat="45.83932273" lon="3.04434597"><ele>551</ele><time>2006-09-16T11:35:15Z</time></trkpt>
<trkpt lat="45.83930205" lon="3.04405608"><ele>552</ele><time>2006-09-16T11:35:27Z</time></trkpt>
<trkpt lat="45.83932717" lon="3.04363805"><ele>553</ele><time>2006-09-16T11:35:37Z</time></trkpt>
<trkpt lat="45.83964684" lon="3.04323494"><ele>555</ele><time>2006-09-16T11:35:53Z</time></trkpt>
<trkpt lat="45.84002302" lon="3.04292489"><ele>557</ele><time>2006-09-16T11:36:09Z</time></trkpt>
<trkpt lat="45.84047874" lon="3.04271718"><ele>558</ele><time>2006-09-16T11:36:26Z</time></trkpt>
<trkpt lat="45.84069558" lon="3.04238183"><ele>560</ele><time>2006-09-16T11:36:38Z</time></trkpt>
<trkpt lat="45.84076113" lon="3.04186047"><ele>566</ele><time>2006-09-16T11:36:53Z</time></trkpt>
<trkpt lat="45.84058058" lon="3.04157616"><ele>568</ele><time>2006-09-16T11:37:03Z</time></trkpt>
<trkpt lat="45.84034815" lon="3.04102764"><ele>573</ele><time>2006-09-16T11:37:18Z</time></trkpt>
<trkpt lat="45.84018596" lon="3.04020505"><ele>575</ele><time>2006-09-16T11:37:37Z</time></trkpt>
<trkpt lat="45.84010189" lon="3.03937348"><ele>577</ele><time>2006-09-16T11:37:58Z</time></trkpt>
<trkpt lat="45.83995873" lon="3.03910777"><ele>578</ele><time>2006-09-16T11:38:11Z</time></trkpt>
<trkpt lat="45.83977601" lon="3.03885128"><ele>578</ele><time>2006-09-16T11:38:24Z</time></trkpt>
<trkpt lat="45.83980509" lon="3.03836010"><ele>579</ele><time>2006-09-16T11:38:39Z</time></trkpt>
<trkpt lat="45.83981934" lon="3.03798535"><ele>582</ele><time>2006-09-16T11:38:51Z</time></trkpt>
<trkpt lat="45.84001296" lon="3.03746802"><ele>587</ele><time>2006-09-16T11:39:08Z</time></trkpt>
<trkpt lat="45.84022427" lon="3.03697156"><ele>592</ele><time>2006-09-16T11:39:27Z</time></trkpt>
<trkpt lat="45.84041026" lon="3.03655129"><ele>595</ele><time>2006-09-16T11:39:43Z</time></trkpt>
<trkpt lat="45.84058520" lon="3.03603010"><ele>598</ele><time>2006-09-16T11:39:58Z</time></trkpt>
<trkpt lat="45.84075350" lon="3.03563783"><ele>600</ele><time>2006-09-16T11:40:11Z</time></trkpt>
<trkpt lat="45.84097420" lon="3.03516970"><ele>603</ele><time>2006-09-16T11:40:30Z</time></trkpt>
<trkpt lat="45.84109314" lon="3.03468841"><ele>606</ele><time>2006-09-16T11:40:44Z</time></trkpt>
<trkpt lat="45.84109381" lon="3.03424652"><ele>609</ele><time>2006-09-16T11:40:57Z</time></trkpt>
<trkpt lat="45.84114309" lon="3.03363640"><ele>612</ele><time>2006-09-16T11:41:15Z</time></trkpt>
<trkpt lat="45.84132557" lon="3.03309996"><ele>615</ele><time>2006-09-16T11:41:34Z</time></trkpt>
<trkpt lat="45.84146747" lon="3.03265857"><ele>617</ele><time>2006-09-16T11:41:49Z</time></trkpt>
<trkpt lat="45.84159127" lon="3.03219111"><ele>619</ele><time>2006-09-16T11:42:07Z</time></trkpt>
<trkpt lat="45.84158599" lon="3.03182767"><ele>620</ele><time>2006-09-16T11:42:21Z</time></trkpt>
<trkpt lat="45.84154350" lon="3.03163019"><ele>620</ele><time>2006-09-16T11:42:27Z</time></trkpt>
<trkpt lat="45.84164106" lon="3.03081580"><ele>623</ele><time>2006-09-16T11:42:45Z</time></trkpt>
<trkpt lat="45.84172656" lon="3.03003159"><ele>624</ele><time>2006-09-16T11:43:02Z</time></trkpt>
<trkpt lat="45.84177408" lon="3.02937596"><ele>628</ele><time>2006-09-16T11:43:16Z</time></trkpt>
<trkpt lat="45.84185170" lon="3.02859619"><ele>631</ele><time>2006-09-16T11:43:31Z</time></trkpt>
<trkpt lat="45.84205831" lon="3.02779865"><ele>632</ele><time>2006-09-16T11:43:48Z</time></trkpt>
<trkpt lat="45.84217432" lon="3.02698921"><ele>632</ele><time>2006-09-16T11:44:06Z</time></trkpt>
<trkpt lat="45.84240541" lon="3.02615647"><ele>635</ele><time>2006-09-16T11:44:26Z</time></trkpt>
<trkpt lat="45.84267841" lon="3.02541543"><ele>637</ele><time>2006-09-16T11:44:45Z</time></trkpt>
<trkpt lat="45.84277606" lon="3.02519532"><ele>638</ele><time>2006-09-16T11:44:51Z</time></trkpt>
<trkpt lat="45.84285996" lon="3.02523145"><ele>639</ele><time>2006-09-16T11:44:55Z</time></trkpt>
<trkpt lat="45.84316112" lon="3.02552640"><ele>641</ele><time>2006-09-16T11:45:10Z</time></trkpt>
<trkpt lat="45.84326019" lon="3.02555742"><ele>641</ele><time>2006-09-16T11:45:15Z</time></trkpt>
<trkpt lat="45.84336271" lon="3.02563453"><ele>642</ele><time>2006-09-16T11:45:20Z</time></trkpt>
<trkpt lat="45.84355817" lon="3.02557971"><ele>643</ele><time>2006-09-16T11:45:29Z</time></trkpt>
<trkpt lat="45.84358810" lon="3.02554635"><ele>644</ele><time>2006-09-16T11:45:31Z</time></trkpt>
<trkpt lat="45.84360695" lon="3.02550302"><ele>644</ele><time>2006-09-16T11:45:33Z</time></trkpt>
<trkpt lat="45.84377166" lon="3.02522407"><ele>646</ele><time>2006-09-16T11:45:45Z</time></trkpt>
<trkpt lat="45.84400635" lon="3.02512986"><ele>649</ele><time>2006-09-16T11:45:57Z</time></trkpt>
<trkpt lat="45.84422361" lon="3.02491914"><ele>650</ele><time>2006-09-16T11:46:12Z</time></trkpt>
<trkpt lat="45.84423543" lon="3.02485384"><ele>650</ele><time>2006-09-16T11:46:15Z</time></trkpt>
<trkpt lat="45.84427927" lon="3.02475820"><ele>651</ele><time>2006-09-16T11:46:19Z</time></trkpt>
<trkpt lat="45.84436560" lon="3.02419108"><ele>653</ele><time>2006-09-16T11:46:38Z</time></trkpt>
<trkpt lat="45.84432746" lon="3.02367040"><ele>654</ele><time>2006-09-16T11:46:55Z</time></trkpt>
<trkpt lat="45.84425530" lon="3.02307570"><ele>655</ele><time>2006-09-16T11:47:13Z</time></trkpt>
<trkpt lat="45.84423216" lon="3.02235888"><ele>660</ele><time>2006-09-16T11:47:33Z</time></trkpt>
<trkpt lat="45.84441992" lon="3.02205009"><ele>664</ele><time>2006-09-16T11:47:46Z</time></trkpt>
<trkpt lat="45.84463608" lon="3.02195328"><ele>666</ele><time>2006-09-16T11:47:56Z</time></trkpt>
<trkpt lat="45.84498159" lon="3.02172806"><ele>668</ele><time>2006-09-16T11:48:12Z</time></trkpt>
<trkpt lat="45.84510849" lon="3.02148733"><ele>670</ele><time>2006-09-16T11:48:23Z</time></trkpt>
<trkpt lat="45.84527864" lon="3.02119313"><ele>673</ele><time>2006-09-16T11:48:38Z</time></trkpt>
<trkpt lat="45.84535735" lon="3.02102122"><ele>675</ele><time>2006-09-16T11:48:46Z</time></trkpt>
<trkpt lat="45.84544469" lon="3.02060170"><ele>679</ele><time>2006-09-16T11:49:04Z</time></trkpt>
<trkpt lat="45.84547494" lon="3.02038260"><ele>681</ele><time>2006-09-16T11:49:13Z</time></trkpt>
<trkpt lat="45.84555374" lon="3.02013148"><ele>682</ele><time>2006-09-16T11:49:26Z</time></trkpt>
<trkpt lat="45.84569162" lon="3.01982084"><ele>683</ele><time>2006-09-16T11:49:39Z</time></trkpt>
<trkpt lat="45.84570067" lon="3.01979352"><ele>683</ele><time>2006-09-16T11:49:40Z</time></trkpt>
<trkpt lat="45.84577384" lon="3.01924978"><ele>688</ele><time>2006-09-16T11:50:01Z</time></trkpt>
<trkpt lat="45.84582472" lon="3.01891459"><ele>690</ele><time>2006-09-16T11:50:14Z</time></trkpt>
<trkpt lat="45.84582229" lon="3.01861058"><ele>692</ele><time>2006-09-16T11:50:26Z</time></trkpt>
<trkpt lat="45.84573596" lon="3.01815544"><ele>696</ele><time>2006-09-16T11:50:44Z</time></trkpt>
<trkpt lat="45.84568139" lon="3.01775546"><ele>700</ele><time>2006-09-16T11:50:59Z</time></trkpt>
<trkpt lat="45.84566731" lon="3.01741926"><ele>703</ele><time>2006-09-16T11:51:11Z</time></trkpt>
<trkpt lat="45.84566815" lon="3.01715833"><ele>706</ele><time>2006-09-16T11:51:22Z</time></trkpt>
<trkpt lat="45.84567326" lon="3.01707351"><ele>707</ele><time>2006-09-16T11:51:35Z</time></trkpt>
<trkpt lat="45.84567955" lon="3.01705649"><ele>707</ele><time>2006-09-16T11:52:21Z</time></trkpt>
<trkpt lat="45.84562046" lon="3.01690679"><ele>709</ele><time>2006-09-16T11:52:28Z</time></trkpt>
<trkpt lat="45.84553856" lon="3.01660446"><ele>712</ele><time>2006-09-16T11:52:43Z</time></trkpt>
<trkpt lat="45.84539196" lon="3.01635820"><ele>713</ele><time>2006-09-16T11:52:54Z</time></trkpt>
<trkpt lat="45.84505602" lon="3.01573458"><ele>716</ele><time>2006-09-16T11:53:18Z</time></trkpt>
<trkpt lat="45.84463717" lon="3.01541825"><ele>715</ele><time>2006-09-16T11:53:36Z</time></trkpt>
<trkpt lat="45.84435889" lon="3.01560089"><ele>713</ele><time>2006-09-16T11:53:47Z</time></trkpt>
<trkpt lat="45.84433048" lon="3.01562394"><ele>713</ele><time>2006-09-16T11:53:48Z</time></trkpt>
<trkpt lat="45.84382262" lon="3.01626616"><ele>714</ele><time>2006-09-16T11:54:05Z</time></trkpt>
<trkpt lat="45.84366077" lon="3.01657445"><ele>715</ele><time>2006-09-16T11:54:15Z</time></trkpt>
<trkpt lat="45.84358592" lon="3.01673664"><ele>715</ele><time>2006-09-16T11:54:21Z</time></trkpt>
<trkpt lat="45.84346698" lon="3.01691676"><ele>715</ele><time>2006-09-16T11:54:28Z</time></trkpt>
<trkpt lat="45.84336857" lon="3.01703696"><ele>715</ele><time>2006-09-16T11:54:34Z</time></trkpt>
<trkpt lat="45.84318451" lon="3.01719806"><ele>716</ele><time>2006-09-16T11:54:50Z</time></trkpt>
<trkpt lat="45.84318409" lon="3.01719630"><ele>716</ele><time>2006-09-16T11:55:03Z</time></trkpt>
<trkpt lat="45.84317311" lon="3.01720619"><ele>716</ele><time>2006-09-16T11:55:26Z</time></trkpt>
<trkpt lat="45.84314989" lon="3.01717627"><ele>717</ele><time>2006-09-16T11:56:00Z</time></trkpt>
<trkpt lat="45.84312902" lon="3.01718012"><ele>717</ele><time>2006-09-16T11:56:39Z</time></trkpt>
<trkpt lat="45.84311619" lon="3.01713486"><ele>718</ele><time>2006-09-16T11:57:43Z</time></trkpt>
<trkpt lat="45.84311837" lon="3.01705155"><ele>718</ele><time>2006-09-16T11:58:12Z</time></trkpt>
<trkpt lat="45.84317126" lon="3.01694451"><ele>719</ele><time>2006-09-16T11:58:35Z</time></trkpt>
<trkpt lat="45.84311376" lon="3.01681476"><ele>721</ele><time>2006-09-16T12:00:19Z</time></trkpt>
<trkpt lat="45.84309775" lon="3.01671040"><ele>722</ele><time>2006-09-16T12:01:15Z</time></trkpt>
<trkpt lat="45.84307847" lon="3.01653321"><ele>724</ele><time>2006-09-16T12:01:38Z</time></trkpt>
<trkpt lat="45.84310873" lon="3.01645190"><ele>725</ele><time>2006-09-16T12:02:04Z</time></trkpt>
<trkpt lat="45.84312432" lon="3.01636607"><ele>725</ele><time>2006-09-16T12:02:34Z</time></trkpt>
<trkpt lat="45.84317562" lon="3.01591504"><ele>727</ele><time>2006-09-16T12:02:54Z</time></trkpt>
<trkpt lat="45.84316238" lon="3.01562444"><ele>728</ele><time>2006-09-16T12:03:14Z</time></trkpt>
<trkpt lat="45.84316758" lon="3.01558991"><ele>728</ele><time>2006-09-16T12:03:16Z</time></trkpt>
<trkpt lat="45.84318099" lon="3.01519571"><ele>730</ele><time>2006-09-16T12:03:39Z</time></trkpt>
<trkpt lat="45.84326707" lon="3.01495238"><ele>730</ele><time>2006-09-16T12:04:05Z</time></trkpt>
<trkpt lat="45.84331191" lon="3.01469045"><ele>732</ele><time>2006-09-16T12:04:18Z</time></trkpt>
<trkpt lat="45.84339565" lon="3.01426557"><ele>733</ele><time>2006-09-16T12:04:34Z</time></trkpt>
<trkpt lat="45.84338768" lon="3.01414931"><ele>734</ele><time>2006-09-16T12:04:38Z</time></trkpt>
<trkpt lat="45.84341425" lon="3.01395619"><ele>734</ele><time>2006-09-16T12:04:45Z</time></trkpt>
<trkpt lat="45.84331015" lon="3.01334540"><ele>740</ele><time>2006-09-16T12:05:08Z</time></trkpt>
<trkpt lat="45.84329766" lon="3.01322051"><ele>741</ele><time>2006-09-16T12:05:12Z</time></trkpt>
<trkpt lat="45.84337729" lon="3.01313904"><ele>739</ele><time>2006-09-16T12:05:16Z</time></trkpt>
<trkpt lat="45.84337461" lon="3.01296813"><ele>740</ele><time>2006-09-16T12:05:21Z</time></trkpt>
<trkpt lat="45.84335198" lon="3.01290560"><ele>741</ele><time>2006-09-16T12:05:23Z</time></trkpt>
<trkpt lat="45.84338358" lon="3.01219566"><ele>744</ele><time>2006-09-16T12:05:42Z</time></trkpt>
<trkpt lat="45.84342088" lon="3.01183641"><ele>745</ele><time>2006-09-16T12:05:54Z</time></trkpt>
<trkpt lat="45.84348877" lon="3.01121280"><ele>749</ele><time>2006-09-16T12:06:13Z</time></trkpt>
<trkpt lat="45.84348852" lon="3.01081793"><ele>753</ele><time>2006-09-16T12:06:25Z</time></trkpt>
<trkpt lat="45.84343211" lon="3.01075146"><ele>754</ele><time>2006-09-16T12:06:32Z</time></trkpt>
<trkpt lat="45.84323237" lon="3.01091356"><ele>756</ele><time>2006-09-16T12:06:49Z</time></trkpt>
<trkpt lat="45.84301720" lon="3.01136870"><ele>757</ele><time>2006-09-16T12:07:08Z</time></trkpt>
<trkpt lat="45.84287358" lon="3.01188696"><ele>757</ele><time>2006-09-16T12:07:41Z</time></trkpt>
<trkpt lat="45.84275746" lon="3.01249700"><ele>756</ele><time>2006-09-16T12:07:55Z</time></trkpt>
<trkpt lat="45.84266285" lon="3.01326822"><ele>755</ele><time>2006-09-16T12:08:02Z</time></trkpt>
<trkpt lat="45.84234449" lon="3.01384359"><ele>759</ele><time>2006-09-16T12:08:21Z</time></trkpt>
<trkpt lat="45.84160151" lon="3.01396317"><ele>765</ele><time>2006-09-16T12:08:36Z</time></trkpt>
<trkpt lat="45.84101693" lon="3.01392378"><ele>766</ele><time>2006-09-16T12:08:49Z</time></trkpt>
<trkpt lat="45.84047676" lon="3.01398149"><ele>763</ele><time>2006-09-16T12:08:53Z</time></trkpt>
<trkpt lat="45.83971380" lon="3.01368247"><ele>762</ele><time>2006-09-16T12:09:10Z</time></trkpt>
<trkpt lat="45.83926572" lon="3.01338732"><ele>764</ele><time>2006-09-16T12:09:21Z</time></trkpt>
<trkpt lat="45.83886088" lon="3.01338234"><ele>765</ele><time>2006-09-16T12:09:23Z</time></trkpt>
<trkpt lat="45.83844085" lon="3.01356224"><ele>767</ele><time>2006-09-16T12:09:42Z</time></trkpt>
<trkpt lat="45.83822091" lon="3.01389081"><ele>767</ele><time>2006-09-16T12:09:50Z</time></trkpt>
<trkpt lat="45.83811874" lon="3.01410849"><ele>768</ele><time>2006-09-16T12:09:54Z</time></trkpt>
<trkpt lat="45.83766050" lon="3.01461182"><ele>772</ele><time>2006-09-16T12:10:08Z</time></trkpt>
<trkpt lat="45.83742203" lon="3.01489346"><ele>769</ele><time>2006-09-16T12:10:15Z</time></trkpt>
<trkpt lat="45.83723570" lon="3.01503578"><ele>767</ele><time>2006-09-16T12:10:19Z</time></trkpt>
<trkpt lat="45.83682633" lon="3.01506001"><ele>765</ele><time>2006-09-16T12:10:25Z</time></trkpt>
<trkpt lat="45.83674477" lon="3.01506478"><ele>765</ele><time>2006-09-16T12:10:26Z</time></trkpt>
<trkpt lat="45.83621361" lon="3.01505783"><ele>762</ele><time>2006-09-16T12:10:32Z</time></trkpt>
<trkpt lat="45.83577935" lon="3.01518766"><ele>760</ele><time>2006-09-16T12:10:37Z</time></trkpt>
<trkpt lat="45.83558816" lon="3.01533225"><ele>760</ele><time>2006-09-16T12:10:40Z</time></trkpt>
<trkpt lat="45.83524796" lon="3.01571907"><ele>759</ele><time>2006-09-16T12:10:45Z</time></trkpt>
<trkpt lat="45.83479639" lon="3.01600310"><ele>760</ele><time>2006-09-16T12:11:04Z</time></trkpt>
<trkpt lat="45.83441326" lon="3.01612708"><ele>760</ele><time>2006-09-16T12:11:05Z</time></trkpt>
<trkpt lat="45.83415183" lon="3.01612702"><ele>761</ele><time>2006-09-16T12:11:10Z</time></trkpt>
<trkpt lat="45.83403499" lon="3.01632551"><ele>760</ele><time>2006-09-16T12:11:14Z</time></trkpt>
<trkpt lat="45.83396936" lon="3.01631285"><ele>761</ele><time>2006-09-16T12:11:26Z</time></trkpt>
<trkpt lat="45.83392074" lon="3.01623708"><ele>763</ele><time>2006-09-16T12:11:36Z</time></trkpt>
<trkpt lat="45.83387196" lon="3.01606902"><ele>765</ele><time>2006-09-16T12:12:00Z</time></trkpt>
<trkpt lat="45.83385788" lon="3.01604186"><ele>766</ele><time>2006-09-16T12:12:04Z</time></trkpt>
<trkpt lat="45.83371623" lon="3.01586852"><ele>770</ele><time>2006-09-16T12:12:25Z</time></trkpt>
<trkpt lat="45.83358455" lon="3.01571488"><ele>772</ele><time>2006-09-16T12:12:40Z</time></trkpt>
<trkpt lat="45.83355043" lon="3.01566769"><ele>773</ele><time>2006-09-16T12:12:48Z</time></trkpt>
<trkpt lat="45.83340593" lon="3.01543971"><ele>776</ele><time>2006-09-16T12:13:02Z</time></trkpt>
<trkpt lat="45.83339394" lon="3.01542403"><ele>777</ele><time>2006-09-16T12:13:03Z</time></trkpt>
<trkpt lat="45.83328179" lon="3.01523770"><ele>779</ele><time>2006-09-16T12:13:15Z</time></trkpt>
<trkpt lat="45.83315430" lon="3.01495205"><ele>782</ele><time>2006-09-16T12:13:32Z</time></trkpt>
<trkpt lat="45.83301919" lon="3.01469724"><ele>785</ele><time>2006-09-16T12:13:48Z</time></trkpt>
<trkpt lat="45.83297124" lon="3.01461501"><ele>786</ele><time>2006-09-16T12:13:53Z</time></trkpt>
<trkpt lat="45.83279497" lon="3.01425207"><ele>790</ele><time>2006-09-16T12:14:13Z</time></trkpt>
<trkpt lat="45.83268936" lon="3.01407195"><ele>792</ele><time>2006-09-16T12:14:24Z</time></trkpt>
<trkpt lat="45.83263999" lon="3.01394144"><ele>794</ele><time>2006-09-16T12:14:31Z</time></trkpt>
<trkpt lat="45.83256899" lon="3.01374841"><ele>796</ele><time>2006-09-16T12:14:41Z</time></trkpt>
<trkpt lat="45.83246120" lon="3.01360030"><ele>799</ele><time>2006-09-16T12:14:50Z</time></trkpt>
<trkpt lat="45.83244427" lon="3.01359619"><ele>799</ele><time>2006-09-16T12:14:51Z</time></trkpt>
<trkpt lat="45.83209357" lon="3.01367641"><ele>802</ele><time>2006-09-16T12:15:07Z</time></trkpt>
<trkpt lat="45.83169216" lon="3.01375804"><ele>804</ele><time>2006-09-16T12:15:23Z</time></trkpt>
<trkpt lat="45.83124256" lon="3.01380574"><ele>806</ele><time>2006-09-16T12:15:41Z</time></trkpt>
<trkpt lat="45.83116494" lon="3.01378411"><ele>807</ele><time>2006-09-16T12:15:44Z</time></trkpt>
<trkpt lat="45.83115254" lon="3.01366098"><ele>808</ele><time>2006-09-16T12:15:48Z</time></trkpt>
<trkpt lat="45.83116897" lon="3.01364363"><ele>808</ele><time>2006-09-16T12:15:49Z</time></trkpt>
<trkpt lat="45.83134205" lon="3.01344490"><ele>810</ele><time>2006-09-16T12:15:59Z</time></trkpt>
<trkpt lat="45.83135345" lon="3.01341690"><ele>810</ele><time>2006-09-16T12:16:00Z</time></trkpt>
<trkpt lat="45.83136108" lon="3.01338580"><ele>810</ele><time>2006-09-16T12:16:01Z</time></trkpt>
<trkpt lat="45.83159342" lon="3.01305933"><ele>812</ele><time>2006-09-16T12:16:15Z</time></trkpt>
<trkpt lat="45.83189048" lon="3.01261727"><ele>814</ele><time>2006-09-16T12:16:34Z</time></trkpt>
<trkpt lat="45.83209056" lon="3.01225693"><ele>817</ele><time>2006-09-16T12:16:49Z</time></trkpt>
<trkpt lat="45.83222902" lon="3.01181009"><ele>821</ele><time>2006-09-16T12:17:05Z</time></trkpt>
<trkpt lat="45.83219089" lon="3.01143751"><ele>827</ele><time>2006-09-16T12:17:19Z</time></trkpt>
<trkpt lat="45.83202224" lon="3.01094885"><ele>833</ele><time>2006-09-16T12:17:37Z</time></trkpt>
<trkpt lat="45.83186030" lon="3.01043789"><ele>835</ele><time>2006-09-16T12:17:53Z</time></trkpt>
<trkpt lat="45.83165143" lon="3.00976063"><ele>837</ele><time>2006-09-16T12:18:12Z</time></trkpt>
<trkpt lat="45.83136418" lon="3.00884407"><ele>838</ele><time>2006-09-16T12:18:34Z</time></trkpt>
<trkpt lat="45.83119964" lon="3.00821459"><ele>839</ele><time>2006-09-16T12:18:48Z</time></trkpt>
<trkpt lat="45.83109872" lon="3.00736961"><ele>839</ele><time>2006-09-16T12:19:01Z</time></trkpt>
<trkpt lat="45.83110325" lon="3.00716274"><ele>839</ele><time>2006-09-16T12:19:04Z</time></trkpt>
<trkpt lat="45.83101449" lon="3.00583949"><ele>838</ele><time>2006-09-16T12:19:26Z</time></trkpt>
<trkpt lat="45.83062984" lon="3.00484942"><ele>839</ele><time>2006-09-16T12:19:45Z</time></trkpt>
<trkpt lat="45.82993573" lon="3.00362642"><ele>844</ele><time>2006-09-16T12:20:11Z</time></trkpt>
<trkpt lat="45.82937607" lon="3.00274305"><ele>849</ele><time>2006-09-16T12:20:33Z</time></trkpt>
<trkpt lat="45.82899495" lon="3.00197108"><ele>851</ele><time>2006-09-16T12:20:53Z</time></trkpt>
<trkpt lat="45.82877903" lon="3.00130631"><ele>852</ele><time>2006-09-16T12:21:10Z</time></trkpt>
<trkpt lat="45.82867526" lon="3.00103331"><ele>853</ele><time>2006-09-16T12:21:17Z</time></trkpt>
<trkpt lat="45.82843210" lon="3.00029562"><ele>856</ele><time>2006-09-16T12:21:39Z</time></trkpt>
<trkpt lat="45.82827922" lon="2.99989748"><ele>858</ele><time>2006-09-16T12:21:53Z</time></trkpt>
<trkpt lat="45.82804545" lon="2.99957947"><ele>859</ele><time>2006-09-16T12:22:09Z</time></trkpt>
<trkpt lat="45.82779936" lon="2.99933614"><ele>862</ele><time>2006-09-16T12:22:24Z</time></trkpt>
<trkpt lat="45.82737037" lon="2.99888939"><ele>866</ele><time>2006-09-16T12:22:46Z</time></trkpt>
<trkpt lat="45.82717180" lon="2.99861169"><ele>868</ele><time>2006-09-16T12:22:59Z</time></trkpt>
<trkpt lat="45.82688338" lon="2.99821330"><ele>870</ele><time>2006-09-16T12:23:19Z</time></trkpt>
<trkpt lat="45.82666151" lon="2.99765817"><ele>872</ele><time>2006-09-16T12:23:38Z</time></trkpt>
<trkpt lat="45.82641659" lon="2.99693699"><ele>874</ele><time>2006-09-16T12:24:00Z</time></trkpt>
<trkpt lat="45.82625373" lon="2.99623157"><ele>876</ele><time>2006-09-16T12:24:20Z</time></trkpt>
<trkpt lat="45.82611233" lon="2.99547175"><ele>878</ele><time>2006-09-16T12:24:40Z</time></trkpt>
<trkpt lat="45.82588929" lon="2.99459810"><ele>880</ele><time>2006-09-16T12:25:04Z</time></trkpt>
<trkpt lat="45.82576381" lon="2.99462099"><ele>880</ele><time>2006-09-16T12:25:09Z</time></trkpt>
<trkpt lat="45.82520415" lon="2.99478318"><ele>883</ele><time>2006-09-16T12:25:30Z</time></trkpt>
<trkpt lat="45.82454944" lon="2.99492374"><ele>884</ele><time>2006-09-16T12:25:53Z</time></trkpt>
<trkpt lat="45.82394796" lon="2.99502307"><ele>887</ele><time>2006-09-16T12:26:13Z</time></trkpt>
<trkpt lat="45.82326911" lon="2.99504695"><ele>890</ele><time>2006-09-16T12:26:35Z</time></trkpt>
<trkpt lat="45.82247307" lon="2.99517637"><ele>892</ele><time>2006-09-16T12:27:02Z</time></trkpt>
<trkpt lat="45.82192649" lon="2.99509515"><ele>893</ele><time>2006-09-16T12:27:16Z</time></trkpt>
<trkpt lat="45.82128611" lon="2.99501108"><ele>895</ele><time>2006-09-16T12:27:33Z</time></trkpt>
<trkpt lat="45.82068169" lon="2.99503614"><ele>895</ele><time>2006-09-16T12:27:50Z</time></trkpt>
<trkpt lat="45.82019705" lon="2.99501209"><ele>896</ele><time>2006-09-16T12:28:04Z</time></trkpt>
<trkpt lat="45.81954033" lon="2.99478946"><ele>896</ele><time>2006-09-16T12:28:23Z</time></trkpt>
<trkpt lat="45.81889476" lon="2.99452317"><ele>897</ele><time>2006-09-16T12:28:42Z</time></trkpt>
<trkpt lat="45.81815631" lon="2.99437154"><ele>898</ele><time>2006-09-16T12:29:03Z</time></trkpt>
<trkpt lat="45.81758098" lon="2.99428336"><ele>899</ele><time>2006-09-16T12:29:21Z</time></trkpt>
<trkpt lat="45.81725836" lon="2.99420130"><ele>900</ele><time>2006-09-16T12:29:32Z</time></trkpt>
<trkpt lat="45.81666509" lon="2.99398983"><ele>903</ele><time>2006-09-16T12:29:56Z</time></trkpt>
<trkpt lat="45.81663961" lon="2.99398740"><ele>903</ele><time>2006-09-16T12:29:57Z</time></trkpt>
<trkpt lat="45.81613720" lon="2.99400827"><ele>907</ele><time>2006-09-16T12:30:18Z</time></trkpt>
<trkpt lat="45.81589412" lon="2.99406175"><ele>910</ele><time>2006-09-16T12:30:29Z</time></trkpt>
<trkpt lat="45.81545231" lon="2.99403878"><ele>913</ele><time>2006-09-16T12:30:48Z</time></trkpt>
<trkpt lat="45.81500354" lon="2.99402076"><ele>917</ele><time>2006-09-16T12:31:07Z</time></trkpt>
<trkpt lat="45.81444916" lon="2.99402160"><ele>920</ele><time>2006-09-16T12:31:30Z</time></trkpt>
<trkpt lat="45.81403250" lon="2.99410039"><ele>923</ele><time>2006-09-16T12:31:46Z</time></trkpt>
<trkpt lat="45.81370762" lon="2.99416015"><ele>926</ele><time>2006-09-16T12:31:59Z</time></trkpt>
<trkpt lat="45.81320621" lon="2.99429108"><ele>930</ele><time>2006-09-16T12:32:20Z</time></trkpt>
<trkpt lat="45.81260095" lon="2.99438403"><ele>934</ele><time>2006-09-16T12:32:45Z</time></trkpt>
<trkpt lat="45.81215001" lon="2.99445402"><ele>935</ele><time>2006-09-16T12:33:05Z</time></trkpt>
<trkpt lat="45.81173653" lon="2.99446207"><ele>937</ele><time>2006-09-16T12:33:23Z</time></trkpt>
<trkpt lat="45.81133596" lon="2.99439442"><ele>939</ele><time>2006-09-16T12:33:41Z</time></trkpt>
<trkpt lat="45.81092952" lon="2.99427440"><ele>940</ele><time>2006-09-16T12:33:58Z</time></trkpt>
<trkpt lat="45.81046533" lon="2.99405881"><ele>943</ele><time>2006-09-16T12:34:19Z</time></trkpt>
<trkpt lat="45.80986778" lon="2.99380576"><ele>947</ele><time>2006-09-16T12:34:41Z</time></trkpt>
<trkpt lat="45.80934869" lon="2.99364299"><ele>950</ele><time>2006-09-16T12:35:01Z</time></trkpt>
<trkpt lat="45.80898433" lon="2.99359496"><ele>952</ele><time>2006-09-16T12:35:16Z</time></trkpt>
<trkpt lat="45.80848158" lon="2.99366218"><ele>957</ele><time>2006-09-16T12:35:33Z</time></trkpt>
<trkpt lat="45.80802854" lon="2.99378866"><ele>961</ele><time>2006-09-16T12:35:49Z</time></trkpt>
<trkpt lat="45.80763007" lon="2.99387114"><ele>963</ele><time>2006-09-16T12:36:03Z</time></trkpt>
<trkpt lat="45.80760350" lon="2.99387994"><ele>963</ele><time>2006-09-16T12:36:04Z</time></trkpt>
<trkpt lat="45.80732756" lon="2.99387416"><ele>963</ele><time>2006-09-16T12:36:15Z</time></trkpt>
<trkpt lat="45.80708734" lon="2.99383669"><ele>963</ele><time>2006-09-16T12:36:27Z</time></trkpt>
<trkpt lat="45.80664670" lon="2.99362966"><ele>962</ele><time>2006-09-16T12:36:45Z</time></trkpt>
<trkpt lat="45.80627739" lon="2.99320537"><ele>964</ele><time>2006-09-16T12:37:03Z</time></trkpt>
<trkpt lat="45.80589761" lon="2.99280949"><ele>966</ele><time>2006-09-16T12:37:20Z</time></trkpt>
<trkpt lat="45.80535010" lon="2.99240079"><ele>970</ele><time>2006-09-16T12:37:42Z</time></trkpt>
<trkpt lat="45.80489689" lon="2.99193702"><ele>973</ele><time>2006-09-16T12:38:00Z</time></trkpt>
<trkpt lat="45.80446062" lon="2.99125565"><ele>973</ele><time>2006-09-16T12:38:14Z</time></trkpt>
<trkpt lat="45.80441971" lon="2.99120100"><ele>973</ele><time>2006-09-16T12:38:15Z</time></trkpt>
<trkpt lat="45.80427261" lon="2.99065509"><ele>972</ele><time>2006-09-16T12:38:22Z</time></trkpt>
<trkpt lat="45.80416809" lon="2.98995847"><ele>971</ele><time>2006-09-16T12:38:30Z</time></trkpt>
<trkpt lat="45.80408569" lon="2.98925607"><ele>969</ele><time>2006-09-16T12:38:38Z</time></trkpt>
<trkpt lat="45.80387665" lon="2.98898206"><ele>969</ele><time>2006-09-16T12:38:45Z</time></trkpt>
<trkpt lat="45.80381915" lon="2.98890813"><ele>969</ele><time>2006-09-16T12:38:48Z</time></trkpt>
<trkpt lat="45.80369812" lon="2.98859549"><ele>970</ele><time>2006-09-16T12:39:01Z</time></trkpt>
<trkpt lat="45.80373064" lon="2.98804815"><ele>972</ele><time>2006-09-16T12:39:15Z</time></trkpt>
<trkpt lat="45.80366417" lon="2.98777347"><ele>972</ele><time>2006-09-16T12:39:21Z</time></trkpt>
<trkpt lat="45.80383533" lon="2.98764196"><ele>972</ele><time>2006-09-16T12:39:29Z</time></trkpt>
<trkpt lat="45.80396801" lon="2.98754850"><ele>972</ele><time>2006-09-16T12:39:36Z</time></trkpt>
<trkpt lat="45.80403540" lon="2.98746578"><ele>972</ele><time>2006-09-16T12:39:40Z</time></trkpt>
<trkpt lat="45.80402166" lon="2.98741749"><ele>973</ele><time>2006-09-16T12:39:43Z</time></trkpt>
<trkpt lat="45.80400104" lon="2.98732236"><ele>973</ele><time>2006-09-16T12:39:47Z</time></trkpt>
<trkpt lat="45.80398058" lon="2.98717174"><ele>973</ele><time>2006-09-16T12:39:57Z</time></trkpt>
<trkpt lat="45.80387774" lon="2.98713964"><ele>973</ele><time>2006-09-16T12:40:08Z</time></trkpt>
<trkpt lat="45.80386483" lon="2.98715330"><ele>973</ele><time>2006-09-16T12:40:10Z</time></trkpt>
<trkpt lat="45.80385863" lon="2.98716620"><ele>973</ele><time>2006-09-16T12:40:26Z</time></trkpt>
<trkpt lat="45.80383348" lon="2.98709018"><ele>973</ele><time>2006-09-16T12:51:03Z</time></trkpt>
<trkpt lat="45.80383876" lon="2.98711801"><ele>973</ele><time>2006-09-16T12:52:37Z</time></trkpt>
<trkpt lat="45.80384128" lon="2.98709714"><ele>973</ele><time>2006-09-16T12:53:00Z</time></trkpt>
<trkpt lat="45.80385502" lon="2.98709731"><ele>973</ele><time>2006-09-16T12:53:25Z</time></trkpt>
<trkpt lat="45.80385771" lon="2.98710728"><ele>973</ele><time>2006-09-16T12:54:05Z</time></trkpt>
<trkpt lat="45.80377146" lon="2.98713553"><ele>973</ele><time>2006-09-16T12:54:11Z</time></trkpt>
<trkpt lat="45.80374413" lon="2.98699169"><ele>973</ele><time>2006-09-16T12:54:23Z</time></trkpt>
<trkpt lat="45.80374313" lon="2.98698557"><ele>973</ele><time>2006-09-16T12:54:25Z</time></trkpt>
<trkpt lat="45.80361849" lon="2.98667193"><ele>973</ele><time>2006-09-16T12:54:38Z</time></trkpt>
<trkpt lat="45.80346988" lon="2.98645718"><ele>972</ele><time>2006-09-16T12:54:48Z</time></trkpt>
<trkpt lat="45.80340508" lon="2.98636791"><ele>972</ele><time>2006-09-16T12:54:52Z</time></trkpt>
<trkpt lat="45.80339184" lon="2.98634235"><ele>972</ele><time>2006-09-16T12:54:53Z</time></trkpt>
<trkpt lat="45.80348178" lon="2.98589945"><ele>973</ele><time>2006-09-16T12:55:05Z</time></trkpt>
<trkpt lat="45.80360793" lon="2.98545102"><ele>973</ele><time>2006-09-16T12:55:16Z</time></trkpt>
<trkpt lat="45.80328866" lon="2.98504315"><ele>973</ele><time>2006-09-16T12:55:29Z</time></trkpt>
<trkpt lat="45.80308012" lon="2.98488222"><ele>973</ele><time>2006-09-16T12:55:37Z</time></trkpt>
<trkpt lat="45.80310551" lon="2.98477124"><ele>974</ele><time>2006-09-16T12:55:41Z</time></trkpt>
<trkpt lat="45.80350902" lon="2.98440403"><ele>975</ele><time>2006-09-16T12:56:00Z</time></trkpt>
<trkpt lat="45.80370650" lon="2.98406272"><ele>976</ele><time>2006-09-16T12:56:19Z</time></trkpt>
<trkpt lat="45.80371404" lon="2.98391403"><ele>976</ele><time>2006-09-16T12:56:33Z</time></trkpt>
<trkpt lat="45.80348195" lon="2.98344489"><ele>977</ele><time>2006-09-16T12:56:52Z</time></trkpt>
<trkpt lat="45.80340936" lon="2.98313443"><ele>977</ele><time>2006-09-16T12:57:04Z</time></trkpt>
<trkpt lat="45.80373676" lon="2.98248827"><ele>979</ele><time>2006-09-16T12:57:19Z</time></trkpt>
<trkpt lat="45.80375503" lon="2.98239145"><ele>979</ele><time>2006-09-16T12:57:21Z</time></trkpt>
<trkpt lat="45.80374598" lon="2.98222826"><ele>980</ele><time>2006-09-16T12:57:25Z</time></trkpt>
<trkpt lat="45.80380700" lon="2.98171436"><ele>985</ele><time>2006-09-16T12:57:40Z</time></trkpt>
<trkpt lat="45.80396164" lon="2.98123274"><ele>991</ele><time>2006-09-16T12:57:56Z</time></trkpt>
<trkpt lat="45.80404052" lon="2.98082069"><ele>996</ele><time>2006-09-16T12:58:11Z</time></trkpt>
<trkpt lat="45.80404814" lon="2.98080040"><ele>996</ele><time>2006-09-16T12:58:12Z</time></trkpt>
<trkpt lat="45.80411419" lon="2.98057535"><ele>999</ele><time>2006-09-16T12:58:23Z</time></trkpt>
<trkpt lat="45.80420874" lon="2.98026580"><ele>1002</ele><time>2006-09-16T12:58:39Z</time></trkpt>
<trkpt lat="45.80428443" lon="2.98006615"><ele>1003</ele><time>2006-09-16T12:58:50Z</time></trkpt>
<trkpt lat="45.80437588" lon="2.97980824"><ele>1005</ele><time>2006-09-16T12:59:03Z</time></trkpt>
<trkpt lat="45.80438535" lon="2.97976658"><ele>1005</ele><time>2006-09-16T12:59:05Z</time></trkpt>
<trkpt lat="45.80439197" lon="2.97971972"><ele>1006</ele><time>2006-09-16T12:59:07Z</time></trkpt>
<trkpt lat="45.80446581" lon="2.97941127"><ele>1009</ele><time>2006-09-16T12:59:21Z</time></trkpt>
<trkpt lat="45.80455625" lon="2.97866838"><ele>1013</ele><time>2006-09-16T12:59:43Z</time></trkpt>
<trkpt lat="45.80458626" lon="2.97778149"><ele>1017</ele><time>2006-09-16T13:00:07Z</time></trkpt>
<trkpt lat="45.80461350" lon="2.97686267"><ele>1020</ele><time>2006-09-16T13:00:34Z</time></trkpt>
<trkpt lat="45.80459758" lon="2.97647324"><ele>1020</ele><time>2006-09-16T13:00:42Z</time></trkpt>
<trkpt lat="45.80462189" lon="2.97614769"><ele>1020</ele><time>2006-09-16T13:00:46Z</time></trkpt>
<trkpt lat="45.80451787" lon="2.97528938"><ele>1019</ele><time>2006-09-16T13:00:59Z</time></trkpt>
<trkpt lat="45.80449817" lon="2.97521068"><ele>1019</ele><time>2006-09-16T13:01:01Z</time></trkpt>
<trkpt lat="45.80433480" lon="2.97481765"><ele>1019</ele><time>2006-09-16T13:01:11Z</time></trkpt>
<trkpt lat="45.80383315" lon="2.97370311"><ele>1021</ele><time>2006-09-16T13:01:39Z</time></trkpt>
<trkpt lat="45.80372066" lon="2.97326373"><ele>1022</ele><time>2006-09-16T13:01:49Z</time></trkpt>
<trkpt lat="45.80363575" lon="2.97271052"><ele>1024</ele><time>2006-09-16T13:02:11Z</time></trkpt>
<trkpt lat="45.80364875" lon="2.97254758"><ele>1023</ele><time>2006-09-16T13:02:18Z</time></trkpt>
<trkpt lat="45.80345420" lon="2.97167511"><ele>1029</ele><time>2006-09-16T13:02:36Z</time></trkpt>
<trkpt lat="45.80335789" lon="2.97040030"><ele>1027</ele><time>2006-09-16T13:02:54Z</time></trkpt>
<trkpt lat="45.80314424" lon="2.96953546"><ele>1031</ele><time>2006-09-16T13:03:15Z</time></trkpt>
<trkpt lat="45.80289689" lon="2.96858470"><ele>1035</ele><time>2006-09-16T13:03:39Z</time></trkpt>
<trkpt lat="45.80244443" lon="2.96724812"><ele>1040</ele><time>2006-09-16T13:04:09Z</time></trkpt>
<trkpt lat="45.80227914" lon="2.96665032"><ele>1041</ele><time>2006-09-16T13:04:23Z</time></trkpt>
<trkpt lat="45.80209088" lon="2.96631178"><ele>1042</ele><time>2006-09-16T13:04:32Z</time></trkpt>
<trkpt lat="45.80183968" lon="2.96570535"><ele>1043</ele><time>2006-09-16T13:04:46Z</time></trkpt>
<trkpt lat="45.80160381" lon="2.96501175"><ele>1043</ele><time>2006-09-16T13:05:02Z</time></trkpt>
<trkpt lat="45.80148571" lon="2.96465141"><ele>1044</ele><time>2006-09-16T13:05:09Z</time></trkpt>
<trkpt lat="45.80127549" lon="2.96439190"><ele>1044</ele><time>2006-09-16T13:05:16Z</time></trkpt>
<trkpt lat="45.80119536" lon="2.96405788"><ele>1044</ele><time>2006-09-16T13:05:22Z</time></trkpt>
<trkpt lat="45.80077727" lon="2.96302297"><ele>1040</ele><time>2006-09-16T13:05:40Z</time></trkpt>
<trkpt lat="45.80060897" lon="2.96264134"><ele>1039</ele><time>2006-09-16T13:05:47Z</time></trkpt>
<trkpt lat="45.80058298" lon="2.96258016"><ele>1038</ele><time>2006-09-16T13:05:48Z</time></trkpt>
<trkpt lat="45.80046463" lon="2.96229098"><ele>1037</ele><time>2006-09-16T13:05:53Z</time></trkpt>
<trkpt lat="45.80044116" lon="2.96223356"><ele>1036</ele><time>2006-09-16T13:05:54Z</time></trkpt>
<trkpt lat="45.80036983" lon="2.96204899"><ele>1035</ele><time>2006-09-16T13:05:57Z</time></trkpt>
<trkpt lat="45.80006464" lon="2.96121013"><ele>1032</ele><time>2006-09-16T13:06:11Z</time></trkpt>
<trkpt lat="45.80001988" lon="2.96068635"><ele>1031</ele><time>2006-09-16T13:06:19Z</time></trkpt>
<trkpt lat="45.80002391" lon="2.96024152"><ele>1029</ele><time>2006-09-16T13:06:25Z</time></trkpt>
<trkpt lat="45.80001704" lon="2.95980365"><ele>1027</ele><time>2006-09-16T13:06:31Z</time></trkpt>
<trkpt lat="45.80001360" lon="2.95958472"><ele>1027</ele><time>2006-09-16T13:06:34Z</time></trkpt>
<trkpt lat="45.80001016" lon="2.95936578"><ele>1026</ele><time>2006-09-16T13:06:37Z</time></trkpt>
<trkpt lat="45.80000555" lon="2.95907384"><ele>1024</ele><time>2006-09-16T13:06:41Z</time></trkpt>
<trkpt lat="45.79999122" lon="2.95848157"><ele>1021</ele><time>2006-09-16T13:06:47Z</time></trkpt>
<trkpt lat="45.79992475" lon="2.95691642"><ele>1011</ele><time>2006-09-16T13:07:01Z</time></trkpt>
<trkpt lat="45.79958017" lon="2.95552930"><ele>1007</ele><time>2006-09-16T13:07:07Z</time></trkpt>
<trkpt lat="45.79893719" lon="2.95502211"><ele>1010</ele><time>2006-09-16T13:07:22Z</time></trkpt>
<trkpt lat="45.79889512" lon="2.95498246"><ele>1010</ele><time>2006-09-16T13:07:23Z</time></trkpt>
<trkpt lat="45.79861742" lon="2.95419943"><ele>1002</ele><time>2006-09-16T13:07:30Z</time></trkpt>
<trkpt lat="45.79794997" lon="2.95360398"><ele>1000</ele><time>2006-09-16T13:07:48Z</time></trkpt>
<trkpt lat="45.79771830" lon="2.95307608"><ele>999</ele><time>2006-09-16T13:08:02Z</time></trkpt>
<trkpt lat="45.79736844" lon="2.95273318"><ele>1000</ele><time>2006-09-16T13:08:16Z</time></trkpt>
<trkpt lat="45.79685823" lon="2.95213111"><ele>1001</ele><time>2006-09-16T13:08:36Z</time></trkpt>
<trkpt lat="45.79667718" lon="2.95195794"><ele>1002</ele><time>2006-09-16T13:08:43Z</time></trkpt>
<trkpt lat="45.79648666" lon="2.95161269"><ele>1002</ele><time>2006-09-16T13:08:53Z</time></trkpt>
<trkpt lat="45.79602993" lon="2.95084524"><ele>1006</ele><time>2006-09-16T13:09:14Z</time></trkpt>
<trkpt lat="45.79563269" lon="2.95014828"><ele>1008</ele><time>2006-09-16T13:09:25Z</time></trkpt>
<trkpt lat="45.79614928" lon="2.95028266"><ele>1006</ele><time>2006-09-16T13:09:38Z</time></trkpt>
<trkpt lat="45.79686900" lon="2.95029069"><ele>1005</ele><time>2006-09-16T13:10:08Z</time></trkpt>
<trkpt lat="45.79731952" lon="2.95016709"><ele>1006</ele><time>2006-09-16T13:10:19Z</time></trkpt>
<trkpt lat="45.79772419" lon="2.95020375"><ele>1006</ele><time>2006-09-16T13:10:24Z</time></trkpt>
<trkpt lat="45.79806226" lon="2.95007890"><ele>1008</ele><time>2006-09-16T13:10:33Z</time></trkpt>
<trkpt lat="45.79840015" lon="2.94998619"><ele>1009</ele><time>2006-09-16T13:10:45Z</time></trkpt>
<trkpt lat="45.79869289" lon="2.94992514"><ele>1010</ele><time>2006-09-16T13:11:10Z</time></trkpt>
<trkpt lat="45.79918787" lon="2.94989850"><ele>1008</ele><time>2006-09-16T13:11:13Z</time></trkpt>
<trkpt lat="45.79961625" lon="2.94971033"><ele>1004</ele><time>2006-09-16T13:11:16Z</time></trkpt>
<trkpt lat="45.79995467" lon="2.94952116"><ele>1000</ele><time>2006-09-16T13:11:19Z</time></trkpt>
<trkpt lat="45.80029344" lon="2.94926767"><ele>994</ele><time>2006-09-16T13:11:30Z</time></trkpt>
<trkpt lat="45.80072148" lon="2.94914380"><ele>982</ele><time>2006-09-16T13:11:40Z</time></trkpt>
<trkpt lat="45.80112597" lon="2.94921262"><ele>977</ele><time>2006-09-16T13:12:14Z</time></trkpt>
<trkpt lat="45.80144032" lon="2.94931260"><ele>975</ele><time>2006-09-16T13:12:21Z</time></trkpt>
<trkpt lat="45.80198168" lon="2.94902920"><ele>970</ele><time>2006-09-16T13:12:28Z</time></trkpt>
<trkpt lat="45.80241164" lon="2.94855160"><ele>964</ele><time>2006-09-16T13:12:34Z</time></trkpt>
<trkpt lat="45.80266237" lon="2.94794336"><ele>960</ele><time>2006-09-16T13:12:39Z</time></trkpt>
<trkpt lat="45.80302415" lon="2.94759363"><ele>958</ele><time>2006-09-16T13:12:40Z</time></trkpt>
<trkpt lat="45.80334199" lon="2.94705045"><ele>955</ele><time>2006-09-16T13:12:45Z</time></trkpt>
<trkpt lat="45.80348077" lon="2.94634448"><ele>950</ele><time>2006-09-16T13:13:04Z</time></trkpt>
<trkpt lat="45.80346316" lon="2.94544382"><ele>942</ele><time>2006-09-16T13:13:07Z</time></trkpt>
<trkpt lat="45.80377640" lon="2.94495603"><ele>939</ele><time>2006-09-16T13:13:12Z</time></trkpt>
<trkpt lat="45.80385586" lon="2.94488789"><ele>939</ele><time>2006-09-16T13:13:14Z</time></trkpt>
<trkpt lat="45.80409424" lon="2.94468362"><ele>937</ele><time>2006-09-16T13:13:20Z</time></trkpt>
<trkpt lat="45.80433657" lon="2.94422798"><ele>936</ele><time>2006-09-16T13:13:23Z</time></trkpt>
<trkpt lat="45.80460562" lon="2.94365843"><ele>934</ele><time>2006-09-16T13:13:30Z</time></trkpt>
<trkpt lat="45.80488826" lon="2.94301545"><ele>932</ele><time>2006-09-16T13:13:40Z</time></trkpt>
<trkpt lat="45.80542906" lon="2.94133849"><ele>929</ele><time>2006-09-16T13:14:01Z</time></trkpt>
<trkpt lat="45.80536536" lon="2.94105476"><ele>929</ele><time>2006-09-16T13:14:06Z</time></trkpt>
<trkpt lat="45.80528213" lon="2.94097002"><ele>929</ele><time>2006-09-16T13:14:08Z</time></trkpt>
<trkpt lat="45.80500376" lon="2.94031195"><ele>929</ele><time>2006-09-16T13:14:19Z</time></trkpt>
<trkpt lat="45.80489748" lon="2.93925525"><ele>929</ele><time>2006-09-16T13:14:34Z</time></trkpt>
<trkpt lat="45.80491668" lon="2.93912658"><ele>929</ele><time>2006-09-16T13:14:36Z</time></trkpt>
<trkpt lat="45.80503235" lon="2.93881084"><ele>929</ele><time>2006-09-16T13:14:41Z</time></trkpt>
<trkpt lat="45.80513553" lon="2.93865359"><ele>929</ele><time>2006-09-16T13:14:44Z</time></trkpt>
<trkpt lat="45.80584581" lon="2.93797592"><ele>929</ele><time>2006-09-16T13:15:03Z</time></trkpt>
<trkpt lat="45.80629441" lon="2.93774902"><ele>929</ele><time>2006-09-16T13:15:13Z</time></trkpt>
<trkpt lat="45.80638636" lon="2.93772094"><ele>929</ele><time>2006-09-16T13:15:15Z</time></trkpt>
<trkpt lat="45.80645149" lon="2.93771516"><ele>929</ele><time>2006-09-16T13:15:17Z</time></trkpt>
<trkpt lat="45.80688634" lon="2.93741877"><ele>930</ele><time>2006-09-16T13:15:30Z</time></trkpt>
<trkpt lat="45.80736964" lon="2.93706556"><ele>932</ele><time>2006-09-16T13:15:46Z</time></trkpt>
<trkpt lat="45.80764574" lon="2.93664755"><ele>932</ele><time>2006-09-16T13:16:00Z</time></trkpt>
<trkpt lat="45.80774926" lon="2.93590073"><ele>930</ele><time>2006-09-16T13:16:18Z</time></trkpt>
<trkpt lat="45.80776074" lon="2.93546906"><ele>930</ele><time>2006-09-16T13:16:25Z</time></trkpt>
<trkpt lat="45.80790692" lon="2.93411505"><ele>930</ele><time>2006-09-16T13:16:45Z</time></trkpt>
<trkpt lat="45.80793290" lon="2.93391556"><ele>930</ele><time>2006-09-16T13:16:48Z</time></trkpt>
<trkpt lat="45.80842735" lon="2.93275718"><ele>929</ele><time>2006-09-16T13:17:06Z</time></trkpt>
<trkpt lat="45.80858820" lon="2.93251368"><ele>929</ele><time>2006-09-16T13:17:10Z</time></trkpt>
<trkpt lat="45.80893840" lon="2.93237622"><ele>928</ele><time>2006-09-16T13:17:16Z</time></trkpt>
<trkpt lat="45.80946746" lon="2.93231956"><ele>929</ele><time>2006-09-16T13:17:26Z</time></trkpt>
<trkpt lat="45.80964767" lon="2.93231025"><ele>930</ele><time>2006-09-16T13:17:29Z</time></trkpt>
<trkpt lat="45.81019585" lon="2.93218235"><ele>931</ele><time>2006-09-16T13:17:38Z</time></trkpt>
<trkpt lat="45.81029761" lon="2.93178337"><ele>930</ele><time>2006-09-16T13:17:45Z</time></trkpt>
<trkpt lat="45.80997071" lon="2.93108038"><ele>927</ele><time>2006-09-16T13:18:01Z</time></trkpt>
<trkpt lat="45.80981623" lon="2.93074485"><ele>927</ele><time>2006-09-16T13:18:07Z</time></trkpt>
<trkpt lat="45.80975689" lon="2.93002560"><ele>926</ele><time>2006-09-16T13:18:16Z</time></trkpt>
<trkpt lat="45.80982311" lon="2.92971044"><ele>925</ele><time>2006-09-16T13:18:20Z</time></trkpt>
<trkpt lat="45.80976251" lon="2.92896713"><ele>922</ele><time>2006-09-16T13:18:29Z</time></trkpt>
<trkpt lat="45.80965019" lon="2.92720953"><ele>921</ele><time>2006-09-16T13:18:50Z</time></trkpt>
<trkpt lat="45.80964784" lon="2.92615173"><ele>921</ele><time>2006-09-16T13:19:02Z</time></trkpt>
<trkpt lat="45.80979302" lon="2.92593707"><ele>921</ele><time>2006-09-16T13:19:06Z</time></trkpt>
<trkpt lat="45.80991782" lon="2.92577513"><ele>920</ele><time>2006-09-16T13:19:09Z</time></trkpt>
<trkpt lat="45.81001296" lon="2.92568570"><ele>920</ele><time>2006-09-16T13:19:11Z</time></trkpt>
<trkpt lat="45.81061436" lon="2.92536224"><ele>919</ele><time>2006-09-16T13:19:23Z</time></trkpt>
<trkpt lat="45.81086129" lon="2.92525588"><ele>918</ele><time>2006-09-16T13:19:28Z</time></trkpt>
<trkpt lat="45.81106327" lon="2.92475000"><ele>917</ele><time>2006-09-16T13:19:42Z</time></trkpt>
<trkpt lat="45.81120006" lon="2.92439766"><ele>916</ele><time>2006-09-16T13:19:45Z</time></trkpt>
<trkpt lat="45.81147264" lon="2.92388594"><ele>914</ele><time>2006-09-16T13:19:46Z</time></trkpt>
<trkpt lat="45.81176628" lon="2.92361931"><ele>913</ele><time>2006-09-16T13:19:54Z</time></trkpt>
<trkpt lat="45.81184935" lon="2.92356793"><ele>913</ele><time>2006-09-16T13:19:56Z</time></trkpt>
<trkpt lat="45.81205186" lon="2.92336308"><ele>913</ele><time>2006-09-16T13:20:01Z</time></trkpt>
<trkpt lat="45.81212914" lon="2.92324917"><ele>913</ele><time>2006-09-16T13:20:03Z</time></trkpt>
<trkpt lat="45.81219745" lon="2.92294331"><ele>912</ele><time>2006-09-16T13:20:07Z</time></trkpt>
<trkpt lat="45.81220474" lon="2.92245682"><ele>912</ele><time>2006-09-16T13:20:13Z</time></trkpt>
<trkpt lat="45.81235952" lon="2.92202986"><ele>911</ele><time>2006-09-16T13:20:20Z</time></trkpt>
<trkpt lat="45.81247349" lon="2.92174159"><ele>908</ele><time>2006-09-16T13:20:23Z</time></trkpt>
<trkpt lat="45.81276738" lon="2.92145523"><ele>902</ele><time>2006-09-16T13:20:28Z</time></trkpt>
<trkpt lat="45.81306227" lon="2.92097589"><ele>892</ele><time>2006-09-16T13:20:29Z</time></trkpt>
<trkpt lat="45.81324454" lon="2.92052751"><ele>886</ele><time>2006-09-16T13:20:33Z</time></trkpt>
<trkpt lat="45.81342664" lon="2.92011130"><ele>880</ele><time>2006-09-16T13:20:34Z</time></trkpt>
<trkpt lat="45.81354043" lon="2.91985518"><ele>878</ele><time>2006-09-16T13:21:04Z</time></trkpt>
<trkpt lat="45.81376718" lon="2.91950377"><ele>875</ele><time>2006-09-16T13:21:07Z</time></trkpt>
<trkpt lat="45.81358741" lon="2.91946970"><ele>876</ele><time>2006-09-16T13:21:12Z</time></trkpt>
<trkpt lat="45.81316058" lon="2.91936868"><ele>880</ele><time>2006-09-16T13:21:22Z</time></trkpt>
<trkpt lat="45.81287647" lon="2.91925167"><ele>882</ele><time>2006-09-16T13:21:42Z</time></trkpt>
<trkpt lat="45.81256701" lon="2.91922778"><ele>885</ele><time>2006-09-16T13:21:55Z</time></trkpt>
<trkpt lat="45.81252493" lon="2.91922744"><ele>885</ele><time>2006-09-16T13:21:57Z</time></trkpt>
<trkpt lat="45.81221052" lon="2.91920364"><ele>887</ele><time>2006-09-16T13:22:12Z</time></trkpt>
<trkpt lat="45.81190559" lon="2.91919140"><ele>889</ele><time>2006-09-16T13:22:27Z</time></trkpt>
<trkpt lat="45.81188564" lon="2.91919157"><ele>889</ele><time>2006-09-16T13:22:28Z</time></trkpt>
<trkpt lat="45.81122808" lon="2.91919576"><ele>893</ele><time>2006-09-16T13:22:57Z</time></trkpt>
<trkpt lat="45.81087705" lon="2.91916776"><ele>895</ele><time>2006-09-16T13:23:13Z</time></trkpt>
<trkpt lat="45.81005778" lon="2.91914284"><ele>901</ele><time>2006-09-16T13:23:38Z</time></trkpt>
<trkpt lat="45.80938471" lon="2.91881408"><ele>906</ele><time>2006-09-16T13:24:05Z</time></trkpt>
<trkpt lat="45.80873163" lon="2.91896798"><ele>906</ele><time>2006-09-16T13:24:26Z</time></trkpt>
<trkpt lat="45.80840875" lon="2.91943448"><ele>908</ele><time>2006-09-16T13:24:44Z</time></trkpt>
<trkpt lat="45.80800658" lon="2.91998950"><ele>911</ele><time>2006-09-16T13:25:09Z</time></trkpt>
<trkpt lat="45.80751310" lon="2.91972697"><ele>912</ele><time>2006-09-16T13:25:35Z</time></trkpt>
<trkpt lat="45.80710826" lon="2.91972268"><ele>914</ele><time>2006-09-16T13:25:58Z</time></trkpt>
<trkpt lat="45.80677256" lon="2.91939751"><ele>914</ele><time>2006-09-16T13:26:06Z</time></trkpt>
<trkpt lat="45.80639054" lon="2.91932914"><ele>915</ele><time>2006-09-16T13:26:10Z</time></trkpt>
<trkpt lat="45.80618995" lon="2.91897324"><ele>915</ele><time>2006-09-16T13:26:24Z</time></trkpt>
<trkpt lat="45.80592122" lon="2.91874527"><ele>914</ele><time>2006-09-16T13:26:34Z</time></trkpt>
<trkpt lat="45.80563100" lon="2.91832411"><ele>913</ele><time>2006-09-16T13:26:41Z</time></trkpt>
<trkpt lat="45.80565714" lon="2.91761685"><ele>911</ele><time>2006-09-16T13:26:44Z</time></trkpt>
<trkpt lat="45.80536658" lon="2.91726002"><ele>908</ele><time>2006-09-16T13:26:52Z</time></trkpt>
<trkpt lat="45.80505552" lon="2.91651705"><ele>902</ele><time>2006-09-16T13:27:34Z</time></trkpt>
<trkpt lat="45.80429264" lon="2.91615525"><ele>901</ele><time>2006-09-16T13:27:57Z</time></trkpt>
<trkpt lat="45.80357424" lon="2.91589041"><ele>905</ele><time>2006-09-16T13:28:24Z</time></trkpt>
<trkpt lat="45.80301246" lon="2.91578802"><ele>908</ele><time>2006-09-16T13:28:36Z</time></trkpt>
<trkpt lat="45.80229141" lon="2.91603770"><ele>910</ele><time>2006-09-16T13:28:51Z</time></trkpt>
<trkpt lat="45.80206799" lon="2.91574592"><ele>911</ele><time>2006-09-16T13:28:57Z</time></trkpt>
<trkpt lat="45.80189170" lon="2.91503657"><ele>912</ele><time>2006-09-16T13:28:59Z</time></trkpt>
<trkpt lat="45.80166910" lon="2.91458402"><ele>909</ele><time>2006-09-16T13:29:02Z</time></trkpt>
<trkpt lat="45.80119959" lon="2.91403240"><ele>905</ele><time>2006-09-16T13:29:04Z</time></trkpt>
<trkpt lat="45.80116678" lon="2.91346321"><ele>901</ele><time>2006-09-16T13:29:20Z</time></trkpt>
<trkpt lat="45.80115923" lon="2.91313155"><ele>899</ele><time>2006-09-16T13:29:25Z</time></trkpt>
<trkpt lat="45.80116544" lon="2.91309776"><ele>899</ele><time>2006-09-16T13:29:30Z</time></trkpt>
<trkpt lat="45.80111655" lon="2.91268089"><ele>897</ele><time>2006-09-16T13:29:46Z</time></trkpt>
<trkpt lat="45.80105073" lon="2.91235862"><ele>895</ele><time>2006-09-16T13:29:47Z</time></trkpt>
<trkpt lat="45.80105221" lon="2.91206921"><ele>892</ele><time>2006-09-16T13:29:56Z</time></trkpt>
<trkpt lat="45.80103185" lon="2.91165094"><ele>889</ele><time>2006-09-16T13:30:00Z</time></trkpt>
<trkpt lat="45.80114661" lon="2.91120193"><ele>887</ele><time>2006-09-16T13:30:02Z</time></trkpt>
<trkpt lat="45.80137382" lon="2.91075409"><ele>883</ele><time>2006-09-16T13:30:07Z</time></trkpt>
<trkpt lat="45.80162287" lon="2.91043510"><ele>880</ele><time>2006-09-16T13:30:19Z</time></trkpt>
<trkpt lat="45.80200505" lon="2.91047125"><ele>878</ele><time>2006-09-16T13:30:23Z</time></trkpt>
<trkpt lat="45.80234374" lon="2.91021751"><ele>875</ele><time>2006-09-16T13:30:26Z</time></trkpt>
<trkpt lat="45.80235659" lon="2.90966663"><ele>872</ele><time>2006-09-16T13:30:29Z</time></trkpt>
<trkpt lat="45.80241527" lon="2.90954216"><ele>871</ele><time>2006-09-16T13:30:31Z</time></trkpt>
<trkpt lat="45.80250319" lon="2.90935541"><ele>870</ele><time>2006-09-16T13:30:34Z</time></trkpt>
<trkpt lat="45.80267913" lon="2.90898191"><ele>867</ele><time>2006-09-16T13:30:40Z</time></trkpt>
<trkpt lat="45.80246520" lon="2.90845004"><ele>862</ele><time>2006-09-16T13:30:47Z</time></trkpt>
<trkpt lat="45.80226474" lon="2.90806205"><ele>859</ele><time>2006-09-16T13:30:55Z</time></trkpt>
<trkpt lat="45.80215424" lon="2.90767500"><ele>858</ele><time>2006-09-16T13:31:08Z</time></trkpt>
<trkpt lat="45.80204358" lon="2.90732010"><ele>857</ele><time>2006-09-16T13:31:10Z</time></trkpt>
<trkpt lat="45.80209052" lon="2.90693469"><ele>856</ele><time>2006-09-16T13:31:14Z</time></trkpt>
<trkpt lat="45.80209198" lon="2.90664527"><ele>856</ele><time>2006-09-16T13:31:15Z</time></trkpt>
<trkpt lat="45.80216190" lon="2.90616362"><ele>856</ele><time>2006-09-16T13:31:33Z</time></trkpt>
<trkpt lat="45.80214153" lon="2.90574535"><ele>855</ele><time>2006-09-16T13:31:45Z</time></trkpt>
<trkpt lat="45.80212066" lon="2.90542354"><ele>855</ele><time>2006-09-16T13:31:53Z</time></trkpt>
<trkpt lat="45.80205514" lon="2.90503696"><ele>854</ele><time>2006-09-16T13:31:55Z</time></trkpt>
<trkpt lat="45.80199042" lon="2.90448960"><ele>853</ele><time>2006-09-16T13:32:04Z</time></trkpt>
<trkpt lat="45.80206147" lon="2.90378284"><ele>853</ele><time>2006-09-16T13:32:15Z</time></trkpt>
<trkpt lat="45.80188218" lon="2.90365236"><ele>851</ele><time>2006-09-16T13:32:39Z</time></trkpt>
<trkpt lat="45.80163429" lon="2.90374628"><ele>849</ele><time>2006-09-16T13:32:42Z</time></trkpt>
<trkpt lat="45.80136407" lon="2.90380781"><ele>846</ele><time>2006-09-16T13:32:43Z</time></trkpt>
<trkpt lat="45.80116084" lon="2.90396651"><ele>844</ele><time>2006-09-16T13:32:50Z</time></trkpt>
<trkpt lat="45.80100324" lon="2.90399704"><ele>842</ele><time>2006-09-16T13:32:53Z</time></trkpt>
<trkpt lat="45.80073399" lon="2.90386564"><ele>842</ele><time>2006-09-16T13:33:07Z</time></trkpt>
<trkpt lat="45.80037430" lon="2.90382977"><ele>841</ele><time>2006-09-16T13:33:10Z</time></trkpt>
<trkpt lat="45.80001379" lon="2.90395469"><ele>842</ele><time>2006-09-16T13:33:21Z</time></trkpt>
<trkpt lat="45.79960813" lon="2.90411129"><ele>844</ele><time>2006-09-16T13:33:37Z</time></trkpt>
<trkpt lat="45.79933580" lon="2.90459084"><ele>844</ele><time>2006-09-16T13:33:42Z</time></trkpt>
<trkpt lat="45.79913322" lon="2.90462090"><ele>842</ele><time>2006-09-16T13:33:44Z</time></trkpt>
<trkpt lat="45.79868291" lon="2.90471272"><ele>839</ele><time>2006-09-16T13:33:51Z</time></trkpt>
<trkpt lat="45.79839020" lon="2.90477402"><ele>839</ele><time>2006-09-16T13:34:12Z</time></trkpt>
<trkpt lat="45.79789620" lon="2.90460814"><ele>837</ele><time>2006-09-16T13:34:23Z</time></trkpt>
<trkpt lat="45.79756029" lon="2.90431526"><ele>835</ele><time>2006-09-16T13:34:29Z</time></trkpt>
<trkpt lat="45.79727034" lon="2.90382994"><ele>833</ele><time>2006-09-16T13:34:36Z</time></trkpt>
<trkpt lat="45.79711623" lon="2.90345530"><ele>832</ele><time>2006-09-16T13:34:39Z</time></trkpt>
<trkpt lat="45.79707197" lon="2.90302400"><ele>828</ele><time>2006-09-16T13:34:57Z</time></trkpt>
<trkpt lat="45.79705174" lon="2.90257361"><ele>825</ele><time>2006-09-16T13:35:08Z</time></trkpt>
<trkpt lat="45.79707520" lon="2.90238092"><ele>823</ele><time>2006-09-16T13:35:13Z</time></trkpt>
<trkpt lat="45.79714429" lon="2.90206007"><ele>821</ele><time>2006-09-16T13:35:18Z</time></trkpt>
<trkpt lat="45.79746600" lon="2.90137776"><ele>816</ele><time>2006-09-16T13:35:23Z</time></trkpt>
<trkpt lat="45.79778148" lon="2.90058744"><ele>811</ele><time>2006-09-16T13:35:38Z</time></trkpt>
<trkpt lat="45.79783741" lon="2.89992861"><ele>809</ele><time>2006-09-16T13:35:49Z</time></trkpt>
<trkpt lat="45.79788543" lon="2.89970943"><ele>809</ele><time>2006-09-16T13:35:52Z</time></trkpt>
<trkpt lat="45.79785777" lon="2.89857309"><ele>809</ele><time>2006-09-16T13:36:07Z</time></trkpt>
<trkpt lat="45.79779801" lon="2.89798686"><ele>809</ele><time>2006-09-16T13:36:16Z</time></trkpt>
<trkpt lat="45.79772819" lon="2.89695748"><ele>810</ele><time>2006-09-16T13:36:34Z</time></trkpt>
<trkpt lat="45.79787470" lon="2.89591863"><ele>812</ele><time>2006-09-16T13:36:53Z</time></trkpt>
<trkpt lat="45.79815650" lon="2.89506619"><ele>812</ele><time>2006-09-16T13:37:09Z</time></trkpt>
<trkpt lat="45.79821048" lon="2.89401795"><ele>814</ele><time>2006-09-16T13:37:28Z</time></trkpt>
<trkpt lat="45.79813463" lon="2.89319635"><ele>814</ele><time>2006-09-16T13:37:44Z</time></trkpt>
<trkpt lat="45.79798702" lon="2.89205239"><ele>813</ele><time>2006-09-16T13:38:01Z</time></trkpt>
<trkpt lat="45.79791762" lon="2.89153758"><ele>813</ele><time>2006-09-16T13:38:08Z</time></trkpt>
<trkpt lat="45.79785216" lon="2.89114882"><ele>813</ele><time>2006-09-16T13:38:14Z</time></trkpt>
<trkpt lat="45.79788929" lon="2.89081271"><ele>813</ele><time>2006-09-16T13:38:19Z</time></trkpt>
<trkpt lat="45.79793422" lon="2.89068614"><ele>813</ele><time>2006-09-16T13:38:21Z</time></trkpt>
<trkpt lat="45.79797177" lon="2.89054767"><ele>813</ele><time>2006-09-16T13:38:23Z</time></trkpt>
<trkpt lat="45.79800035" lon="2.89025070"><ele>813</ele><time>2006-09-16T13:38:27Z</time></trkpt>
<trkpt lat="45.79799800" lon="2.89002297"><ele>813</ele><time>2006-09-16T13:38:30Z</time></trkpt>
<trkpt lat="45.79759751" lon="2.88841263"><ele>813</ele><time>2006-09-16T13:38:52Z</time></trkpt>
<trkpt lat="45.79735695" lon="2.88759590"><ele>812</ele><time>2006-09-16T13:39:03Z</time></trkpt>
<trkpt lat="45.79745368" lon="2.88732550"><ele>812</ele><time>2006-09-16T13:39:08Z</time></trkpt>
<trkpt lat="45.79772484" lon="2.88692719"><ele>812</ele><time>2006-09-16T13:39:16Z</time></trkpt>
<trkpt lat="45.79820193" lon="2.88578759"><ele>812</ele><time>2006-09-16T13:39:34Z</time></trkpt>
<trkpt lat="45.79853755" lon="2.88460415"><ele>812</ele><time>2006-09-16T13:39:50Z</time></trkpt>
<trkpt lat="45.79856177" lon="2.88318501"><ele>812</ele><time>2006-09-16T13:40:08Z</time></trkpt>
<trkpt lat="45.79855247" lon="2.88287823"><ele>812</ele><time>2006-09-16T13:40:12Z</time></trkpt>
<trkpt lat="45.79818815" lon="2.88197311"><ele>812</ele><time>2006-09-16T13:40:29Z</time></trkpt>
<trkpt lat="45.79866872" lon="2.88144015"><ele>812</ele><time>2006-09-16T13:40:35Z</time></trkpt>
<trkpt lat="45.79957455" lon="2.88106623"><ele>813</ele><time>2006-09-16T13:40:55Z</time></trkpt>
<trkpt lat="45.79992400" lon="2.88092667"><ele>813</ele><time>2006-09-16T13:41:03Z</time></trkpt>
<trkpt lat="45.80007177" lon="2.88052484"><ele>813</ele><time>2006-09-16T13:41:10Z</time></trkpt>
<trkpt lat="45.79997508" lon="2.87990059"><ele>813</ele><time>2006-09-16T13:41:22Z</time></trkpt>
<trkpt lat="45.79976021" lon="2.87947853"><ele>813</ele><time>2006-09-16T13:41:29Z</time></trkpt>
<trkpt lat="45.79892781" lon="2.87946705"><ele>813</ele><time>2006-09-16T13:41:45Z</time></trkpt>
<trkpt lat="45.79802969" lon="2.87931207"><ele>812</ele><time>2006-09-16T13:42:01Z</time></trkpt>
<trkpt lat="45.79719292" lon="2.87877856"><ele>811</ele><time>2006-09-16T13:42:16Z</time></trkpt>
<trkpt lat="45.79648121" lon="2.87827539"><ele>809</ele><time>2006-09-16T13:42:29Z</time></trkpt>
<trkpt lat="45.79553406" lon="2.87733545"><ele>807</ele><time>2006-09-16T13:42:46Z</time></trkpt>
<trkpt lat="45.79449604" lon="2.87637019"><ele>806</ele><time>2006-09-16T13:43:06Z</time></trkpt>
<trkpt lat="45.79377134" lon="2.87539495"><ele>806</ele><time>2006-09-16T13:43:22Z</time></trkpt>
<trkpt lat="45.79373279" lon="2.87533318"><ele>806</ele><time>2006-09-16T13:43:23Z</time></trkpt>
<trkpt lat="45.79363413" lon="2.87486052"><ele>805</ele><time>2006-09-16T13:43:31Z</time></trkpt>
<trkpt lat="45.79360873" lon="2.87476866"><ele>805</ele><time>2006-09-16T13:43:33Z</time></trkpt>
<trkpt lat="45.79330824" lon="2.87457235"><ele>805</ele><time>2006-09-16T13:43:40Z</time></trkpt>
<trkpt lat="45.79317355" lon="2.87445299"><ele>804</ele><time>2006-09-16T13:43:43Z</time></trkpt>
<trkpt lat="45.79305360" lon="2.87429265"><ele>804</ele><time>2006-09-16T13:43:46Z</time></trkpt>
<trkpt lat="45.79297079" lon="2.87400406"><ele>804</ele><time>2006-09-16T13:43:50Z</time></trkpt>
<trkpt lat="45.79306064" lon="2.87347441"><ele>804</ele><time>2006-09-16T13:43:57Z</time></trkpt>
<trkpt lat="45.79318788" lon="2.87324575"><ele>804</ele><time>2006-09-16T13:44:01Z</time></trkpt>
<trkpt lat="45.79337454" lon="2.87310996"><ele>805</ele><time>2006-09-16T13:44:05Z</time></trkpt>
<trkpt lat="45.79349742" lon="2.87296001"><ele>805</ele><time>2006-09-16T13:44:08Z</time></trkpt>
<trkpt lat="45.79391425" lon="2.87218359"><ele>804</ele><time>2006-09-16T13:44:20Z</time></trkpt>
<trkpt lat="45.79397905" lon="2.87176576"><ele>804</ele><time>2006-09-16T13:44:25Z</time></trkpt>
<trkpt lat="45.79399279" lon="2.87088230"><ele>804</ele><time>2006-09-16T13:44:34Z</time></trkpt>
<trkpt lat="45.79397645" lon="2.86887978"><ele>799</ele><time>2006-09-16T13:44:53Z</time></trkpt>
<trkpt lat="45.79397653" lon="2.86878406"><ele>798</ele><time>2006-09-16T13:44:54Z</time></trkpt>
<trkpt lat="45.79377528" lon="2.86860678"><ele>797</ele><time>2006-09-16T13:44:59Z</time></trkpt>
<trkpt lat="45.79256133" lon="2.86928270"><ele>796</ele><time>2006-09-16T13:45:20Z</time></trkpt>
<trkpt lat="45.79224022" lon="2.86942997"><ele>794</ele><time>2006-09-16T13:45:25Z</time></trkpt>
<trkpt lat="45.79137940" lon="2.86972686"><ele>791</ele><time>2006-09-16T13:45:37Z</time></trkpt>
<trkpt lat="45.79130262" lon="2.86975921"><ele>791</ele><time>2006-09-16T13:45:38Z</time></trkpt>
<trkpt lat="45.79108863" lon="2.86986222"><ele>791</ele><time>2006-09-16T13:45:41Z</time></trkpt>
<trkpt lat="45.79084430" lon="2.86964606"><ele>790</ele><time>2006-09-16T13:45:47Z</time></trkpt>
<trkpt lat="45.79073072" lon="2.86899143"><ele>787</ele><time>2006-09-16T13:45:53Z</time></trkpt>
<trkpt lat="45.79045404" lon="2.86788359"><ele>782</ele><time>2006-09-16T13:46:03Z</time></trkpt>
<trkpt lat="45.79026897" lon="2.86757832"><ele>781</ele><time>2006-09-16T13:46:07Z</time></trkpt>
<trkpt lat="45.79014592" lon="2.86743491"><ele>780</ele><time>2006-09-16T13:46:09Z</time></trkpt>
<trkpt lat="45.79003226" lon="2.86709025"><ele>777</ele><time>2006-09-16T13:46:12Z</time></trkpt>
<trkpt lat="45.79001114" lon="2.86694247"><ele>776</ele><time>2006-09-16T13:46:13Z</time></trkpt>
<trkpt lat="45.78998876" lon="2.86647979"><ele>773</ele><time>2006-09-16T13:46:16Z</time></trkpt>
<trkpt lat="45.78999563" lon="2.86631299"><ele>771</ele><time>2006-09-16T13:46:17Z</time></trkpt>
<trkpt lat="45.79004458" lon="2.86562081"><ele>769</ele><time>2006-09-16T13:46:21Z</time></trkpt>
<trkpt lat="45.79005824" lon="2.86517188"><ele>768</ele><time>2006-09-16T13:46:24Z</time></trkpt>
<trkpt lat="45.79000577" lon="2.86443469"><ele>765</ele><time>2006-09-16T13:46:29Z</time></trkpt>
<trkpt lat="45.78997183" lon="2.86412883"><ele>763</ele><time>2006-09-16T13:46:31Z</time></trkpt>
<trkpt lat="45.78987074" lon="2.86368409"><ele>760</ele><time>2006-09-16T13:46:34Z</time></trkpt>
<trkpt lat="45.78986303" lon="2.86324178"><ele>757</ele><time>2006-09-16T13:46:37Z</time></trkpt>
<trkpt lat="45.79007333" lon="2.86289024"><ele>756</ele><time>2006-09-16T13:46:40Z</time></trkpt>
<trkpt lat="45.79015698" lon="2.86277600"><ele>755</ele><time>2006-09-16T13:46:41Z</time></trkpt>
<trkpt lat="45.79037097" lon="2.86241449"><ele>751</ele><time>2006-09-16T13:46:44Z</time></trkpt>
<trkpt lat="45.79058580" lon="2.86209161"><ele>744</ele><time>2006-09-16T13:46:47Z</time></trkpt>
<trkpt lat="45.79086282" lon="2.86189389"><ele>736</ele><time>2006-09-16T13:46:50Z</time></trkpt>
<trkpt lat="45.79115091" lon="2.86187360"><ele>728</ele><time>2006-09-16T13:46:54Z</time></trkpt>
<trkpt lat="45.79122182" lon="2.86193839"><ele>727</ele><time>2006-09-16T13:46:55Z</time></trkpt>
<trkpt lat="45.79134814" lon="2.86210042"><ele>726</ele><time>2006-09-16T13:46:57Z</time></trkpt>
<trkpt lat="45.79143682" lon="2.86223469"><ele>726</ele><time>2006-09-16T13:46:59Z</time></trkpt>
<trkpt lat="45.79150555" lon="2.86227526"><ele>725</ele><time>2006-09-16T13:47:01Z</time></trkpt>
<trkpt lat="45.79150412" lon="2.86213671"><ele>722</ele><time>2006-09-16T13:47:04Z</time></trkpt>
<trkpt lat="45.79136691" lon="2.86178819"><ele>721</ele><time>2006-09-16T13:47:08Z</time></trkpt>
<trkpt lat="45.79122618" lon="2.86141486"><ele>719</ele><time>2006-09-16T13:47:11Z</time></trkpt>
<trkpt lat="45.79107908" lon="2.86106961"><ele>717</ele><time>2006-09-16T13:47:14Z</time></trkpt>
<trkpt lat="45.79098201" lon="2.86084162"><ele>715</ele><time>2006-09-16T13:47:16Z</time></trkpt>
<trkpt lat="45.79093399" lon="2.86072947"><ele>714</ele><time>2006-09-16T13:47:17Z</time></trkpt>
<trkpt lat="45.79085855" lon="2.86042244"><ele>710</ele><time>2006-09-16T13:47:20Z</time></trkpt>
<trkpt lat="45.79091487" lon="2.86014408"><ele>706</ele><time>2006-09-16T13:47:23Z</time></trkpt>
<trkpt lat="45.79140178" lon="2.85909911"><ele>703</ele><time>2006-09-16T13:47:34Z</time></trkpt>
<trkpt lat="45.79146196" lon="2.85894035"><ele>705</ele><time>2006-09-16T13:47:36Z</time></trkpt>
<trkpt lat="45.79158836" lon="2.85879719"><ele>708</ele><time>2006-09-16T13:47:40Z</time></trkpt>
<trkpt lat="45.79183982" lon="2.85891823"><ele>707</ele><time>2006-09-16T13:47:52Z</time></trkpt>
<trkpt lat="45.79184091" lon="2.85863224"><ele>709</ele><time>2006-09-16T13:48:04Z</time></trkpt>
<trkpt lat="45.79164737" lon="2.85783118"><ele>715</ele><time>2006-09-16T13:48:25Z</time></trkpt>
<trkpt lat="45.79149968" lon="2.85722232"><ele>717</ele><time>2006-09-16T13:48:43Z</time></trkpt>
<trkpt lat="45.79146163" lon="2.85664153"><ele>720</ele><time>2006-09-16T13:48:59Z</time></trkpt>
<trkpt lat="45.79144612" lon="2.85617231"><ele>726</ele><time>2006-09-16T13:49:13Z</time></trkpt>
<trkpt lat="45.79144679" lon="2.85613786"><ele>726</ele><time>2006-09-16T13:49:14Z</time></trkpt>
<trkpt lat="45.79144185" lon="2.85575389"><ele>733</ele><time>2006-09-16T13:49:26Z</time></trkpt>
<trkpt lat="45.79154896" lon="2.85529515"><ele>736</ele><time>2006-09-16T13:49:45Z</time></trkpt>
<trkpt lat="45.79170219" lon="2.85492852"><ele>738</ele><time>2006-09-16T13:50:02Z</time></trkpt>
<trkpt lat="45.79187008" lon="2.85443298"><ele>740</ele><time>2006-09-16T13:50:18Z</time></trkpt>
<trkpt lat="45.79173814" lon="2.85373695"><ele>743</ele><time>2006-09-16T13:50:34Z</time></trkpt>
<trkpt lat="45.79149792" lon="2.85301267"><ele>741</ele><time>2006-09-16T13:50:49Z</time></trkpt>
<trkpt lat="45.79144620" lon="2.85286699"><ele>741</ele><time>2006-09-16T13:50:52Z</time></trkpt>
<trkpt lat="45.79136993" lon="2.85272618"><ele>740</ele><time>2006-09-16T13:50:55Z</time></trkpt>
<trkpt lat="45.79103063" lon="2.85189327"><ele>739</ele><time>2006-09-16T13:51:12Z</time></trkpt>
<trkpt lat="45.79050081" lon="2.85128768"><ele>740</ele><time>2006-09-16T13:51:30Z</time></trkpt>
<trkpt lat="45.79014215" lon="2.85086012"><ele>742</ele><time>2006-09-16T13:51:44Z</time></trkpt>
<trkpt lat="45.78992858" lon="2.85033717"><ele>743</ele><time>2006-09-16T13:51:58Z</time></trkpt>
<trkpt lat="45.78961040" lon="2.84981087"><ele>743</ele><time>2006-09-16T13:52:11Z</time></trkpt>
<trkpt lat="45.78918653" lon="2.84891610"><ele>744</ele><time>2006-09-16T13:52:27Z</time></trkpt>
<trkpt lat="45.78904194" lon="2.84870253"><ele>744</ele><time>2006-09-16T13:52:31Z</time></trkpt>
<trkpt lat="45.78890473" lon="2.84855702"><ele>744</ele><time>2006-09-16T13:52:34Z</time></trkpt>
<trkpt lat="45.78877321" lon="2.84836055"><ele>744</ele><time>2006-09-16T13:52:37Z</time></trkpt>
<trkpt lat="45.78869199" lon="2.84820389"><ele>744</ele><time>2006-09-16T13:52:39Z</time></trkpt>
<trkpt lat="45.78848211" lon="2.84773987"><ele>743</ele><time>2006-09-16T13:52:44Z</time></trkpt>
<trkpt lat="45.78825278" lon="2.84745690"><ele>740</ele><time>2006-09-16T13:52:48Z</time></trkpt>
<trkpt lat="45.78815463" lon="2.84731348"><ele>739</ele><time>2006-09-16T13:52:50Z</time></trkpt>
<trkpt lat="45.78809855" lon="2.84686346"><ele>737</ele><time>2006-09-16T13:52:54Z</time></trkpt>
<trkpt lat="45.78818271" lon="2.84634328"><ele>735</ele><time>2006-09-16T13:52:58Z</time></trkpt>
<trkpt lat="45.78824448" lon="2.84609182"><ele>735</ele><time>2006-09-16T13:53:00Z</time></trkpt>
<trkpt lat="45.78834691" lon="2.84570835"><ele>731</ele><time>2006-09-16T13:53:03Z</time></trkpt>
<trkpt lat="45.78848865" lon="2.84519353"><ele>726</ele><time>2006-09-16T13:53:07Z</time></trkpt>
<trkpt lat="45.78859535" lon="2.84495012"><ele>723</ele><time>2006-09-16T13:53:09Z</time></trkpt>
<trkpt lat="45.78879576" lon="2.84460043"><ele>721</ele><time>2006-09-16T13:53:12Z</time></trkpt>
<trkpt lat="45.78892560" lon="2.84435500"><ele>718</ele><time>2006-09-16T13:53:14Z</time></trkpt>
<trkpt lat="45.78912232" lon="2.84404169"><ele>718</ele><time>2006-09-16T13:53:17Z</time></trkpt>
<trkpt lat="45.78931762" lon="2.84378596"><ele>719</ele><time>2006-09-16T13:53:20Z</time></trkpt>
<trkpt lat="45.78970679" lon="2.84353374"><ele>718</ele><time>2006-09-16T13:53:29Z</time></trkpt>
<trkpt lat="45.78987979" lon="2.84342017"><ele>718</ele><time>2006-09-16T13:53:35Z</time></trkpt>
<trkpt lat="45.78999404" lon="2.84327826"><ele>720</ele><time>2006-09-16T13:53:40Z</time></trkpt>
<trkpt lat="45.79016956" lon="2.84307618"><ele>720</ele><time>2006-09-16T13:53:50Z</time></trkpt>
<trkpt lat="45.79032906" lon="2.84289806"><ele>721</ele><time>2006-09-16T13:53:58Z</time></trkpt>
<trkpt lat="45.79055160" lon="2.84280963"><ele>719</ele><time>2006-09-16T13:54:03Z</time></trkpt>
<trkpt lat="45.79098897" lon="2.84251157"><ele>719</ele><time>2006-09-16T13:54:12Z</time></trkpt>
<trkpt lat="45.79122534" lon="2.84209482"><ele>721</ele><time>2006-09-16T13:54:23Z</time></trkpt>
<trkpt lat="45.79134386" lon="2.84181596"><ele>723</ele><time>2006-09-16T13:54:30Z</time></trkpt>
<trkpt lat="45.79131075" lon="2.84112286"><ele>731</ele><time>2006-09-16T13:54:45Z</time></trkpt>
<trkpt lat="45.79133422" lon="2.84082891"><ele>732</ele><time>2006-09-16T13:54:51Z</time></trkpt>
<trkpt lat="45.79184099" lon="2.84049472"><ele>733</ele><time>2006-09-16T13:55:07Z</time></trkpt>
<trkpt lat="45.79211785" lon="2.84013497"><ele>732</ele><time>2006-09-16T13:55:19Z</time></trkpt>
<trkpt lat="45.79226713" lon="2.84009465"><ele>731</ele><time>2006-09-16T13:55:23Z</time></trkpt>
<trkpt lat="45.79231231" lon="2.84008719"><ele>731</ele><time>2006-09-16T13:55:24Z</time></trkpt>
<trkpt lat="45.79242588" lon="2.84007738"><ele>731</ele><time>2006-09-16T13:55:26Z</time></trkpt>
<trkpt lat="45.79350631" lon="2.83970037"><ele>729</ele><time>2006-09-16T13:55:44Z</time></trkpt>
<trkpt lat="45.79416227" lon="2.83951052"><ele>729</ele><time>2006-09-16T13:55:58Z</time></trkpt>
<trkpt lat="45.79450585" lon="2.83927415"><ele>728</ele><time>2006-09-16T13:56:05Z</time></trkpt>
<trkpt lat="45.79504648" lon="2.83927188"><ele>725</ele><time>2006-09-16T13:56:13Z</time></trkpt>
<trkpt lat="45.79553096" lon="2.83933936"><ele>720</ele><time>2006-09-16T13:56:20Z</time></trkpt>
<trkpt lat="45.79565928" lon="2.83934397"><ele>719</ele><time>2006-09-16T13:56:22Z</time></trkpt>
<trkpt lat="45.79591292" lon="2.83934162"><ele>715</ele><time>2006-09-16T13:56:26Z</time></trkpt>
<trkpt lat="45.79611425" lon="2.83934883"><ele>710</ele><time>2006-09-16T13:56:29Z</time></trkpt>
<trkpt lat="45.79618122" lon="2.83935470"><ele>708</ele><time>2006-09-16T13:56:30Z</time></trkpt>
<trkpt lat="45.79631014" lon="2.83937775"><ele>705</ele><time>2006-09-16T13:56:32Z</time></trkpt>
<trkpt lat="45.79654919" lon="2.83943608"><ele>696</ele><time>2006-09-16T13:56:36Z</time></trkpt>
<trkpt lat="45.79667324" lon="2.83953751"><ele>692</ele><time>2006-09-16T13:56:39Z</time></trkpt>
<trkpt lat="45.79680677" lon="2.83963088"><ele>686</ele><time>2006-09-16T13:56:43Z</time></trkpt>
<trkpt lat="45.79691774" lon="2.83936970"><ele>684</ele><time>2006-09-16T13:56:49Z</time></trkpt>
<trkpt lat="45.79688304" lon="2.83923810"><ele>685</ele><time>2006-09-16T13:56:51Z</time></trkpt>
<trkpt lat="45.79666486" lon="2.83893778"><ele>688</ele><time>2006-09-16T13:56:56Z</time></trkpt>
<trkpt lat="45.79646688" lon="2.83869596"><ele>689</ele><time>2006-09-16T13:57:00Z</time></trkpt>
<trkpt lat="45.79629614" lon="2.83852916"><ele>688</ele><time>2006-09-16T13:57:03Z</time></trkpt>
<trkpt lat="45.79598350" lon="2.83836915"><ele>690</ele><time>2006-09-16T13:57:08Z</time></trkpt>
<trkpt lat="45.79562970" lon="2.83824418"><ele>690</ele><time>2006-09-16T13:57:14Z</time></trkpt>
<trkpt lat="45.79483801" lon="2.83821014"><ele>692</ele><time>2006-09-16T13:57:21Z</time></trkpt>
<trkpt lat="45.79485906" lon="2.83775442"><ele>675</ele><time>2006-09-16T13:57:28Z</time></trkpt>
<trkpt lat="45.79487423" lon="2.83719082"><ele>669</ele><time>2006-09-16T13:57:34Z</time></trkpt>
<trkpt lat="45.79495520" lon="2.83589632"><ele>669</ele><time>2006-09-16T13:57:48Z</time></trkpt>
<trkpt lat="45.79498353" lon="2.83559566"><ele>670</ele><time>2006-09-16T13:57:54Z</time></trkpt>
<trkpt lat="45.79496962" lon="2.83556499"><ele>670</ele><time>2006-09-16T13:58:07Z</time></trkpt>
<trkpt lat="45.79497448" lon="2.83555652"><ele>670</ele><time>2006-09-16T13:58:26Z</time></trkpt>
<trkpt lat="45.79499284" lon="2.83554738"><ele>670</ele><time>2006-09-16T13:59:15Z</time></trkpt>
<trkpt lat="45.79491103" lon="2.83544915"><ele>671</ele><time>2006-09-16T13:59:22Z</time></trkpt>
<trkpt lat="45.79444801" lon="2.83530833"><ele>672</ele><time>2006-09-16T13:59:40Z</time></trkpt>
<trkpt lat="45.79328846" lon="2.83552349"><ele>673</ele><time>2006-09-16T14:00:01Z</time></trkpt>
<trkpt lat="45.79185834" lon="2.83575333"><ele>675</ele><time>2006-09-16T14:00:27Z</time></trkpt>
<trkpt lat="45.79139885" lon="2.83571158"><ele>678</ele><time>2006-09-16T14:00:35Z</time></trkpt>
<trkpt lat="45.79070767" lon="2.83539869"><ele>682</ele><time>2006-09-16T14:00:48Z</time></trkpt>
<trkpt lat="45.79058823" lon="2.83513156"><ele>684</ele><time>2006-09-16T14:00:53Z</time></trkpt>
<trkpt lat="45.79069566" lon="2.83399267"><ele>696</ele><time>2006-09-16T14:01:16Z</time></trkpt>
<trkpt lat="45.79103559" lon="2.83341700"><ele>701</ele><time>2006-09-16T14:01:32Z</time></trkpt>
<trkpt lat="45.79117899" lon="2.83248371"><ele>701</ele><time>2006-09-16T14:01:57Z</time></trkpt>
<trkpt lat="45.79145308" lon="2.83195934"><ele>705</ele><time>2006-09-16T14:02:15Z</time></trkpt>
<trkpt lat="45.79178039" lon="2.83092007"><ele>708</ele><time>2006-09-16T14:02:42Z</time></trkpt>
<trkpt lat="45.79174234" lon="2.82962624"><ele>709</ele><time>2006-09-16T14:03:06Z</time></trkpt>
<trkpt lat="45.79169682" lon="2.82953756"><ele>707</ele><time>2006-09-16T14:03:08Z</time></trkpt>
<trkpt lat="45.79152181" lon="2.82873583"><ele>701</ele><time>2006-09-16T14:03:21Z</time></trkpt>
<trkpt lat="45.79122827" lon="2.82704713"><ele>704</ele><time>2006-09-16T14:03:50Z</time></trkpt>
<trkpt lat="45.79083307" lon="2.82583309"><ele>707</ele><time>2006-09-16T14:04:11Z</time></trkpt>
<trkpt lat="45.79088965" lon="2.82500764"><ele>714</ele><time>2006-09-16T14:04:27Z</time></trkpt>
<trkpt lat="45.79113314" lon="2.82426073"><ele>716</ele><time>2006-09-16T14:04:43Z</time></trkpt>
<trkpt lat="45.79166279" lon="2.82305642"><ele>726</ele><time>2006-09-16T14:05:11Z</time></trkpt>
<trkpt lat="45.79177679" lon="2.82251084"><ele>729</ele><time>2006-09-16T14:05:30Z</time></trkpt>
<trkpt lat="45.79183202" lon="2.82223038"><ele>729</ele><time>2006-09-16T14:05:41Z</time></trkpt>
<trkpt lat="45.79184627" lon="2.82214346"><ele>729</ele><time>2006-09-16T14:05:44Z</time></trkpt>
<trkpt lat="45.79188047" lon="2.82148691"><ele>729</ele><time>2006-09-16T14:06:08Z</time></trkpt>
<trkpt lat="45.79193286" lon="2.82100805"><ele>732</ele><time>2006-09-16T14:06:27Z</time></trkpt>
<trkpt lat="45.79198139" lon="2.82084368"><ele>732</ele><time>2006-09-16T14:06:33Z</time></trkpt>
<trkpt lat="45.79210561" lon="2.82053908"><ele>734</ele><time>2006-09-16T14:06:47Z</time></trkpt>
<trkpt lat="45.79246100" lon="2.82003927"><ele>737</ele><time>2006-09-16T14:07:09Z</time></trkpt>
<trkpt lat="45.79283735" lon="2.81943569"><ele>737</ele><time>2006-09-16T14:07:30Z</time></trkpt>
<trkpt lat="45.79321437" lon="2.81905649"><ele>736</ele><time>2006-09-16T14:07:50Z</time></trkpt>
<trkpt lat="45.79347546" lon="2.81898868"><ele>736</ele><time>2006-09-16T14:08:06Z</time></trkpt>
<trkpt lat="45.79361024" lon="2.81901307"><ele>737</ele><time>2006-09-16T14:08:26Z</time></trkpt>
<trkpt lat="45.79358862" lon="2.81901198"><ele>737</ele><time>2006-09-16T14:13:54Z</time></trkpt>
<trkpt lat="45.79361351" lon="2.81898055"><ele>736</ele><time>2006-09-16T14:16:59Z</time></trkpt>
<trkpt lat="45.79356263" lon="2.81872666"><ele>733</ele><time>2006-09-16T14:17:08Z</time></trkpt>
<trkpt lat="45.79332727" lon="2.81843757"><ele>729</ele><time>2006-09-16T14:17:17Z</time></trkpt>
<trkpt lat="45.79316760" lon="2.81830380"><ele>729</ele><time>2006-09-16T14:17:22Z</time></trkpt>
<trkpt lat="45.79285788" lon="2.81833188"><ele>727</ele><time>2006-09-16T14:17:27Z</time></trkpt>
<trkpt lat="45.79261799" lon="2.81844311"><ele>724</ele><time>2006-09-16T14:17:31Z</time></trkpt>
<trkpt lat="45.79226453" lon="2.81871996"><ele>723</ele><time>2006-09-16T14:17:39Z</time></trkpt>
<trkpt lat="45.79197703" lon="2.81895557"><ele>721</ele><time>2006-09-16T14:17:46Z</time></trkpt>
<trkpt lat="45.79179665" lon="2.81915414"><ele>719</ele><time>2006-09-16T14:17:50Z</time></trkpt>
<trkpt lat="45.79159104" lon="2.81932924"><ele>718</ele><time>2006-09-16T14:17:54Z</time></trkpt>
<trkpt lat="45.79143715" lon="2.81932823"><ele>718</ele><time>2006-09-16T14:17:57Z</time></trkpt>
<trkpt lat="45.79101839" lon="2.81847194"><ele>721</ele><time>2006-09-16T14:18:12Z</time></trkpt>
<trkpt lat="45.79075503" lon="2.81780600"><ele>723</ele><time>2006-09-16T14:18:28Z</time></trkpt>
<trkpt lat="45.79055512" lon="2.81755211"><ele>723</ele><time>2006-09-16T14:18:36Z</time></trkpt>
<trkpt lat="45.79016738" lon="2.81715766"><ele>721</ele><time>2006-09-16T14:18:52Z</time></trkpt>
<trkpt lat="45.79012865" lon="2.81710979"><ele>722</ele><time>2006-09-16T14:18:54Z</time></trkpt>
<trkpt lat="45.78955852" lon="2.81680084"><ele>719</ele><time>2006-09-16T14:19:17Z</time></trkpt>
<trkpt lat="45.78888327" lon="2.81685406"><ele>720</ele><time>2006-09-16T14:19:38Z</time></trkpt>
<trkpt lat="45.78885259" lon="2.81673152"><ele>722</ele><time>2006-09-16T14:19:42Z</time></trkpt>
<trkpt lat="45.78885712" lon="2.81625736"><ele>731</ele><time>2006-09-16T14:19:55Z</time></trkpt>
<trkpt lat="45.78880222" lon="2.81619365"><ele>731</ele><time>2006-09-16T14:19:57Z</time></trkpt>
<trkpt lat="45.78857917" lon="2.81625484"><ele>727</ele><time>2006-09-16T14:20:01Z</time></trkpt>
<trkpt lat="45.78851732" lon="2.81646263"><ele>724</ele><time>2006-09-16T14:20:04Z</time></trkpt>
<trkpt lat="45.78851564" lon="2.81705582"><ele>719</ele><time>2006-09-16T14:20:12Z</time></trkpt>
<trkpt lat="45.78852754" lon="2.81741490"><ele>721</ele><time>2006-09-16T14:20:16Z</time></trkpt>
<trkpt lat="45.78878948" lon="2.81788806"><ele>726</ele><time>2006-09-16T14:20:25Z</time></trkpt>
<trkpt lat="45.78885569" lon="2.81799551"><ele>728</ele><time>2006-09-16T14:20:28Z</time></trkpt>
<trkpt lat="45.78904672" lon="2.81824244"><ele>732</ele><time>2006-09-16T14:20:37Z</time></trkpt>
<trkpt lat="45.78906968" lon="2.81826021"><ele>732</ele><time>2006-09-16T14:20:38Z</time></trkpt>
<trkpt lat="45.78932751" lon="2.81850647"><ele>733</ele><time>2006-09-16T14:20:51Z</time></trkpt>
<trkpt lat="45.78955139" lon="2.81873941"><ele>734</ele><time>2006-09-16T14:21:02Z</time></trkpt>
<trkpt lat="45.78969070" lon="2.81894426"><ele>736</ele><time>2006-09-16T14:21:11Z</time></trkpt>
<trkpt lat="45.78970696" lon="2.81896655"><ele>736</ele><time>2006-09-16T14:21:12Z</time></trkpt>
<trkpt lat="45.78988851" lon="2.81933033"><ele>737</ele><time>2006-09-16T14:21:26Z</time></trkpt>
<trkpt lat="45.79005556" lon="2.81974582"><ele>741</ele><time>2006-09-16T14:21:42Z</time></trkpt>
<trkpt lat="45.79004576" lon="2.81980215"><ele>742</ele><time>2006-09-16T14:21:44Z</time></trkpt>
<trkpt lat="45.78989983" lon="2.82006945"><ele>745</ele><time>2006-09-16T14:21:55Z</time></trkpt>
<trkpt lat="45.78964116" lon="2.82035963"><ele>750</ele><time>2006-09-16T14:22:10Z</time></trkpt>
<trkpt lat="45.78934872" lon="2.82085734"><ele>748</ele><time>2006-09-16T14:22:25Z</time></trkpt>
<trkpt lat="45.78911654" lon="2.82166896"><ele>744</ele><time>2006-09-16T14:22:41Z</time></trkpt>
<trkpt lat="45.78872535" lon="2.82209208"><ele>745</ele><time>2006-09-16T14:22:56Z</time></trkpt>
<trkpt lat="45.78863106" lon="2.82226693"><ele>744</ele><time>2006-09-16T14:23:01Z</time></trkpt>
<trkpt lat="45.78858236" lon="2.82224279"><ele>745</ele><time>2006-09-16T14:23:04Z</time></trkpt>
<trkpt lat="45.78855135" lon="2.82209988"><ele>747</ele><time>2006-09-16T14:23:08Z</time></trkpt>
<trkpt lat="45.78841212" lon="2.82160887"><ele>751</ele><time>2006-09-16T14:23:20Z</time></trkpt>
<trkpt lat="45.78805883" lon="2.82112917"><ele>754</ele><time>2006-09-16T14:23:38Z</time></trkpt>
<trkpt lat="45.78759740" lon="2.82107720"><ele>757</ele><time>2006-09-16T14:23:54Z</time></trkpt>
<trkpt lat="45.78738936" lon="2.82070085"><ele>757</ele><time>2006-09-16T14:24:04Z</time></trkpt>
<trkpt lat="45.78706565" lon="2.82018377"><ele>756</ele><time>2006-09-16T14:24:18Z</time></trkpt>
<trkpt lat="45.78665553" lon="2.81975789"><ele>759</ele><time>2006-09-16T14:24:32Z</time></trkpt>
<trkpt lat="45.78633266" lon="2.81918826"><ele>763</ele><time>2006-09-16T14:24:47Z</time></trkpt>
<trkpt lat="45.78590157" lon="2.81850203"><ele>765</ele><time>2006-09-16T14:25:05Z</time></trkpt>
<trkpt lat="45.78543596" lon="2.81777649"><ele>765</ele><time>2006-09-16T14:25:23Z</time></trkpt>
<trkpt lat="45.78502391" lon="2.81728162"><ele>766</ele><time>2006-09-16T14:25:39Z</time></trkpt>
<trkpt lat="45.78449266" lon="2.81672574"><ele>768</ele><time>2006-09-16T14:25:57Z</time></trkpt>
<trkpt lat="45.78407222" lon="2.81595787"><ele>770</ele><time>2006-09-16T14:26:16Z</time></trkpt>
<trkpt lat="45.78355799" lon="2.81511893"><ele>773</ele><time>2006-09-16T14:26:37Z</time></trkpt>
<trkpt lat="45.78306589" lon="2.81442222"><ele>774</ele><time>2006-09-16T14:26:56Z</time></trkpt>
<trkpt lat="45.78266339" lon="2.81384949"><ele>776</ele><time>2006-09-16T14:27:14Z</time></trkpt>
<trkpt lat="45.78225997" lon="2.81299193"><ele>779</ele><time>2006-09-16T14:27:38Z</time></trkpt>
<trkpt lat="45.78210516" lon="2.81249070"><ele>782</ele><time>2006-09-16T14:27:50Z</time></trkpt>
<trkpt lat="45.78211488" lon="2.81243940"><ele>782</ele><time>2006-09-16T14:27:52Z</time></trkpt>
<trkpt lat="45.78201623" lon="2.81208468"><ele>783</ele><time>2006-09-16T14:28:02Z</time></trkpt>
<trkpt lat="45.78201925" lon="2.81196943"><ele>784</ele><time>2006-09-16T14:28:05Z</time></trkpt>
<trkpt lat="45.78191313" lon="2.81171001"><ele>784</ele><time>2006-09-16T14:28:12Z</time></trkpt>
<trkpt lat="45.78165958" lon="2.81110550"><ele>784</ele><time>2006-09-16T14:28:29Z</time></trkpt>
<trkpt lat="45.78151599" lon="2.81067350"><ele>784</ele><time>2006-09-16T14:28:44Z</time></trkpt>
<trkpt lat="45.78130536" lon="2.80997638"><ele>788</ele><time>2006-09-16T14:29:07Z</time></trkpt>
<trkpt lat="45.78126655" lon="2.80976599"><ele>790</ele><time>2006-09-16T14:29:14Z</time></trkpt>
<trkpt lat="45.78118005" lon="2.80926274"><ele>794</ele><time>2006-09-16T14:29:30Z</time></trkpt>
<trkpt lat="45.78106597" lon="2.80885429"><ele>797</ele><time>2006-09-16T14:29:45Z</time></trkpt>
<trkpt lat="45.78106505" lon="2.80830796"><ele>801</ele><time>2006-09-16T14:30:03Z</time></trkpt>
<trkpt lat="45.78104954" lon="2.80766481"><ele>806</ele><time>2006-09-16T14:30:22Z</time></trkpt>
<trkpt lat="45.78098324" lon="2.80728000"><ele>808</ele><time>2006-09-16T14:30:36Z</time></trkpt>
<trkpt lat="45.78085206" lon="2.80701874"><ele>810</ele><time>2006-09-16T14:30:47Z</time></trkpt>
<trkpt lat="45.78059088" lon="2.80669008"><ele>812</ele><time>2006-09-16T14:31:04Z</time></trkpt>
<trkpt lat="45.78024178" lon="2.80641910"><ele>816</ele><time>2006-09-16T14:31:24Z</time></trkpt>
<trkpt lat="45.78007523" lon="2.80626772"><ele>819</ele><time>2006-09-16T14:31:35Z</time></trkpt>
<trkpt lat="45.77985135" lon="2.80608198"><ele>823</ele><time>2006-09-16T14:31:50Z</time></trkpt>
<trkpt lat="45.77949830" lon="2.80583555"><ele>828</ele><time>2006-09-16T14:32:10Z</time></trkpt>
<trkpt lat="45.77914459" lon="2.80556674"><ele>832</ele><time>2006-09-16T14:32:29Z</time></trkpt>
<trkpt lat="45.77873513" lon="2.80523373"><ele>836</ele><time>2006-09-16T14:32:50Z</time></trkpt>
<trkpt lat="45.77851670" lon="2.80492008"><ele>838</ele><time>2006-09-16T14:33:04Z</time></trkpt>
<trkpt lat="45.77836851" lon="2.80464549"><ele>839</ele><time>2006-09-16T14:33:15Z</time></trkpt>
<trkpt lat="45.77823004" lon="2.80431901"><ele>840</ele><time>2006-09-16T14:33:29Z</time></trkpt>
<trkpt lat="45.77814337" lon="2.80411793"><ele>842</ele><time>2006-09-16T14:33:38Z</time></trkpt>
<trkpt lat="45.77798101" lon="2.80375960"><ele>846</ele><time>2006-09-16T14:33:54Z</time></trkpt>
<trkpt lat="45.77786165" lon="2.80345232"><ele>850</ele><time>2006-09-16T14:34:07Z</time></trkpt>
<trkpt lat="45.77785361" lon="2.80342810"><ele>850</ele><time>2006-09-16T14:34:08Z</time></trkpt>
<trkpt lat="45.77777255" lon="2.80320430"><ele>853</ele><time>2006-09-16T14:34:17Z</time></trkpt>
<trkpt lat="45.77759117" lon="2.80260382"><ele>858</ele><time>2006-09-16T14:34:38Z</time></trkpt>
<trkpt lat="45.77744574" lon="2.80216285"><ele>860</ele><time>2006-09-16T14:34:52Z</time></trkpt>
<trkpt lat="45.77726746" lon="2.80155659"><ele>862</ele><time>2006-09-16T14:35:09Z</time></trkpt>
<trkpt lat="45.77714399" lon="2.80103389"><ele>862</ele><time>2006-09-16T14:35:23Z</time></trkpt>
<trkpt lat="45.77709077" lon="2.80066425"><ele>863</ele><time>2006-09-16T14:35:33Z</time></trkpt>
<trkpt lat="45.77703813" lon="2.79980125"><ele>863</ele><time>2006-09-16T14:35:54Z</time></trkpt>
<trkpt lat="45.77712799" lon="2.79902115"><ele>867</ele><time>2006-09-16T14:36:13Z</time></trkpt>
<trkpt lat="45.77738338" lon="2.79843886"><ele>871</ele><time>2006-09-16T14:36:29Z</time></trkpt>
<trkpt lat="45.77766250" lon="2.79769965"><ele>873</ele><time>2006-09-16T14:36:49Z</time></trkpt>
<trkpt lat="45.77766585" lon="2.79762229"><ele>873</ele><time>2006-09-16T14:36:51Z</time></trkpt>
<trkpt lat="45.77767163" lon="2.79738584"><ele>872</ele><time>2006-09-16T14:36:56Z</time></trkpt>
<trkpt lat="45.77744843" lon="2.79598832"><ele>870</ele><time>2006-09-16T14:37:15Z</time></trkpt>
<trkpt lat="45.77725011" lon="2.79469969"><ele>869</ele><time>2006-09-16T14:37:33Z</time></trkpt>
<trkpt lat="45.77724315" lon="2.79397926"><ele>869</ele><time>2006-09-16T14:37:47Z</time></trkpt>
<trkpt lat="45.77753903" lon="2.79339136"><ele>869</ele><time>2006-09-16T14:38:08Z</time></trkpt>
<trkpt lat="45.77764481" lon="2.79301778"><ele>870</ele><time>2006-09-16T14:38:20Z</time></trkpt>
<trkpt lat="45.77764842" lon="2.79268451"><ele>872</ele><time>2006-09-16T14:38:34Z</time></trkpt>
<trkpt lat="45.77764574" lon="2.79241889"><ele>873</ele><time>2006-09-16T14:38:44Z</time></trkpt>
<trkpt lat="45.77767080" lon="2.79206978"><ele>874</ele><time>2006-09-16T14:38:56Z</time></trkpt>
<trkpt lat="45.77767247" lon="2.79203994"><ele>874</ele><time>2006-09-16T14:38:57Z</time></trkpt>
<trkpt lat="45.77770743" lon="2.79142932"><ele>877</ele><time>2006-09-16T14:39:18Z</time></trkpt>
<trkpt lat="45.77771321" lon="2.79139562"><ele>877</ele><time>2006-09-16T14:39:32Z</time></trkpt>
<trkpt lat="45.77774271" lon="2.79140107"><ele>877</ele><time>2006-09-16T14:39:51Z</time></trkpt>
<trkpt lat="45.77774405" lon="2.79138045"><ele>877</ele><time>2006-09-16T14:40:22Z</time></trkpt>
<trkpt lat="45.77773626" lon="2.79131902"><ele>878</ele><time>2006-09-16T14:40:33Z</time></trkpt>
<trkpt lat="45.77773509" lon="2.79115490"><ele>878</ele><time>2006-09-16T14:40:42Z</time></trkpt>
<trkpt lat="45.77776182" lon="2.79077620"><ele>879</ele><time>2006-09-16T14:40:59Z</time></trkpt>
<trkpt lat="45.77775973" lon="2.79075391"><ele>879</ele><time>2006-09-16T14:41:00Z</time></trkpt>
<trkpt lat="45.77777029" lon="2.79063949"><ele>880</ele><time>2006-09-16T14:41:06Z</time></trkpt>
<trkpt lat="45.77780625" lon="2.79024429"><ele>881</ele><time>2006-09-16T14:41:26Z</time></trkpt>
<trkpt lat="45.77782561" lon="2.79002787"><ele>882</ele><time>2006-09-16T14:41:37Z</time></trkpt>
<trkpt lat="45.77783148" lon="2.78979535"><ele>883</ele><time>2006-09-16T14:41:46Z</time></trkpt>
<trkpt lat="45.77790004" lon="2.78916813"><ele>885</ele><time>2006-09-16T14:42:12Z</time></trkpt>
<trkpt lat="45.77798143" lon="2.78852206"><ele>889</ele><time>2006-09-16T14:42:36Z</time></trkpt>
<trkpt lat="45.77797397" lon="2.78778529"><ele>891</ele><time>2006-09-16T14:42:55Z</time></trkpt>
<trkpt lat="45.77797179" lon="2.78773399"><ele>891</ele><time>2006-09-16T14:42:56Z</time></trkpt>
<trkpt lat="45.77797020" lon="2.78767649"><ele>891</ele><time>2006-09-16T14:42:57Z</time></trkpt>
<trkpt lat="45.77800549" lon="2.78692455"><ele>890</ele><time>2006-09-16T14:43:06Z</time></trkpt>
<trkpt lat="45.77801881" lon="2.78666597"><ele>889</ele><time>2006-09-16T14:43:09Z</time></trkpt>
<trkpt lat="45.77803432" lon="2.78649364"><ele>889</ele><time>2006-09-16T14:43:11Z</time></trkpt>
<trkpt lat="45.77810498" lon="2.78537214"><ele>885</ele><time>2006-09-16T14:43:25Z</time></trkpt>
<trkpt lat="45.77812543" lon="2.78460880"><ele>885</ele><time>2006-09-16T14:43:36Z</time></trkpt>
<trkpt lat="45.77813591" lon="2.78419163"><ele>888</ele><time>2006-09-16T14:43:43Z</time></trkpt>
<trkpt lat="45.77816047" lon="2.78323660"><ele>894</ele><time>2006-09-16T14:44:01Z</time></trkpt>
<trkpt lat="45.77827781" lon="2.78218836"><ele>898</ele><time>2006-09-16T14:44:21Z</time></trkpt>
<trkpt lat="45.77835308" lon="2.78164890"><ele>896</ele><time>2006-09-16T14:44:29Z</time></trkpt>
<trkpt lat="45.77838695" lon="2.78136970"><ele>894</ele><time>2006-09-16T14:44:32Z</time></trkpt>
<trkpt lat="45.77839944" lon="2.78126827"><ele>894</ele><time>2006-09-16T14:44:33Z</time></trkpt>
<trkpt lat="45.77845174" lon="2.78085102"><ele>892</ele><time>2006-09-16T14:44:37Z</time></trkpt>
<trkpt lat="45.77865056" lon="2.77907104"><ele>883</ele><time>2006-09-16T14:44:53Z</time></trkpt>
<trkpt lat="45.77872675" lon="2.77809706"><ele>882</ele><time>2006-09-16T14:45:03Z</time></trkpt>
<trkpt lat="45.77846423" lon="2.77734529"><ele>882</ele><time>2006-09-16T14:45:12Z</time></trkpt>
<trkpt lat="45.77796467" lon="2.77607376"><ele>884</ele><time>2006-09-16T14:45:28Z</time></trkpt>
<trkpt lat="45.77787783" lon="2.77568433"><ele>885</ele><time>2006-09-16T14:45:33Z</time></trkpt>
<trkpt lat="45.77771832" lon="2.77482729"><ele>886</ele><time>2006-09-16T14:45:45Z</time></trkpt>
<trkpt lat="45.77760601" lon="2.77356614"><ele>886</ele><time>2006-09-16T14:46:01Z</time></trkpt>
<trkpt lat="45.77757466" lon="2.77292652"><ele>886</ele><time>2006-09-16T14:46:09Z</time></trkpt>
<trkpt lat="45.77742454" lon="2.77114713"><ele>881</ele><time>2006-09-16T14:46:26Z</time></trkpt>
<trkpt lat="45.77738372" lon="2.77070892"><ele>879</ele><time>2006-09-16T14:46:30Z</time></trkpt>
<trkpt lat="45.77717065" lon="2.76990216"><ele>879</ele><time>2006-09-16T14:46:39Z</time></trkpt>
<trkpt lat="45.77679539" lon="2.76971751"><ele>877</ele><time>2006-09-16T14:46:46Z</time></trkpt>
<trkpt lat="45.77665449" lon="2.76964341"><ele>877</ele><time>2006-09-16T14:46:48Z</time></trkpt>
<trkpt lat="45.77574422" lon="2.76874554"><ele>874</ele><time>2006-09-16T14:47:03Z</time></trkpt>
<trkpt lat="45.77565160" lon="2.76862032"><ele>873</ele><time>2006-09-16T14:47:05Z</time></trkpt>
<trkpt lat="45.77543937" lon="2.76872518"><ele>872</ele><time>2006-09-16T14:47:10Z</time></trkpt>
<trkpt lat="45.77519436" lon="2.76939757"><ele>870</ele><time>2006-09-16T14:47:17Z</time></trkpt>
<trkpt lat="45.77505330" lon="2.76973050"><ele>868</ele><time>2006-09-16T14:47:20Z</time></trkpt>
<trkpt lat="45.77470059" lon="2.77064606"><ele>864</ele><time>2006-09-16T14:47:28Z</time></trkpt>
<trkpt lat="45.77465348" lon="2.77076189"><ele>864</ele><time>2006-09-16T14:47:29Z</time></trkpt>
<trkpt lat="45.77455818" lon="2.77100111"><ele>863</ele><time>2006-09-16T14:47:31Z</time></trkpt>
<trkpt lat="45.77436548" lon="2.77148307"><ele>859</ele><time>2006-09-16T14:47:35Z</time></trkpt>
<trkpt lat="45.77424838" lon="2.77171039"><ele>858</ele><time>2006-09-16T14:47:37Z</time></trkpt>
<trkpt lat="45.77367950" lon="2.77275561"><ele>853</ele><time>2006-09-16T14:47:47Z</time></trkpt>
<trkpt lat="45.77339963" lon="2.77308511"><ele>852</ele><time>2006-09-16T14:47:51Z</time></trkpt>
<trkpt lat="45.77298548" lon="2.77337906"><ele>851</ele><time>2006-09-16T14:47:56Z</time></trkpt>
<trkpt lat="45.77260695" lon="2.77357679"><ele>851</ele><time>2006-09-16T14:48:00Z</time></trkpt>
<trkpt lat="45.77252272" lon="2.77361317"><ele>851</ele><time>2006-09-16T14:48:01Z</time></trkpt>
<trkpt lat="45.77228911" lon="2.77352407"><ele>851</ele><time>2006-09-16T14:48:06Z</time></trkpt>
<trkpt lat="45.77201821" lon="2.77234524"><ele>849</ele><time>2006-09-16T14:48:23Z</time></trkpt>
<trkpt lat="45.77170582" lon="2.77103120"><ele>850</ele><time>2006-09-16T14:48:45Z</time></trkpt>
<trkpt lat="45.77156827" lon="2.77052192"><ele>850</ele><time>2006-09-16T14:48:55Z</time></trkpt>
<trkpt lat="45.77154555" lon="2.77030768"><ele>849</ele><time>2006-09-16T14:48:58Z</time></trkpt>
<trkpt lat="45.77155234" lon="2.77021531"><ele>849</ele><time>2006-09-16T14:48:59Z</time></trkpt>
<trkpt lat="45.77161613" lon="2.76932985"><ele>850</ele><time>2006-09-16T14:49:10Z</time></trkpt>
<trkpt lat="45.77162711" lon="2.76919993"><ele>850</ele><time>2006-09-16T14:49:13Z</time></trkpt>
<trkpt lat="45.77164345" lon="2.76863842"><ele>852</ele><time>2006-09-16T14:49:26Z</time></trkpt>
<trkpt lat="45.77169316" lon="2.76791934"><ele>853</ele><time>2006-09-16T14:49:41Z</time></trkpt>
<trkpt lat="45.77171177" lon="2.76786813"><ele>853</ele><time>2006-09-16T14:49:42Z</time></trkpt>
<trkpt lat="45.77179173" lon="2.76687914"><ele>854</ele><time>2006-09-16T14:50:00Z</time></trkpt>
<trkpt lat="45.77194445" lon="2.76617758"><ele>854</ele><time>2006-09-16T14:50:12Z</time></trkpt>
<trkpt lat="45.77195459" lon="2.76522079"><ele>852</ele><time>2006-09-16T14:50:23Z</time></trkpt>
<trkpt lat="45.77198870" lon="2.76493329"><ele>851</ele><time>2006-09-16T14:50:27Z</time></trkpt>
<trkpt lat="45.77189743" lon="2.76480295"><ele>851</ele><time>2006-09-16T14:50:32Z</time></trkpt>
<trkpt lat="45.77172535" lon="2.76487134"><ele>850</ele><time>2006-09-16T14:50:36Z</time></trkpt>
<trkpt lat="45.77149845" lon="2.76499171"><ele>849</ele><time>2006-09-16T14:50:41Z</time></trkpt>
<trkpt lat="45.77132293" lon="2.76495734"><ele>850</ele><time>2006-09-16T14:50:45Z</time></trkpt>
<trkpt lat="45.77079889" lon="2.76472441"><ele>854</ele><time>2006-09-16T14:50:59Z</time></trkpt>
<trkpt lat="45.77013580" lon="2.76440707"><ele>859</ele><time>2006-09-16T14:51:18Z</time></trkpt>
<trkpt lat="45.76969860" lon="2.76394120"><ele>862</ele><time>2006-09-16T14:51:34Z</time></trkpt>
<trkpt lat="45.76945972" lon="2.76389284"><ele>862</ele><time>2006-09-16T14:51:41Z</time></trkpt>
<trkpt lat="45.76932066" lon="2.76400290"><ele>862</ele><time>2006-09-16T14:51:45Z</time></trkpt>
<trkpt lat="45.76917632" lon="2.76395026"><ele>862</ele><time>2006-09-16T14:51:50Z</time></trkpt>
<trkpt lat="45.76880090" lon="2.76256179"><ele>861</ele><time>2006-09-16T14:52:09Z</time></trkpt>
<trkpt lat="45.76870551" lon="2.76217480"><ele>861</ele><time>2006-09-16T14:52:14Z</time></trkpt>
<trkpt lat="45.76852011" lon="2.76157692"><ele>859</ele><time>2006-09-16T14:52:21Z</time></trkpt>
<trkpt lat="45.76847962" lon="2.76140962"><ele>859</ele><time>2006-09-16T14:52:23Z</time></trkpt>
<trkpt lat="45.76840008" lon="2.76116202"><ele>858</ele><time>2006-09-16T14:52:26Z</time></trkpt>
<trkpt lat="45.76832246" lon="2.76090871"><ele>857</ele><time>2006-09-16T14:52:29Z</time></trkpt>
<trkpt lat="45.76815264" lon="2.76062038"><ele>856</ele><time>2006-09-16T14:52:33Z</time></trkpt>
<trkpt lat="45.76779314" lon="2.76028502"><ele>855</ele><time>2006-09-16T14:52:39Z</time></trkpt>
<trkpt lat="45.76741068" lon="2.75993859"><ele>853</ele><time>2006-09-16T14:52:45Z</time></trkpt>
<trkpt lat="45.76724237" lon="2.75971849"><ele>853</ele><time>2006-09-16T14:52:48Z</time></trkpt>
<trkpt lat="45.76709191" lon="2.75915170"><ele>852</ele><time>2006-09-16T14:52:54Z</time></trkpt>
<trkpt lat="45.76709644" lon="2.75834100"><ele>852</ele><time>2006-09-16T14:53:03Z</time></trkpt>
<trkpt lat="45.76694205" lon="2.75800237"><ele>852</ele><time>2006-09-16T14:53:08Z</time></trkpt>
<trkpt lat="45.76678269" lon="2.75780322"><ele>852</ele><time>2006-09-16T14:53:15Z</time></trkpt>
<trkpt lat="45.76667083" lon="2.75764168"><ele>852</ele><time>2006-09-16T15:48:17Z</time></trkpt>
<trkpt lat="45.76653637" lon="2.75751210"><ele>853</ele><time>2006-09-16T15:48:31Z</time></trkpt>
<trkpt lat="45.76644676" lon="2.75741501"><ele>853</ele><time>2006-09-16T15:48:52Z</time></trkpt>
<trkpt lat="45.76623780" lon="2.75723753"><ele>853</ele><time>2006-09-16T15:49:10Z</time></trkpt>
<trkpt lat="45.76596840" lon="2.75695656"><ele>854</ele><time>2006-09-16T15:49:20Z</time></trkpt>
<trkpt lat="45.76585072" lon="2.75707860"><ele>854</ele><time>2006-09-16T15:49:25Z</time></trkpt>
<trkpt lat="45.76580714" lon="2.75716737"><ele>854</ele><time>2006-09-16T15:49:27Z</time></trkpt>
<trkpt lat="45.76578836" lon="2.75738664"><ele>854</ele><time>2006-09-16T15:49:31Z</time></trkpt>
<trkpt lat="45.76582700" lon="2.75846497"><ele>852</ele><time>2006-09-16T15:49:52Z</time></trkpt>
<trkpt lat="45.76566825" lon="2.75929939"><ele>851</ele><time>2006-09-16T15:50:08Z</time></trkpt>
<trkpt lat="45.76556154" lon="2.75993097"><ele>852</ele><time>2006-09-16T15:50:19Z</time></trkpt>
<trkpt lat="45.76545493" lon="2.76083814"><ele>851</ele><time>2006-09-16T15:50:33Z</time></trkpt>
<trkpt lat="45.76551192" lon="2.76165839"><ele>852</ele><time>2006-09-16T15:50:45Z</time></trkpt>
<trkpt lat="45.76583681" lon="2.76282272"><ele>853</ele><time>2006-09-16T15:51:03Z</time></trkpt>
<trkpt lat="45.76634341" lon="2.76402938"><ele>852</ele><time>2006-09-16T15:51:25Z</time></trkpt>
<trkpt lat="45.76720180" lon="2.76519137"><ele>850</ele><time>2006-09-16T15:51:46Z</time></trkpt>
<trkpt lat="45.76752928" lon="2.76558800"><ele>850</ele><time>2006-09-16T15:51:54Z</time></trkpt>
<trkpt lat="45.76750053" lon="2.76578313"><ele>851</ele><time>2006-09-16T15:51:58Z</time></trkpt>
<trkpt lat="45.76721706" lon="2.76607959"><ele>854</ele><time>2006-09-16T15:52:09Z</time></trkpt>
<trkpt lat="45.76699275" lon="2.76632091"><ele>857</ele><time>2006-09-16T15:52:22Z</time></trkpt>
<trkpt lat="45.76677944" lon="2.76655334"><ele>860</ele><time>2006-09-16T15:52:37Z</time></trkpt>
<trkpt lat="45.76651222" lon="2.76682793"><ele>865</ele><time>2006-09-16T15:52:55Z</time></trkpt>
<trkpt lat="45.76632916" lon="2.76697679"><ele>868</ele><time>2006-09-16T15:53:09Z</time></trkpt>
<trkpt lat="45.76615540" lon="2.76703647"><ele>871</ele><time>2006-09-16T15:53:21Z</time></trkpt>
<trkpt lat="45.76601476" lon="2.76712540"><ele>873</ele><time>2006-09-16T15:53:31Z</time></trkpt>
<trkpt lat="45.76587419" lon="2.76736638"><ele>876</ele><time>2006-09-16T15:53:48Z</time></trkpt>
<trkpt lat="45.76571410" lon="2.76756034"><ele>879</ele><time>2006-09-16T15:54:05Z</time></trkpt>
<trkpt lat="45.76555467" lon="2.76760267"><ele>881</ele><time>2006-09-16T15:54:20Z</time></trkpt>
<trkpt lat="45.76554101" lon="2.76760351"><ele>881</ele><time>2006-09-16T15:54:21Z</time></trkpt>
<trkpt lat="45.76527790" lon="2.76761080"><ele>883</ele><time>2006-09-16T15:54:35Z</time></trkpt>
<trkpt lat="45.76490776" lon="2.76789025"><ele>886</ele><time>2006-09-16T15:54:56Z</time></trkpt>
<trkpt lat="45.76453929" lon="2.76826945"><ele>888</ele><time>2006-09-16T15:55:17Z</time></trkpt>
<trkpt lat="45.76424358" lon="2.76875250"><ele>888</ele><time>2006-09-16T15:55:35Z</time></trkpt>
<trkpt lat="45.76402741" lon="2.76943060"><ele>888</ele><time>2006-09-16T15:55:52Z</time></trkpt>
<trkpt lat="45.76378173" lon="2.77049602"><ele>890</ele><time>2006-09-16T15:56:11Z</time></trkpt>
<trkpt lat="45.76372029" lon="2.77143722"><ele>892</ele><time>2006-09-16T15:56:28Z</time></trkpt>
<trkpt lat="45.76378919" lon="2.77278101"><ele>895</ele><time>2006-09-16T15:56:52Z</time></trkpt>
<trkpt lat="45.76369397" lon="2.77352449"><ele>897</ele><time>2006-09-16T15:57:06Z</time></trkpt>
<trkpt lat="45.76352491" lon="2.77422655"><ele>899</ele><time>2006-09-16T15:57:19Z</time></trkpt>
<trkpt lat="45.76333271" lon="2.77502820"><ele>901</ele><time>2006-09-16T15:57:33Z</time></trkpt>
<trkpt lat="45.76329692" lon="2.77519927"><ele>901</ele><time>2006-09-16T15:57:36Z</time></trkpt>
<trkpt lat="45.76311277" lon="2.77648531"><ele>901</ele><time>2006-09-16T15:57:57Z</time></trkpt>
<trkpt lat="45.76309282" lon="2.77666929"><ele>901</ele><time>2006-09-16T15:58:00Z</time></trkpt>
<trkpt lat="45.76283466" lon="2.77786061"><ele>900</ele><time>2006-09-16T15:58:21Z</time></trkpt>
<trkpt lat="45.76265889" lon="2.77842212"><ele>900</ele><time>2006-09-16T15:58:31Z</time></trkpt>
<trkpt lat="45.76257206" lon="2.77857399"><ele>900</ele><time>2006-09-16T15:58:34Z</time></trkpt>
<trkpt lat="45.76203494" lon="2.77942526"><ele>901</ele><time>2006-09-16T15:58:51Z</time></trkpt>
<trkpt lat="45.76193461" lon="2.77981058"><ele>902</ele><time>2006-09-16T15:58:57Z</time></trkpt>
<trkpt lat="45.76193344" lon="2.78011903"><ele>903</ele><time>2006-09-16T15:59:02Z</time></trkpt>
<trkpt lat="45.76200519" lon="2.78078590"><ele>904</ele><time>2006-09-16T15:59:15Z</time></trkpt>
<trkpt lat="45.76198038" lon="2.78133818"><ele>905</ele><time>2006-09-16T15:59:27Z</time></trkpt>
<trkpt lat="45.76196931" lon="2.78136676"><ele>905</ele><time>2006-09-16T15:59:28Z</time></trkpt>
<trkpt lat="45.76190469" lon="2.78135813"><ele>906</ele><time>2006-09-16T15:59:32Z</time></trkpt>
<trkpt lat="45.76172020" lon="2.78121086"><ele>909</ele><time>2006-09-16T15:59:43Z</time></trkpt>
<trkpt lat="45.76158509" lon="2.78111606"><ele>912</ele><time>2006-09-16T15:59:51Z</time></trkpt>
<trkpt lat="45.76139867" lon="2.78097541"><ele>915</ele><time>2006-09-16T16:00:02Z</time></trkpt>
<trkpt lat="45.76107346" lon="2.78082596"><ele>919</ele><time>2006-09-16T16:00:20Z</time></trkpt>
<trkpt lat="45.76067800" lon="2.78084314"><ele>923</ele><time>2006-09-16T16:00:40Z</time></trkpt>
<trkpt lat="45.76025714" lon="2.78085982"><ele>926</ele><time>2006-09-16T16:00:59Z</time></trkpt>
<trkpt lat="45.75990938" lon="2.78088799"><ele>928</ele><time>2006-09-16T16:01:15Z</time></trkpt>
<trkpt lat="45.75939171" lon="2.78081582"><ele>930</ele><time>2006-09-16T16:01:36Z</time></trkpt>
<trkpt lat="45.75902039" lon="2.77992801"><ele>928</ele><time>2006-09-16T16:01:53Z</time></trkpt>
<trkpt lat="45.75880263" lon="2.77940858"><ele>929</ele><time>2006-09-16T16:02:03Z</time></trkpt>
<trkpt lat="45.75867103" lon="2.77949165"><ele>930</ele><time>2006-09-16T16:02:09Z</time></trkpt>
<trkpt lat="45.75843165" lon="2.78025423"><ele>932</ele><time>2006-09-16T16:02:27Z</time></trkpt>
<trkpt lat="45.75819201" lon="2.78097466"><ele>933</ele><time>2006-09-16T16:02:42Z</time></trkpt>
<trkpt lat="45.75786662" lon="2.78141337"><ele>934</ele><time>2006-09-16T16:02:52Z</time></trkpt>
<trkpt lat="45.75736086" lon="2.78178468"><ele>932</ele><time>2006-09-16T16:03:04Z</time></trkpt>
<trkpt lat="45.75693288" lon="2.78205467"><ele>929</ele><time>2006-09-16T16:03:12Z</time></trkpt>
<trkpt lat="45.75658930" lon="2.78227611"><ele>926</ele><time>2006-09-16T16:03:18Z</time></trkpt>
<trkpt lat="45.75590358" lon="2.78245431"><ele>923</ele><time>2006-09-16T16:03:29Z</time></trkpt>
<trkpt lat="45.75573158" lon="2.78250863"><ele>922</ele><time>2006-09-16T16:03:31Z</time></trkpt>
<trkpt lat="45.75555079" lon="2.78260502"><ele>921</ele><time>2006-09-16T16:03:33Z</time></trkpt>
<trkpt lat="45.75523445" lon="2.78296175"><ele>916</ele><time>2006-09-16T16:03:37Z</time></trkpt>
<trkpt lat="45.75515801" lon="2.78307281"><ele>915</ele><time>2006-09-16T16:03:38Z</time></trkpt>
<trkpt lat="45.75479834" lon="2.78362183"><ele>911</ele><time>2006-09-16T16:03:43Z</time></trkpt>
<trkpt lat="45.75436642" lon="2.78415291"><ele>907</ele><time>2006-09-16T16:03:49Z</time></trkpt>
<trkpt lat="45.75428789" lon="2.78426246"><ele>907</ele><time>2006-09-16T16:03:50Z</time></trkpt>
<trkpt lat="45.75385303" lon="2.78495606"><ele>905</ele><time>2006-09-16T16:03:57Z</time></trkpt>
<trkpt lat="45.75305055" lon="2.78609918"><ele>902</ele><time>2006-09-16T16:04:11Z</time></trkpt>
<trkpt lat="45.75238612" lon="2.78674803"><ele>904</ele><time>2006-09-16T16:04:22Z</time></trkpt>
<trkpt lat="45.75207959" lon="2.78721473"><ele>906</ele><time>2006-09-16T16:04:29Z</time></trkpt>
<trkpt lat="45.75196300" lon="2.78767046"><ele>906</ele><time>2006-09-16T16:04:35Z</time></trkpt>
<trkpt lat="45.75194615" lon="2.78790758"><ele>905</ele><time>2006-09-16T16:04:38Z</time></trkpt>
<trkpt lat="45.75189670" lon="2.78931356"><ele>903</ele><time>2006-09-16T16:04:56Z</time></trkpt>
<trkpt lat="45.75188111" lon="2.78955706"><ele>901</ele><time>2006-09-16T16:04:59Z</time></trkpt>
<trkpt lat="45.75170425" lon="2.78974598"><ele>901</ele><time>2006-09-16T16:05:04Z</time></trkpt>
<trkpt lat="45.75146914" lon="2.78970575"><ele>903</ele><time>2006-09-16T16:05:09Z</time></trkpt>
<trkpt lat="45.75134341" lon="2.78971816"><ele>903</ele><time>2006-09-16T16:05:11Z</time></trkpt>
<trkpt lat="45.75111416" lon="2.78974917"><ele>902</ele><time>2006-09-16T16:05:14Z</time></trkpt>
<trkpt lat="45.75094552" lon="2.78977926"><ele>901</ele><time>2006-09-16T16:05:16Z</time></trkpt>
<trkpt lat="45.75085809" lon="2.78978990"><ele>900</ele><time>2006-09-16T16:05:17Z</time></trkpt>
<trkpt lat="45.75058241" lon="2.78973852"><ele>897</ele><time>2006-09-16T16:05:20Z</time></trkpt>
<trkpt lat="45.75032232" lon="2.78955169"><ele>896</ele><time>2006-09-16T16:05:23Z</time></trkpt>
<trkpt lat="45.74991815" lon="2.78902992"><ele>894</ele><time>2006-09-16T16:05:28Z</time></trkpt>
<trkpt lat="45.74964004" lon="2.78874074"><ele>891</ele><time>2006-09-16T16:05:31Z</time></trkpt>
<trkpt lat="45.74940140" lon="2.78863815"><ele>887</ele><time>2006-09-16T16:05:33Z</time></trkpt>
<trkpt lat="45.74917015" lon="2.78850823"><ele>884</ele><time>2006-09-16T16:05:35Z</time></trkpt>
<trkpt lat="45.74906395" lon="2.78841728"><ele>883</ele><time>2006-09-16T16:05:36Z</time></trkpt>
<trkpt lat="45.74841812" lon="2.78788478"><ele>879</ele><time>2006-09-16T16:05:42Z</time></trkpt>
<trkpt lat="45.74820170" lon="2.78774547"><ele>878</ele><time>2006-09-16T16:05:44Z</time></trkpt>
<trkpt lat="45.74716159" lon="2.78704056"><ele>872</ele><time>2006-09-16T16:05:55Z</time></trkpt>
<trkpt lat="45.74700233" lon="2.78691013"><ele>872</ele><time>2006-09-16T16:05:57Z</time></trkpt>
<trkpt lat="45.74682799" lon="2.78657016"><ele>874</ele><time>2006-09-16T16:06:04Z</time></trkpt>
<trkpt lat="45.74681165" lon="2.78653001"><ele>875</ele><time>2006-09-16T16:06:05Z</time></trkpt>
<trkpt lat="45.74659439" lon="2.78596088"><ele>879</ele><time>2006-09-16T16:06:21Z</time></trkpt>
<trkpt lat="45.74641937" lon="2.78538429"><ele>884</ele><time>2006-09-16T16:06:43Z</time></trkpt>
<trkpt lat="45.74634880" lon="2.78511414"><ele>886</ele><time>2006-09-16T16:06:55Z</time></trkpt>
<trkpt lat="45.74623187" lon="2.78462799"><ele>890</ele><time>2006-09-16T16:07:11Z</time></trkpt>
<trkpt lat="45.74600388" lon="2.78427034"><ele>892</ele><time>2006-09-16T16:07:26Z</time></trkpt>
<trkpt lat="45.74560868" lon="2.78411611"><ele>892</ele><time>2006-09-16T16:07:45Z</time></trkpt>
<trkpt lat="45.74527382" lon="2.78410086"><ele>891</ele><time>2006-09-16T16:08:01Z</time></trkpt>
<trkpt lat="45.74513686" lon="2.78419632"><ele>889</ele><time>2006-09-16T16:08:07Z</time></trkpt>
<trkpt lat="45.74503460" lon="2.78424703"><ele>887</ele><time>2006-09-16T16:08:10Z</time></trkpt>
<trkpt lat="45.74487140" lon="2.78431275"><ele>886</ele><time>2006-09-16T16:08:14Z</time></trkpt>
<trkpt lat="45.74467225" lon="2.78440554"><ele>883</ele><time>2006-09-16T16:08:18Z</time></trkpt>
<trkpt lat="45.74402424" lon="2.78480376"><ele>876</ele><time>2006-09-16T16:08:32Z</time></trkpt>
<trkpt lat="45.74337632" lon="2.78528228"><ele>874</ele><time>2006-09-16T16:08:47Z</time></trkpt>
<trkpt lat="45.74321874" lon="2.78539385"><ele>874</ele><time>2006-09-16T16:08:50Z</time></trkpt>
<trkpt lat="45.74291842" lon="2.78559937"><ele>872</ele><time>2006-09-16T16:08:55Z</time></trkpt>
<trkpt lat="45.74273150" lon="2.78571001"><ele>871</ele><time>2006-09-16T16:08:58Z</time></trkpt>
<trkpt lat="45.74243604" lon="2.78584965"><ele>870</ele><time>2006-09-16T16:09:05Z</time></trkpt>
<trkpt lat="45.74199264" lon="2.78605996"><ele>868</ele><time>2006-09-16T16:09:13Z</time></trkpt>
<trkpt lat="45.74186532" lon="2.78611712"><ele>867</ele><time>2006-09-16T16:09:15Z</time></trkpt>
<trkpt lat="45.74148461" lon="2.78627453"><ele>865</ele><time>2006-09-16T16:09:20Z</time></trkpt>
<trkpt lat="45.74125696" lon="2.78637738"><ele>864</ele><time>2006-09-16T16:09:23Z</time></trkpt>
<trkpt lat="45.74118622" lon="2.78641267"><ele>863</ele><time>2006-09-16T16:09:24Z</time></trkpt>
<trkpt lat="45.74109376" lon="2.78668114"><ele>861</ele><time>2006-09-16T16:09:29Z</time></trkpt>
<trkpt lat="45.74133575" lon="2.78703838"><ele>858</ele><time>2006-09-16T16:09:34Z</time></trkpt>
<trkpt lat="45.74144966" lon="2.78719545"><ele>856</ele><time>2006-09-16T16:09:36Z</time></trkpt>
<trkpt lat="45.74156533" lon="2.78735714"><ele>855</ele><time>2006-09-16T16:09:38Z</time></trkpt>
<trkpt lat="45.74168217" lon="2.78752922"><ele>854</ele><time>2006-09-16T16:09:40Z</time></trkpt>
<trkpt lat="45.74175292" lon="2.78763115"><ele>853</ele><time>2006-09-16T16:09:41Z</time></trkpt>
<trkpt lat="45.74235030" lon="2.78853388"><ele>848</ele><time>2006-09-16T16:09:50Z</time></trkpt>
<trkpt lat="45.74246060" lon="2.78872021"><ele>848</ele><time>2006-09-16T16:09:52Z</time></trkpt>
<trkpt lat="45.74237645" lon="2.78904727"><ele>847</ele><time>2006-09-16T16:09:58Z</time></trkpt>
<trkpt lat="45.74167069" lon="2.78932094"><ele>845</ele><time>2006-09-16T16:10:09Z</time></trkpt>
<trkpt lat="45.74151428" lon="2.78938732"><ele>844</ele><time>2006-09-16T16:10:11Z</time></trkpt>
<trkpt lat="45.74134279" lon="2.78945781"><ele>842</ele><time>2006-09-16T16:10:13Z</time></trkpt>
<trkpt lat="45.74125310" lon="2.78948916"><ele>841</ele><time>2006-09-16T16:10:14Z</time></trkpt>
<trkpt lat="45.74108857" lon="2.78954985"><ele>839</ele><time>2006-09-16T16:10:16Z</time></trkpt>
<trkpt lat="45.74095806" lon="2.78963668"><ele>836</ele><time>2006-09-16T16:10:18Z</time></trkpt>
<trkpt lat="45.74086284" lon="2.78979653"><ele>834</ele><time>2006-09-16T16:10:20Z</time></trkpt>
<trkpt lat="45.74077743" lon="2.78994857"><ele>832</ele><time>2006-09-16T16:10:22Z</time></trkpt>
<trkpt lat="45.74059311" lon="2.79012585"><ele>828</ele><time>2006-09-16T16:10:26Z</time></trkpt>
<trkpt lat="45.74043947" lon="2.79016122"><ele>826</ele><time>2006-09-16T16:10:29Z</time></trkpt>
<trkpt lat="45.74042975" lon="2.79048753"><ele>823</ele><time>2006-09-16T16:10:35Z</time></trkpt>
<trkpt lat="45.74024392" lon="2.79062935"><ele>820</ele><time>2006-09-16T16:10:38Z</time></trkpt>
<trkpt lat="45.74017486" lon="2.79066162"><ele>819</ele><time>2006-09-16T16:10:39Z</time></trkpt>
<trkpt lat="45.74004427" lon="2.79071904"><ele>817</ele><time>2006-09-16T16:10:41Z</time></trkpt>
<trkpt lat="45.73998417" lon="2.79081644"><ele>816</ele><time>2006-09-16T16:10:43Z</time></trkpt>
<trkpt lat="45.73994150" lon="2.79108642"><ele>813</ele><time>2006-09-16T16:10:49Z</time></trkpt>
<trkpt lat="45.73986397" lon="2.79109698"><ele>812</ele><time>2006-09-16T16:10:51Z</time></trkpt>
<trkpt lat="45.73958167" lon="2.79108575"><ele>810</ele><time>2006-09-16T16:10:57Z</time></trkpt>
<trkpt lat="45.73940112" lon="2.79123184"><ele>808</ele><time>2006-09-16T16:11:02Z</time></trkpt>
<trkpt lat="45.73930590" lon="2.79146947"><ele>805</ele><time>2006-09-16T16:11:06Z</time></trkpt>
<trkpt lat="45.73922167" lon="2.79172897"><ele>803</ele><time>2006-09-16T16:11:10Z</time></trkpt>
<trkpt lat="45.73916291" lon="2.79201672"><ele>800</ele><time>2006-09-16T16:11:14Z</time></trkpt>
<trkpt lat="45.73891522" lon="2.79301878"><ele>796</ele><time>2006-09-16T16:11:29Z</time></trkpt>
<trkpt lat="45.73903592" lon="2.79353251"><ele>790</ele><time>2006-09-16T16:11:43Z</time></trkpt>
<trkpt lat="45.73911488" lon="2.79388966"><ele>784</ele><time>2006-09-16T16:11:53Z</time></trkpt>
<trkpt lat="45.73911798" lon="2.79398245"><ele>782</ele><time>2006-09-16T16:11:57Z</time></trkpt>
<trkpt lat="45.73914631" lon="2.79407188"><ele>781</ele><time>2006-09-16T16:12:01Z</time></trkpt>
<trkpt lat="45.73911798" lon="2.79431496"><ele>778</ele><time>2006-09-16T16:12:09Z</time></trkpt>
<trkpt lat="45.73905747" lon="2.79448411"><ele>776</ele><time>2006-09-16T16:12:16Z</time></trkpt>
<trkpt lat="45.73897784" lon="2.79471654"><ele>774</ele><time>2006-09-16T16:12:26Z</time></trkpt>
<trkpt lat="45.73891422" lon="2.79490261"><ele>772</ele><time>2006-09-16T16:12:34Z</time></trkpt>
<trkpt lat="45.73881908" lon="2.79519238"><ele>770</ele><time>2006-09-16T16:12:43Z</time></trkpt>
<trkpt lat="45.73876720" lon="2.79528701"><ele>770</ele><time>2006-09-16T16:12:47Z</time></trkpt>
<trkpt lat="45.73860107" lon="2.79557233"><ele>768</ele><time>2006-09-16T16:12:57Z</time></trkpt>
<trkpt lat="45.73841960" lon="2.79590425"><ele>767</ele><time>2006-09-16T16:13:07Z</time></trkpt>
<trkpt lat="45.73838147" lon="2.79638842"><ele>763</ele><time>2006-09-16T16:13:18Z</time></trkpt>
<trkpt lat="45.73820010" lon="2.79674024"><ele>762</ele><time>2006-09-16T16:13:19Z</time></trkpt>
<trkpt lat="45.73792981" lon="2.79683434"><ele>758</ele><time>2006-09-16T16:13:29Z</time></trkpt>
<trkpt lat="45.73769432" lon="2.79683783"><ele>753</ele><time>2006-09-16T16:13:37Z</time></trkpt>
<trkpt lat="45.73747521" lon="2.79688518"><ele>747</ele><time>2006-09-16T16:13:45Z</time></trkpt>
<trkpt lat="45.73744990" lon="2.79688971"><ele>746</ele><time>2006-09-16T16:13:46Z</time></trkpt>
<trkpt lat="45.73684280" lon="2.79678997"><ele>738</ele><time>2006-09-16T16:14:09Z</time></trkpt>
<trkpt lat="45.73659335" lon="2.79667237"><ele>738</ele><time>2006-09-16T16:14:17Z</time></trkpt>
<trkpt lat="45.73635740" lon="2.79660137"><ele>738</ele><time>2006-09-16T16:14:23Z</time></trkpt>
<trkpt lat="45.73622790" lon="2.79660204"><ele>737</ele><time>2006-09-16T16:14:26Z</time></trkpt>
<trkpt lat="45.73607409" lon="2.79654639"><ele>737</ele><time>2006-09-16T16:14:29Z</time></trkpt>
<trkpt lat="45.73579514" lon="2.79651127"><ele>736</ele><time>2006-09-16T16:14:34Z</time></trkpt>
<trkpt lat="45.73573647" lon="2.79651311"><ele>736</ele><time>2006-09-16T16:14:35Z</time></trkpt>
<trkpt lat="45.73562415" lon="2.79653876"><ele>735</ele><time>2006-09-16T16:14:37Z</time></trkpt>
<trkpt lat="45.73520925" lon="2.79678536"><ele>732</ele><time>2006-09-16T16:14:50Z</time></trkpt>
<trkpt lat="45.73483969" lon="2.79697856"><ele>735</ele><time>2006-09-16T16:15:01Z</time></trkpt>
<trkpt lat="45.73445111" lon="2.79713798"><ele>742</ele><time>2006-09-16T16:15:13Z</time></trkpt>
<trkpt lat="45.73425681" lon="2.79702223"><ele>745</ele><time>2006-09-16T16:15:23Z</time></trkpt>
<trkpt lat="45.73423904" lon="2.79701276"><ele>745</ele><time>2006-09-16T16:15:24Z</time></trkpt>
<trkpt lat="45.73397309" lon="2.79685644"><ele>748</ele><time>2006-09-16T16:15:42Z</time></trkpt>
<trkpt lat="45.73381282" lon="2.79677354"><ele>752</ele><time>2006-09-16T16:15:54Z</time></trkpt>
<trkpt lat="45.73369078" lon="2.79671864"><ele>755</ele><time>2006-09-16T16:16:05Z</time></trkpt>
<trkpt lat="45.73352600" lon="2.79666675"><ele>759</ele><time>2006-09-16T16:16:20Z</time></trkpt>
<trkpt lat="45.73340496" lon="2.79663901"><ele>760</ele><time>2006-09-16T16:16:32Z</time></trkpt>
<trkpt lat="45.73330413" lon="2.79663993"><ele>762</ele><time>2006-09-16T16:16:41Z</time></trkpt>
<trkpt lat="45.73310640" lon="2.79669349"><ele>767</ele><time>2006-09-16T16:16:55Z</time></trkpt>
<trkpt lat="45.73284446" lon="2.79672425"><ele>770</ele><time>2006-09-16T16:17:12Z</time></trkpt>
<trkpt lat="45.73251547" lon="2.79690731"><ele>775</ele><time>2006-09-16T16:17:33Z</time></trkpt>
<trkpt lat="45.73231657" lon="2.79704679"><ele>778</ele><time>2006-09-16T16:17:48Z</time></trkpt>
<trkpt lat="45.73212882" lon="2.79721342"><ele>780</ele><time>2006-09-16T16:18:05Z</time></trkpt>
<trkpt lat="45.73186982" lon="2.79754258"><ele>781</ele><time>2006-09-16T16:18:24Z</time></trkpt>
<trkpt lat="45.73170561" lon="2.79810433"><ele>786</ele><time>2006-09-16T16:18:44Z</time></trkpt>
<trkpt lat="45.73151794" lon="2.79859627"><ele>791</ele><time>2006-09-16T16:19:02Z</time></trkpt>
<trkpt lat="45.73144209" lon="2.79864547"><ele>791</ele><time>2006-09-16T16:19:06Z</time></trkpt>
<trkpt lat="45.73126112" lon="2.79875100"><ele>791</ele><time>2006-09-16T16:19:16Z</time></trkpt>
<trkpt lat="45.73107697" lon="2.79894546"><ele>793</ele><time>2006-09-16T16:19:29Z</time></trkpt>
<trkpt lat="45.73087405" lon="2.79919423"><ele>795</ele><time>2006-09-16T16:19:43Z</time></trkpt>
<trkpt lat="45.73063214" lon="2.79938039"><ele>798</ele><time>2006-09-16T16:20:00Z</time></trkpt>
<trkpt lat="45.73031162" lon="2.79950403"><ele>800</ele><time>2006-09-16T16:20:21Z</time></trkpt>
<trkpt lat="45.72992932" lon="2.79971517"><ele>801</ele><time>2006-09-16T16:20:41Z</time></trkpt>
<trkpt lat="45.72963025" lon="2.79988314"><ele>801</ele><time>2006-09-16T16:20:51Z</time></trkpt>
<trkpt lat="45.72952263" lon="2.79976269"><ele>800</ele><time>2006-09-16T16:20:55Z</time></trkpt>
<trkpt lat="45.72935365" lon="2.79907362"><ele>797</ele><time>2006-09-16T16:21:05Z</time></trkpt>
<trkpt lat="45.72910412" lon="2.79792697"><ele>797</ele><time>2006-09-16T16:21:23Z</time></trkpt>
<trkpt lat="45.72894403" lon="2.79717646"><ele>800</ele><time>2006-09-16T16:21:41Z</time></trkpt>
<trkpt lat="45.72883213" lon="2.79663079"><ele>804</ele><time>2006-09-16T16:21:57Z</time></trkpt>
<trkpt lat="45.72874638" lon="2.79614070"><ele>807</ele><time>2006-09-16T16:22:13Z</time></trkpt>
<trkpt lat="45.72865762" lon="2.79570300"><ele>810</ele><time>2006-09-16T16:22:27Z</time></trkpt>
<trkpt lat="45.72856014" lon="2.79515114"><ele>813</ele><time>2006-09-16T16:22:45Z</time></trkpt>
<trkpt lat="45.72842997" lon="2.79457128"><ele>815</ele><time>2006-09-16T16:23:03Z</time></trkpt>
<trkpt lat="45.72838931" lon="2.79450531"><ele>814</ele><time>2006-09-16T16:23:06Z</time></trkpt>
<trkpt lat="45.72825227" lon="2.79447229"><ele>814</ele><time>2006-09-16T16:23:12Z</time></trkpt>
<trkpt lat="45.72768113" lon="2.79446198"><ele>811</ele><time>2006-09-16T16:23:26Z</time></trkpt>
<trkpt lat="45.72757610" lon="2.79449651"><ele>811</ele><time>2006-09-16T16:23:28Z</time></trkpt>
<trkpt lat="45.72715726" lon="2.79478795"><ele>808</ele><time>2006-09-16T16:23:36Z</time></trkpt>
<trkpt lat="45.72643767" lon="2.79541676"><ele>804</ele><time>2006-09-16T16:23:50Z</time></trkpt>
<trkpt lat="45.72604112" lon="2.79577198"><ele>803</ele><time>2006-09-16T16:24:01Z</time></trkpt>
<trkpt lat="45.72590115" lon="2.79591322"><ele>803</ele><time>2006-09-16T16:24:08Z</time></trkpt>
<trkpt lat="45.72562077" lon="2.79608723"><ele>799</ele><time>2006-09-16T16:24:18Z</time></trkpt>
<trkpt lat="45.72549730" lon="2.79628018"><ele>797</ele><time>2006-09-16T16:24:26Z</time></trkpt>
<trkpt lat="45.72548289" lon="2.79640515"><ele>797</ele><time>2006-09-16T16:24:31Z</time></trkpt>
<trkpt lat="45.72548130" lon="2.79670137"><ele>796</ele><time>2006-09-16T16:24:40Z</time></trkpt>
<trkpt lat="45.72547392" lon="2.79679382"><ele>795</ele><time>2006-09-16T16:24:43Z</time></trkpt>
<trkpt lat="45.72546420" lon="2.79691712"><ele>793</ele><time>2006-09-16T16:24:47Z</time></trkpt>
<trkpt lat="45.72547685" lon="2.79703078"><ele>790</ele><time>2006-09-16T16:24:49Z</time></trkpt>
<trkpt lat="45.72557224" lon="2.79735985"><ele>785</ele><time>2006-09-16T16:24:54Z</time></trkpt>
<trkpt lat="45.72580123" lon="2.79814968"><ele>784</ele><time>2006-09-16T16:25:06Z</time></trkpt>
<trkpt lat="45.72572873" lon="2.79826250"><ele>787</ele><time>2006-09-16T16:25:09Z</time></trkpt>
<trkpt lat="45.72557861" lon="2.79815354"><ele>785</ele><time>2006-09-16T16:25:17Z</time></trkpt>
<trkpt lat="45.72552849" lon="2.79808153"><ele>783</ele><time>2006-09-16T16:25:20Z</time></trkpt>
<trkpt lat="45.72540242" lon="2.79802429"><ele>782</ele><time>2006-09-16T16:25:28Z</time></trkpt>
<trkpt lat="45.72509112" lon="2.79811640"><ele>785</ele><time>2006-09-16T16:25:42Z</time></trkpt>
<trkpt lat="45.72481611" lon="2.79836895"><ele>790</ele><time>2006-09-16T16:26:00Z</time></trkpt>
<trkpt lat="45.72458393" lon="2.79864002"><ele>795</ele><time>2006-09-16T16:26:19Z</time></trkpt>
<trkpt lat="45.72440246" lon="2.79896457"><ele>798</ele><time>2006-09-16T16:26:42Z</time></trkpt>
<trkpt lat="45.72432183" lon="2.79925500"><ele>801</ele><time>2006-09-16T16:27:02Z</time></trkpt>
<trkpt lat="45.72427221" lon="2.79950067"><ele>803</ele><time>2006-09-16T16:27:19Z</time></trkpt>
<trkpt lat="45.72424765" lon="2.79967443"><ele>805</ele><time>2006-09-16T16:27:29Z</time></trkpt>
<trkpt lat="45.72421806" lon="2.79978750"><ele>805</ele><time>2006-09-16T16:27:34Z</time></trkpt>
<trkpt lat="45.72420222" lon="2.79985213"><ele>806</ele><time>2006-09-16T16:27:37Z</time></trkpt>
<trkpt lat="45.72399502" lon="2.79998624"><ele>806</ele><time>2006-09-16T16:27:51Z</time></trkpt>
<trkpt lat="45.72384724" lon="2.79990510"><ele>804</ele><time>2006-09-16T16:27:58Z</time></trkpt>
<trkpt lat="45.72369260" lon="2.79989320"><ele>803</ele><time>2006-09-16T16:28:01Z</time></trkpt>
<trkpt lat="45.72343175" lon="2.79997375"><ele>802</ele><time>2006-09-16T16:28:05Z</time></trkpt>
<trkpt lat="45.72291573" lon="2.79972753"><ele>798</ele><time>2006-09-16T16:28:11Z</time></trkpt>
<trkpt lat="45.72320944" lon="2.79940887"><ele>791</ele><time>2006-09-16T16:28:14Z</time></trkpt>
<trkpt lat="45.72340158" lon="2.79936212"><ele>793</ele><time>2006-09-16T16:28:15Z</time></trkpt>
<trkpt lat="45.72361356" lon="2.79913195"><ele>791</ele><time>2006-09-16T16:28:18Z</time></trkpt>
<trkpt lat="45.72391950" lon="2.79880087"><ele>789</ele><time>2006-09-16T16:28:22Z</time></trkpt>
<trkpt lat="45.72441772" lon="2.79829837"><ele>786</ele><time>2006-09-16T16:28:28Z</time></trkpt>
<trkpt lat="45.72466943" lon="2.79807734"><ele>783</ele><time>2006-09-16T16:28:31Z</time></trkpt>
<trkpt lat="45.72490873" lon="2.79792714"><ele>781</ele><time>2006-09-16T16:28:34Z</time></trkpt>
<trkpt lat="45.72505499" lon="2.79768390"><ele>779</ele><time>2006-09-16T16:28:37Z</time></trkpt>
<trkpt lat="45.72505927" lon="2.79745130"><ele>777</ele><time>2006-09-16T16:28:39Z</time></trkpt>
<trkpt lat="45.72502096" lon="2.79734175"><ele>775</ele><time>2006-09-16T16:28:40Z</time></trkpt>
<trkpt lat="45.72492139" lon="2.79713237"><ele>774</ele><time>2006-09-16T16:28:42Z</time></trkpt>
<trkpt lat="45.72494385" lon="2.79662149"><ele>776</ele><time>2006-09-16T16:28:46Z</time></trkpt>
<trkpt lat="45.72497042" lon="2.79647280"><ele>777</ele><time>2006-09-16T16:28:47Z</time></trkpt>
<trkpt lat="45.72500034" lon="2.79598757"><ele>776</ele><time>2006-09-16T16:28:50Z</time></trkpt>
<trkpt lat="45.72498282" lon="2.79552656"><ele>771</ele><time>2006-09-16T16:28:53Z</time></trkpt>
<trkpt lat="45.72498266" lon="2.79505122"><ele>768</ele><time>2006-09-16T16:28:57Z</time></trkpt>
<trkpt lat="45.72477311" lon="2.79482978"><ele>760</ele><time>2006-09-16T16:29:03Z</time></trkpt>
<trkpt lat="45.72453037" lon="2.79462861"><ele>755</ele><time>2006-09-16T16:29:12Z</time></trkpt>
<trkpt lat="45.72442342" lon="2.79409829"><ele>756</ele><time>2006-09-16T16:29:26Z</time></trkpt>
<trkpt lat="45.72425678" lon="2.79321819"><ele>760</ele><time>2006-09-16T16:29:49Z</time></trkpt>
<trkpt lat="45.72423139" lon="2.79289875"><ele>760</ele><time>2006-09-16T16:29:58Z</time></trkpt>
<trkpt lat="45.72422938" lon="2.79224169"><ele>762</ele><time>2006-09-16T16:30:17Z</time></trkpt>
<trkpt lat="45.72412066" lon="2.79180676"><ele>765</ele><time>2006-09-16T16:30:33Z</time></trkpt>
<trkpt lat="45.72394355" lon="2.79157776"><ele>771</ele><time>2006-09-16T16:30:47Z</time></trkpt>
<trkpt lat="45.72371707" lon="2.79133419"><ele>776</ele><time>2006-09-16T16:31:03Z</time></trkpt>
<trkpt lat="45.72361381" lon="2.79096974"><ele>779</ele><time>2006-09-16T16:31:18Z</time></trkpt>
<trkpt lat="45.72364809" lon="2.79082876"><ele>779</ele><time>2006-09-16T16:31:24Z</time></trkpt>
<trkpt lat="45.72394674" lon="2.79042508"><ele>779</ele><time>2006-09-16T16:31:44Z</time></trkpt>
<trkpt lat="45.72444202" lon="2.78995184"><ele>778</ele><time>2006-09-16T16:32:09Z</time></trkpt>
<trkpt lat="45.72481502" lon="2.78910787"><ele>779</ele><time>2006-09-16T16:32:32Z</time></trkpt>
<trkpt lat="45.72499464" lon="2.78871417"><ele>781</ele><time>2006-09-16T16:32:44Z</time></trkpt>
<trkpt lat="45.72534140" lon="2.78816717"><ele>782</ele><time>2006-09-16T16:33:06Z</time></trkpt>
<trkpt lat="45.72523671" lon="2.78754682"><ele>791</ele><time>2006-09-16T16:33:23Z</time></trkpt>
<trkpt lat="45.72513713" lon="2.78706235"><ele>797</ele><time>2006-09-16T16:33:38Z</time></trkpt>
<trkpt lat="45.72518122" lon="2.78676596"><ele>799</ele><time>2006-09-16T16:33:48Z</time></trkpt>
<trkpt lat="45.72541701" lon="2.78658131"><ele>802</ele><time>2006-09-16T16:34:03Z</time></trkpt>
<trkpt lat="45.72575865" lon="2.78666798"><ele>805</ele><time>2006-09-16T16:34:19Z</time></trkpt>
<trkpt lat="45.72588807" lon="2.78665767"><ele>806</ele><time>2006-09-16T16:34:25Z</time></trkpt>
<trkpt lat="45.72605973" lon="2.78612567"><ele>812</ele><time>2006-09-16T16:34:43Z</time></trkpt>
<trkpt lat="45.72592973" lon="2.78572510"><ele>812</ele><time>2006-09-16T16:34:57Z</time></trkpt>
<trkpt lat="45.72559663" lon="2.78530475"><ele>810</ele><time>2006-09-16T16:35:16Z</time></trkpt>
<trkpt lat="45.72544089" lon="2.78507777"><ele>810</ele><time>2006-09-16T16:35:26Z</time></trkpt>
<trkpt lat="45.72508936" lon="2.78494609"><ele>813</ele><time>2006-09-16T16:35:45Z</time></trkpt>
<trkpt lat="45.72483555" lon="2.78491943"><ele>817</ele><time>2006-09-16T16:36:01Z</time></trkpt>
<trkpt lat="45.72456222" lon="2.78490057"><ele>822</ele><time>2006-09-16T16:36:17Z</time></trkpt>
<trkpt lat="45.72452643" lon="2.78490351"><ele>822</ele><time>2006-09-16T16:36:19Z</time></trkpt>
<trkpt lat="45.72423206" lon="2.78487434"><ele>827</ele><time>2006-09-16T16:36:37Z</time></trkpt>
<trkpt lat="45.72406760" lon="2.78483511"><ele>830</ele><time>2006-09-16T16:36:50Z</time></trkpt>
<trkpt lat="45.72393425" lon="2.78482849"><ele>832</ele><time>2006-09-16T16:36:59Z</time></trkpt>
<trkpt lat="45.72361850" lon="2.78485288"><ele>836</ele><time>2006-09-16T16:37:19Z</time></trkpt>
<trkpt lat="45.72335447" lon="2.78490904"><ele>839</ele><time>2006-09-16T16:37:37Z</time></trkpt>
<trkpt lat="45.72308290" lon="2.78502882"><ele>843</ele><time>2006-09-16T16:37:54Z</time></trkpt>
<trkpt lat="45.72280638" lon="2.78515237"><ele>847</ele><time>2006-09-16T16:38:10Z</time></trkpt>
<trkpt lat="45.72243934" lon="2.78520433"><ele>852</ele><time>2006-09-16T16:38:29Z</time></trkpt>
<trkpt lat="45.72229441" lon="2.78521959"><ele>853</ele><time>2006-09-16T16:38:36Z</time></trkpt>
<trkpt lat="45.72196794" lon="2.78523602"><ele>856</ele><time>2006-09-16T16:38:52Z</time></trkpt>
<trkpt lat="45.72157089" lon="2.78534398"><ele>859</ele><time>2006-09-16T16:39:11Z</time></trkpt>
<trkpt lat="45.72124341" lon="2.78551639"><ele>861</ele><time>2006-09-16T16:39:27Z</time></trkpt>
<trkpt lat="45.72090059" lon="2.78562242"><ele>862</ele><time>2006-09-16T16:39:43Z</time></trkpt>
<trkpt lat="45.72056824" lon="2.78568520"><ele>862</ele><time>2006-09-16T16:39:58Z</time></trkpt>
<trkpt lat="45.72004161" lon="2.78569032"><ele>862</ele><time>2006-09-16T16:40:15Z</time></trkpt>
<trkpt lat="45.71956778" lon="2.78560071"><ele>860</ele><time>2006-09-16T16:40:25Z</time></trkpt>
<trkpt lat="45.71939000" lon="2.78551832"><ele>859</ele><time>2006-09-16T16:40:28Z</time></trkpt>
<trkpt lat="45.71926938" lon="2.78545068"><ele>858</ele><time>2006-09-16T16:40:30Z</time></trkpt>
<trkpt lat="45.71886647" lon="2.78546291"><ele>854</ele><time>2006-09-16T16:40:35Z</time></trkpt>
<trkpt lat="45.71841585" lon="2.78552293"><ele>849</ele><time>2006-09-16T16:40:40Z</time></trkpt>
<trkpt lat="45.71823724" lon="2.78549703"><ele>848</ele><time>2006-09-16T16:40:42Z</time></trkpt>
<trkpt lat="45.71740324" lon="2.78521271"><ele>844</ele><time>2006-09-16T16:40:54Z</time></trkpt>
<trkpt lat="45.71673612" lon="2.78511448"><ele>844</ele><time>2006-09-16T16:41:10Z</time></trkpt>
<trkpt lat="45.71661601" lon="2.78511574"><ele>845</ele><time>2006-09-16T16:41:13Z</time></trkpt>
<trkpt lat="45.71649355" lon="2.78524272"><ele>844</ele><time>2006-09-16T16:41:17Z</time></trkpt>
<trkpt lat="45.71604914" lon="2.78567724"><ele>846</ele><time>2006-09-16T16:41:33Z</time></trkpt>
<trkpt lat="45.71555536" lon="2.78604638"><ele>849</ele><time>2006-09-16T16:41:50Z</time></trkpt>
<trkpt lat="45.71511716" lon="2.78680142"><ele>849</ele><time>2006-09-16T16:42:09Z</time></trkpt>
<trkpt lat="45.71513501" lon="2.78669874"><ele>849</ele><time>2006-09-16T16:43:03Z</time></trkpt>
<trkpt lat="45.71532855" lon="2.78614948"><ele>850</ele><time>2006-09-16T16:43:16Z</time></trkpt>
<trkpt lat="45.71553282" lon="2.78542310"><ele>851</ele><time>2006-09-16T16:43:33Z</time></trkpt>
<trkpt lat="45.71569484" lon="2.78447159"><ele>853</ele><time>2006-09-16T16:43:54Z</time></trkpt>
<trkpt lat="45.71591956" lon="2.78348973"><ele>855</ele><time>2006-09-16T16:44:16Z</time></trkpt>
<trkpt lat="45.71618920" lon="2.78274039"><ele>858</ele><time>2006-09-16T16:44:34Z</time></trkpt>
<trkpt lat="45.71644912" lon="2.78233646"><ele>856</ele><time>2006-09-16T16:44:45Z</time></trkpt>
<trkpt lat="45.71656899" lon="2.78192349"><ele>855</ele><time>2006-09-16T16:44:51Z</time></trkpt>
<trkpt lat="45.71654468" lon="2.78172660"><ele>855</ele><time>2006-09-16T16:44:54Z</time></trkpt>
<trkpt lat="45.71649841" lon="2.78161805"><ele>856</ele><time>2006-09-16T16:44:56Z</time></trkpt>
<trkpt lat="45.71628140" lon="2.78107499"><ele>857</ele><time>2006-09-16T16:45:10Z</time></trkpt>
<trkpt lat="45.71596524" lon="2.78049236"><ele>858</ele><time>2006-09-16T16:45:29Z</time></trkpt>
<trkpt lat="45.71559233" lon="2.78005650"><ele>859</ele><time>2006-09-16T16:45:48Z</time></trkpt>
<trkpt lat="45.71525185" lon="2.77970824"><ele>860</ele><time>2006-09-16T16:46:03Z</time></trkpt>
<trkpt lat="45.71474325" lon="2.77936707"><ele>862</ele><time>2006-09-16T16:46:20Z</time></trkpt>
<trkpt lat="45.71437033" lon="2.77922753"><ele>864</ele><time>2006-09-16T16:46:34Z</time></trkpt>
<trkpt lat="45.71399046" lon="2.77899812"><ele>863</ele><time>2006-09-16T16:46:43Z</time></trkpt>
<trkpt lat="45.71352619" lon="2.77880022"><ele>863</ele><time>2006-09-16T16:46:55Z</time></trkpt>
<trkpt lat="45.71314749" lon="2.77899292"><ele>862</ele><time>2006-09-16T16:47:06Z</time></trkpt>
<trkpt lat="45.71296418" lon="2.77913416"><ele>862</ele><time>2006-09-16T16:47:10Z</time></trkpt>
<trkpt lat="45.71292043" lon="2.77918177"><ele>862</ele><time>2006-09-16T16:47:11Z</time></trkpt>
<trkpt lat="45.71267073" lon="2.77928914"><ele>863</ele><time>2006-09-16T16:47:23Z</time></trkpt>
<trkpt lat="45.71247049" lon="2.77923818"><ele>863</ele><time>2006-09-16T16:47:34Z</time></trkpt>
<trkpt lat="45.71224325" lon="2.77898789"><ele>864</ele><time>2006-09-16T16:47:53Z</time></trkpt>
<trkpt lat="45.71203270" lon="2.77886326"><ele>867</ele><time>2006-09-16T16:48:07Z</time></trkpt>
<trkpt lat="45.71150548" lon="2.77863041"><ele>873</ele><time>2006-09-16T16:48:31Z</time></trkpt>
<trkpt lat="45.71101832" lon="2.77851147"><ele>876</ele><time>2006-09-16T16:48:50Z</time></trkpt>
<trkpt lat="45.71067148" lon="2.77846084"><ele>878</ele><time>2006-09-16T16:49:04Z</time></trkpt>
<trkpt lat="45.71046294" lon="2.77858841"><ele>881</ele><time>2006-09-16T16:49:16Z</time></trkpt>
<trkpt lat="45.71040753" lon="2.77862395"><ele>882</ele><time>2006-09-16T16:49:20Z</time></trkpt>
<trkpt lat="45.71028683" lon="2.77866670"><ele>882</ele><time>2006-09-16T16:49:28Z</time></trkpt>
<trkpt lat="45.70994032" lon="2.77866201"><ele>883</ele><time>2006-09-16T16:49:42Z</time></trkpt>
<trkpt lat="45.70945627" lon="2.77864365"><ele>884</ele><time>2006-09-16T16:50:00Z</time></trkpt>
<trkpt lat="45.70910021" lon="2.77856528"><ele>883</ele><time>2006-09-16T16:50:13Z</time></trkpt>
<trkpt lat="45.70871833" lon="2.77850686"><ele>882</ele><time>2006-09-16T16:50:29Z</time></trkpt>
<trkpt lat="45.70837693" lon="2.77850694"><ele>882</ele><time>2006-09-16T16:50:42Z</time></trkpt>
<trkpt lat="45.70794786" lon="2.77847358"><ele>881</ele><time>2006-09-16T16:50:54Z</time></trkpt>
<trkpt lat="45.70787863" lon="2.77844860"><ele>881</ele><time>2006-09-16T16:51:06Z</time></trkpt>
<trkpt lat="45.70783563" lon="2.77841667"><ele>880</ele><time>2006-09-16T16:52:04Z</time></trkpt>
<trkpt lat="45.70756766" lon="2.77828717"><ele>879</ele><time>2006-09-16T16:52:15Z</time></trkpt>
<trkpt lat="45.70735400" lon="2.77809799"><ele>877</ele><time>2006-09-16T16:52:20Z</time></trkpt>
<trkpt lat="45.70712090" lon="2.77786128"><ele>874</ele><time>2006-09-16T16:52:25Z</time></trkpt>
<trkpt lat="45.70702057" lon="2.77774896"><ele>873</ele><time>2006-09-16T16:52:27Z</time></trkpt>
<trkpt lat="45.70696936" lon="2.77768996"><ele>872</ele><time>2006-09-16T16:52:28Z</time></trkpt>
<trkpt lat="45.70659494" lon="2.77754151"><ele>870</ele><time>2006-09-16T16:52:34Z</time></trkpt>
<trkpt lat="45.70613796" lon="2.77767981"><ele>872</ele><time>2006-09-16T16:52:44Z</time></trkpt>
<trkpt lat="45.70609655" lon="2.77769457"><ele>872</ele><time>2006-09-16T16:52:45Z</time></trkpt>
<trkpt lat="45.70583269" lon="2.77777134"><ele>873</ele><time>2006-09-16T16:52:51Z</time></trkpt>
<trkpt lat="45.70549356" lon="2.77809069"><ele>876</ele><time>2006-09-16T16:53:02Z</time></trkpt>
<trkpt lat="45.70478881" lon="2.77852647"><ele>878</ele><time>2006-09-16T16:53:25Z</time></trkpt>
<trkpt lat="45.70412815" lon="2.77889787"><ele>879</ele><time>2006-09-16T16:53:43Z</time></trkpt>
<trkpt lat="45.70361643" lon="2.77911798"><ele>879</ele><time>2006-09-16T16:53:57Z</time></trkpt>
<trkpt lat="45.70329473" lon="2.77912628"><ele>879</ele><time>2006-09-16T16:54:04Z</time></trkpt>
<trkpt lat="45.70256660" lon="2.77891631"><ele>879</ele><time>2006-09-16T16:54:23Z</time></trkpt>
<trkpt lat="45.70220911" lon="2.77861146"><ele>881</ele><time>2006-09-16T16:54:37Z</time></trkpt>
<trkpt lat="45.70212043" lon="2.77853787"><ele>881</ele><time>2006-09-16T16:54:41Z</time></trkpt>
<trkpt lat="45.70162422" lon="2.77825825"><ele>886</ele><time>2006-09-16T16:55:01Z</time></trkpt>
<trkpt lat="45.70110060" lon="2.77814845"><ele>888</ele><time>2006-09-16T16:55:19Z</time></trkpt>
<trkpt lat="45.70080346" lon="2.77829010"><ele>890</ele><time>2006-09-16T16:55:30Z</time></trkpt>
<trkpt lat="45.70075183" lon="2.77847115"><ele>892</ele><time>2006-09-16T16:55:36Z</time></trkpt>
<trkpt lat="45.70071093" lon="2.77851264"><ele>892</ele><time>2006-09-16T16:55:38Z</time></trkpt>
<trkpt lat="45.70033785" lon="2.77851499"><ele>892</ele><time>2006-09-16T16:55:52Z</time></trkpt>
<trkpt lat="45.70029552" lon="2.77852287"><ele>892</ele><time>2006-09-16T16:55:53Z</time></trkpt>
<trkpt lat="45.70005764" lon="2.77881489"><ele>893</ele><time>2006-09-16T16:56:05Z</time></trkpt>
<trkpt lat="45.69967576" lon="2.77880726"><ele>893</ele><time>2006-09-16T16:56:18Z</time></trkpt>
<trkpt lat="45.69932230" lon="2.77893819"><ele>894</ele><time>2006-09-16T16:56:31Z</time></trkpt>
<trkpt lat="45.69914628" lon="2.77934019"><ele>897</ele><time>2006-09-16T16:56:45Z</time></trkpt>
<trkpt lat="45.69891527" lon="2.77987336"><ele>902</ele><time>2006-09-16T16:57:04Z</time></trkpt>
<trkpt lat="45.69879818" lon="2.78016756"><ele>904</ele><time>2006-09-16T16:57:14Z</time></trkpt>
<trkpt lat="45.69864571" lon="2.78053494"><ele>908</ele><time>2006-09-16T16:57:28Z</time></trkpt>
<trkpt lat="45.69834044" lon="2.78072714"><ele>910</ele><time>2006-09-16T16:57:46Z</time></trkpt>
<trkpt lat="45.69788824" lon="2.78057132"><ele>911</ele><time>2006-09-16T16:58:05Z</time></trkpt>
<trkpt lat="45.69743176" lon="2.78039371"><ele>912</ele><time>2006-09-16T16:58:23Z</time></trkpt>
<trkpt lat="45.69688803" lon="2.78013638"><ele>912</ele><time>2006-09-16T16:58:45Z</time></trkpt>
<trkpt lat="45.69626332" lon="2.77973497"><ele>914</ele><time>2006-09-16T16:59:07Z</time></trkpt>
<trkpt lat="45.69548372" lon="2.77923449"><ele>916</ele><time>2006-09-16T16:59:31Z</time></trkpt>
<trkpt lat="45.69520192" lon="2.77915679"><ele>917</ele><time>2006-09-16T16:59:39Z</time></trkpt>
<trkpt lat="45.69472876" lon="2.77950791"><ele>920</ele><time>2006-09-16T16:59:54Z</time></trkpt>
<trkpt lat="45.69417036" lon="2.78029095"><ele>922</ele><time>2006-09-16T17:00:15Z</time></trkpt>
<trkpt lat="45.69385210" lon="2.78022858"><ele>924</ele><time>2006-09-16T17:00:24Z</time></trkpt>
<trkpt lat="45.69299103" lon="2.77999951"><ele>926</ele><time>2006-09-16T17:00:48Z</time></trkpt>
<trkpt lat="45.69206416" lon="2.77975517"><ele>929</ele><time>2006-09-16T17:01:12Z</time></trkpt>
<trkpt lat="45.69136192" lon="2.77953121"><ele>930</ele><time>2006-09-16T17:01:31Z</time></trkpt>
<trkpt lat="45.69056681" lon="2.77914673"><ele>930</ele><time>2006-09-16T17:01:53Z</time></trkpt>
<trkpt lat="45.69000673" lon="2.77918973"><ele>932</ele><time>2006-09-16T17:02:11Z</time></trkpt>
<trkpt lat="45.68960181" lon="2.77926450"><ele>934</ele><time>2006-09-16T17:02:25Z</time></trkpt>
<trkpt lat="45.68927617" lon="2.77936793"><ele>935</ele><time>2006-09-16T17:02:37Z</time></trkpt>
<trkpt lat="45.68884333" lon="2.77933138"><ele>937</ele><time>2006-09-16T17:02:54Z</time></trkpt>
<trkpt lat="45.68829314" lon="2.77923600"><ele>939</ele><time>2006-09-16T17:03:13Z</time></trkpt>
<trkpt lat="45.68761504" lon="2.77909351"><ele>940</ele><time>2006-09-16T17:03:32Z</time></trkpt>
<trkpt lat="45.68719142" lon="2.77897390"><ele>940</ele><time>2006-09-16T17:03:41Z</time></trkpt>
<trkpt lat="45.68630101" lon="2.77875873"><ele>938</ele><time>2006-09-16T17:03:57Z</time></trkpt>
<trkpt lat="45.68563742" lon="2.77857416"><ele>934</ele><time>2006-09-16T17:04:08Z</time></trkpt>
<trkpt lat="45.68500341" lon="2.77823905"><ele>932</ele><time>2006-09-16T17:04:19Z</time></trkpt>
<trkpt lat="45.68431458" lon="2.77778014"><ele>928</ele><time>2006-09-16T17:04:29Z</time></trkpt>
<trkpt lat="45.68306191" lon="2.77724119"><ele>926</ele><time>2006-09-16T17:04:47Z</time></trkpt>
<trkpt lat="45.68242002" lon="2.77726692"><ele>927</ele><time>2006-09-16T17:04:57Z</time></trkpt>
<trkpt lat="45.68204762" lon="2.77733674"><ele>929</ele><time>2006-09-16T17:05:04Z</time></trkpt>
<trkpt lat="45.68184609" lon="2.77720985"><ele>927</ele><time>2006-09-16T17:05:09Z</time></trkpt>
<trkpt lat="45.68166729" lon="2.77691963"><ele>925</ele><time>2006-09-16T17:05:12Z</time></trkpt>
<trkpt lat="45.68153386" lon="2.77653351"><ele>921</ele><time>2006-09-16T17:05:16Z</time></trkpt>
<trkpt lat="45.68126685" lon="2.77579336"><ele>917</ele><time>2006-09-16T17:05:20Z</time></trkpt>
<trkpt lat="45.68065287" lon="2.77544905"><ele>918</ele><time>2006-09-16T17:05:30Z</time></trkpt>
<trkpt lat="45.68047592" lon="2.77528913"><ele>917</ele><time>2006-09-16T17:05:32Z</time></trkpt>
<trkpt lat="45.68024425" lon="2.77503021"><ele>915</ele><time>2006-09-16T17:05:35Z</time></trkpt>
<trkpt lat="45.67999648" lon="2.77480960"><ele>914</ele><time>2006-09-16T17:05:38Z</time></trkpt>
<trkpt lat="45.67963363" lon="2.77456141"><ele>913</ele><time>2006-09-16T17:05:42Z</time></trkpt>
<trkpt lat="45.67939541" lon="2.77422178"><ele>912</ele><time>2006-09-16T17:05:46Z</time></trkpt>
<trkpt lat="45.67932199" lon="2.77404961"><ele>912</ele><time>2006-09-16T17:05:48Z</time></trkpt>
<trkpt lat="45.67926281" lon="2.77390284"><ele>912</ele><time>2006-09-16T17:05:50Z</time></trkpt>
<trkpt lat="45.67912677" lon="2.77372498"><ele>912</ele><time>2006-09-16T17:05:54Z</time></trkpt>
<trkpt lat="45.67886702" lon="2.77348124"><ele>914</ele><time>2006-09-16T17:06:05Z</time></trkpt>
<trkpt lat="45.67886333" lon="2.77346439"><ele>914</ele><time>2006-09-16T17:06:06Z</time></trkpt>
<trkpt lat="45.67891337" lon="2.77341032"><ele>913</ele><time>2006-09-16T17:06:18Z</time></trkpt>
<trkpt lat="45.67892812" lon="2.77340027"><ele>913</ele><time>2006-09-16T17:06:36Z</time></trkpt>
<trkpt lat="45.67890901" lon="2.77341904"><ele>913</ele><time>2006-09-16T17:23:59Z</time></trkpt>
<trkpt lat="45.67891303" lon="2.77341904"><ele>913</ele><time>2006-09-16T17:24:02Z</time></trkpt>
<trkpt lat="45.67882578" lon="2.77346104"><ele>914</ele><time>2006-09-16T17:24:11Z</time></trkpt>
<trkpt lat="45.67852076" lon="2.77316792"><ele>916</ele><time>2006-09-16T17:24:27Z</time></trkpt>
<trkpt lat="45.67822111" lon="2.77299433"><ele>919</ele><time>2006-09-16T17:24:43Z</time></trkpt>
<trkpt lat="45.67799161" lon="2.77268076"><ele>923</ele><time>2006-09-16T17:24:58Z</time></trkpt>
<trkpt lat="45.67797602" lon="2.77261379"><ele>923</ele><time>2006-09-16T17:25:01Z</time></trkpt>
<trkpt lat="45.67793378" lon="2.77244976"><ele>924</ele><time>2006-09-16T17:25:07Z</time></trkpt>
<trkpt lat="45.67787737" lon="2.77234633"><ele>925</ele><time>2006-09-16T17:25:11Z</time></trkpt>
<trkpt lat="45.67757050" lon="2.77188557"><ele>931</ele><time>2006-09-16T17:25:30Z</time></trkpt>
<trkpt lat="45.67707673" lon="2.77146287"><ele>932</ele><time>2006-09-16T17:25:50Z</time></trkpt>
<trkpt lat="45.67651221" lon="2.77113715"><ele>932</ele><time>2006-09-16T17:26:11Z</time></trkpt>
<trkpt lat="45.67630760" lon="2.77108057"><ele>933</ele><time>2006-09-16T17:26:19Z</time></trkpt>
<trkpt lat="45.67615790" lon="2.77134938"><ele>937</ele><time>2006-09-16T17:26:32Z</time></trkpt>
<trkpt lat="45.67614919" lon="2.77157678"><ele>939</ele><time>2006-09-16T17:26:41Z</time></trkpt>
<trkpt lat="45.67615857" lon="2.77164937"><ele>939</ele><time>2006-09-16T17:26:44Z</time></trkpt>
<trkpt lat="45.67644088" lon="2.77194844"><ele>940</ele><time>2006-09-16T17:27:03Z</time></trkpt>
<trkpt lat="45.67671957" lon="2.77221406"><ele>941</ele><time>2006-09-16T17:27:20Z</time></trkpt>
<trkpt lat="45.67663299" lon="2.77249024"><ele>942</ele><time>2006-09-16T17:27:32Z</time></trkpt>
<trkpt lat="45.67627969" lon="2.77255654"><ele>943</ele><time>2006-09-16T17:27:48Z</time></trkpt>
<trkpt lat="45.67572682" lon="2.77255872"><ele>946</ele><time>2006-09-16T17:28:08Z</time></trkpt>
<trkpt lat="45.67521796" lon="2.77253659"><ele>949</ele><time>2006-09-16T17:28:27Z</time></trkpt>
<trkpt lat="45.67492467" lon="2.77247164"><ele>950</ele><time>2006-09-16T17:28:40Z</time></trkpt>
<trkpt lat="45.67444271" lon="2.77231758"><ele>951</ele><time>2006-09-16T17:28:59Z</time></trkpt>
<trkpt lat="45.67373796" lon="2.77221599"><ele>955</ele><time>2006-09-16T17:29:25Z</time></trkpt>
<trkpt lat="45.67331082" lon="2.77217710"><ele>958</ele><time>2006-09-16T17:29:40Z</time></trkpt>
<trkpt lat="45.67270825" lon="2.77209152"><ele>961</ele><time>2006-09-16T17:30:01Z</time></trkpt>
<trkpt lat="45.67223132" lon="2.77189764"><ele>962</ele><time>2006-09-16T17:30:18Z</time></trkpt>
<trkpt lat="45.67192546" lon="2.77179589"><ele>962</ele><time>2006-09-16T17:30:30Z</time></trkpt>
<trkpt lat="45.67131853" lon="2.77152951"><ele>962</ele><time>2006-09-16T17:30:50Z</time></trkpt>
<trkpt lat="45.67101879" lon="2.77135684"><ele>963</ele><time>2006-09-16T17:31:01Z</time></trkpt>
<trkpt lat="45.67054974" lon="2.77111595"><ele>964</ele><time>2006-09-16T17:31:17Z</time></trkpt>
<trkpt lat="45.67006937" lon="2.77079492"><ele>964</ele><time>2006-09-16T17:31:33Z</time></trkpt>
<trkpt lat="45.66947241" lon="2.77061689"><ele>967</ele><time>2006-09-16T17:31:51Z</time></trkpt>
<trkpt lat="45.66907251" lon="2.77063424"><ele>970</ele><time>2006-09-16T17:32:05Z</time></trkpt>
<trkpt lat="45.66892013" lon="2.77059568"><ele>971</ele><time>2006-09-16T17:32:11Z</time></trkpt>
<trkpt lat="45.66865861" lon="2.77052846"><ele>972</ele><time>2006-09-16T17:32:17Z</time></trkpt>
<trkpt lat="45.66856164" lon="2.77048445"><ele>973</ele><time>2006-09-16T17:32:19Z</time></trkpt>
<trkpt lat="45.66838352" lon="2.77028848"><ele>971</ele><time>2006-09-16T17:32:23Z</time></trkpt>
<trkpt lat="45.66827808" lon="2.77024607"><ele>971</ele><time>2006-09-16T17:32:25Z</time></trkpt>
<trkpt lat="45.66820415" lon="2.76998699"><ele>968</ele><time>2006-09-16T17:32:30Z</time></trkpt>
<trkpt lat="45.66818780" lon="2.76958072"><ele>964</ele><time>2006-09-16T17:32:35Z</time></trkpt>
<trkpt lat="45.66796920" lon="2.76884671"><ele>960</ele><time>2006-09-16T17:32:43Z</time></trkpt>
<trkpt lat="45.66782864" lon="2.76838780"><ele>965</ele><time>2006-09-16T17:32:48Z</time></trkpt>
<trkpt lat="45.66743863" lon="2.76840549"><ele>970</ele><time>2006-09-16T17:33:00Z</time></trkpt>
<trkpt lat="45.66728516" lon="2.76845142"><ele>971</ele><time>2006-09-16T17:33:07Z</time></trkpt>
<trkpt lat="45.66717971" lon="2.76847087"><ele>972</ele><time>2006-09-16T17:33:13Z</time></trkpt>
<trkpt lat="45.66701082" lon="2.76859316"><ele>972</ele><time>2006-09-16T17:33:22Z</time></trkpt>
<trkpt lat="45.66686254" lon="2.76846081"><ele>975</ele><time>2006-09-16T17:33:36Z</time></trkpt>
<trkpt lat="45.66677629" lon="2.76818572"><ele>979</ele><time>2006-09-16T17:33:50Z</time></trkpt>
<trkpt lat="45.66678685" lon="2.76787517"><ele>982</ele><time>2006-09-16T17:34:05Z</time></trkpt>
<trkpt lat="45.66678375" lon="2.76780082"><ele>982</ele><time>2006-09-16T17:34:09Z</time></trkpt>
<trkpt lat="45.66668845" lon="2.76767987"><ele>982</ele><time>2006-09-16T17:34:15Z</time></trkpt>
<trkpt lat="45.66626726" lon="2.76728408"><ele>981</ele><time>2006-09-16T17:34:26Z</time></trkpt>
<trkpt lat="45.66617480" lon="2.76718659"><ele>980</ele><time>2006-09-16T17:34:28Z</time></trkpt>
<trkpt lat="45.66539789" lon="2.76662861"><ele>980</ele><time>2006-09-16T17:34:43Z</time></trkpt>
<trkpt lat="45.66535933" lon="2.76674638"><ele>979</ele><time>2006-09-16T17:34:48Z</time></trkpt>
<trkpt lat="45.66528222" lon="2.76692256"><ele>978</ele><time>2006-09-16T17:34:51Z</time></trkpt>
<trkpt lat="45.66520192" lon="2.76714963"><ele>978</ele><time>2006-09-16T17:34:54Z</time></trkpt>
<trkpt lat="45.66514995" lon="2.76730956"><ele>977</ele><time>2006-09-16T17:34:56Z</time></trkpt>
<trkpt lat="45.66486119" lon="2.76744274"><ele>977</ele><time>2006-09-16T17:35:02Z</time></trkpt>
<trkpt lat="45.66482725" lon="2.76741316"><ele>977</ele><time>2006-09-16T17:35:03Z</time></trkpt>
<trkpt lat="45.66429877" lon="2.76708165"><ele>978</ele><time>2006-09-16T17:35:21Z</time></trkpt>
<trkpt lat="45.66362176" lon="2.76701560"><ele>979</ele><time>2006-09-16T17:35:42Z</time></trkpt>
<trkpt lat="45.66306604" lon="2.76698778"><ele>980</ele><time>2006-09-16T17:36:02Z</time></trkpt>
<trkpt lat="45.66247922" lon="2.76702583"><ele>982</ele><time>2006-09-16T17:36:22Z</time></trkpt>
<trkpt lat="45.66177204" lon="2.76720302"><ele>987</ele><time>2006-09-16T17:36:46Z</time></trkpt>
<trkpt lat="45.66126192" lon="2.76738449"><ele>991</ele><time>2006-09-16T17:37:03Z</time></trkpt>
<trkpt lat="45.66071056" lon="2.76778716"><ele>996</ele><time>2006-09-16T17:37:24Z</time></trkpt>
<trkpt lat="45.65972476" lon="2.76851194"><ele>999</ele><time>2006-09-16T17:37:59Z</time></trkpt>
<trkpt lat="45.65914281" lon="2.76927520"><ele>1000</ele><time>2006-09-16T17:38:22Z</time></trkpt>
<trkpt lat="45.65866630" lon="2.76986377"><ele>1000</ele><time>2006-09-16T17:38:44Z</time></trkpt>
<trkpt lat="45.65847611" lon="2.77019125"><ele>1001</ele><time>2006-09-16T17:38:57Z</time></trkpt>
<trkpt lat="45.65808853" lon="2.77008170"><ele>999</ele><time>2006-09-16T17:39:10Z</time></trkpt>
<trkpt lat="45.65769415" lon="2.77034565"><ele>1000</ele><time>2006-09-16T17:39:22Z</time></trkpt>
<trkpt lat="45.65722109" lon="2.77053437"><ele>1002</ele><time>2006-09-16T17:39:36Z</time></trkpt>
<trkpt lat="45.65688410" lon="2.77043550"><ele>1003</ele><time>2006-09-16T17:39:47Z</time></trkpt>
<trkpt lat="45.65641303" lon="2.77011107"><ele>1006</ele><time>2006-09-16T17:40:09Z</time></trkpt>
<trkpt lat="45.65609840" lon="2.77004445"><ele>1008</ele><time>2006-09-16T17:40:25Z</time></trkpt>
<trkpt lat="45.65587324" lon="2.77010683"><ele>1010</ele><time>2006-09-16T17:40:46Z</time></trkpt>
<trkpt lat="45.65562869" lon="2.77044430"><ele>1014</ele><time>2006-09-16T17:41:03Z</time></trkpt>
<trkpt lat="45.65559081" lon="2.77080271"><ele>1016</ele><time>2006-09-16T17:41:15Z</time></trkpt>
<trkpt lat="45.65558678" lon="2.77082870"><ele>1016</ele><time>2006-09-16T17:41:16Z</time></trkpt>
<trkpt lat="45.65553825" lon="2.77126682"><ele>1019</ele><time>2006-09-16T17:41:32Z</time></trkpt>
<trkpt lat="45.65546215" lon="2.77181248"><ele>1023</ele><time>2006-09-16T17:41:52Z</time></trkpt>
<trkpt lat="45.65541177" lon="2.77225396"><ele>1025</ele><time>2006-09-16T17:42:08Z</time></trkpt>
<trkpt lat="45.65536944" lon="2.77261128"><ele>1027</ele><time>2006-09-16T17:42:21Z</time></trkpt>
<trkpt lat="45.65547019" lon="2.77268722"><ele>1027</ele><time>2006-09-16T17:42:26Z</time></trkpt>
<trkpt lat="45.65611870" lon="2.77288428"><ele>1026</ele><time>2006-09-16T17:42:44Z</time></trkpt>
<trkpt lat="45.65672848" lon="2.77309198"><ele>1025</ele><time>2006-09-16T17:43:00Z</time></trkpt>
<trkpt lat="45.65735327" lon="2.77328828"><ele>1025</ele><time>2006-09-16T17:43:17Z</time></trkpt>
<trkpt lat="45.65787312" lon="2.77344008"><ele>1025</ele><time>2006-09-16T17:43:34Z</time></trkpt>
<trkpt lat="45.65839439" lon="2.77362088"><ele>1025</ele><time>2006-09-16T17:43:52Z</time></trkpt>
<trkpt lat="45.65869806" lon="2.77397962"><ele>1024</ele><time>2006-09-16T17:44:05Z</time></trkpt>
<trkpt lat="45.65869379" lon="2.77402312"><ele>1025</ele><time>2006-09-16T17:44:06Z</time></trkpt>
<trkpt lat="45.65857963" lon="2.77410694"><ele>1025</ele><time>2006-09-16T17:44:11Z</time></trkpt>
<trkpt lat="45.65801871" lon="2.77409303"><ele>1027</ele><time>2006-09-16T17:44:30Z</time></trkpt>
<trkpt lat="45.65752476" lon="2.77462243"><ele>1030</ele><time>2006-09-16T17:44:52Z</time></trkpt>
<trkpt lat="45.65696427" lon="2.77504287"><ele>1034</ele><time>2006-09-16T17:45:16Z</time></trkpt>
<trkpt lat="45.65627117" lon="2.77525459"><ele>1037</ele><time>2006-09-16T17:45:40Z</time></trkpt>
<trkpt lat="45.65591116" lon="2.77565206"><ele>1041</ele><time>2006-09-16T17:45:57Z</time></trkpt>
<trkpt lat="45.65572550" lon="2.77649034"><ele>1046</ele><time>2006-09-16T17:46:17Z</time></trkpt>
<trkpt lat="45.65541579" lon="2.77719978"><ele>1051</ele><time>2006-09-16T17:46:36Z</time></trkpt>
<trkpt lat="45.65514632" lon="2.77771594"><ele>1053</ele><time>2006-09-16T17:46:51Z</time></trkpt>
<trkpt lat="45.65498153" lon="2.77853896"><ele>1053</ele><time>2006-09-16T17:47:09Z</time></trkpt>
<trkpt lat="45.65474709" lon="2.77929291"><ele>1048</ele><time>2006-09-16T17:47:26Z</time></trkpt>
<trkpt lat="45.65476041" lon="2.77970379"><ele>1045</ele><time>2006-09-16T17:47:32Z</time></trkpt>
<trkpt lat="45.65479168" lon="2.77979189"><ele>1044</ele><time>2006-09-16T17:47:33Z</time></trkpt>
<trkpt lat="45.65486108" lon="2.77999666"><ele>1042</ele><time>2006-09-16T17:47:35Z</time></trkpt>
<trkpt lat="45.65492277" lon="2.78039052"><ele>1040</ele><time>2006-09-16T17:47:38Z</time></trkpt>
<trkpt lat="45.65488136" lon="2.78068967"><ele>1038</ele><time>2006-09-16T17:47:40Z</time></trkpt>
<trkpt lat="45.65479713" lon="2.78132359"><ele>1037</ele><time>2006-09-16T17:47:44Z</time></trkpt>
<trkpt lat="45.65478539" lon="2.78165200"><ele>1035</ele><time>2006-09-16T17:47:46Z</time></trkpt>
<trkpt lat="45.65479184" lon="2.78195961"><ele>1033</ele><time>2006-09-16T17:47:48Z</time></trkpt>
<trkpt lat="45.65476703" lon="2.78222214"><ele>1031</ele><time>2006-09-16T17:47:51Z</time></trkpt>
<trkpt lat="45.65431944" lon="2.78280275"><ele>1019</ele><time>2006-09-16T17:48:07Z</time></trkpt>
<trkpt lat="45.65419681" lon="2.78269571"><ele>1019</ele><time>2006-09-16T17:48:11Z</time></trkpt>
<trkpt lat="45.65401048" lon="2.78246756"><ele>1020</ele><time>2006-09-16T17:48:16Z</time></trkpt>
<trkpt lat="45.65372592" lon="2.78237678"><ele>1018</ele><time>2006-09-16T17:48:21Z</time></trkpt>
<trkpt lat="45.65371021" lon="2.78256573"><ele>1016</ele><time>2006-09-16T17:48:24Z</time></trkpt>
<trkpt lat="45.65359660" lon="2.78285346"><ele>1010</ele><time>2006-09-16T17:48:28Z</time></trkpt>
<trkpt lat="45.65361795" lon="2.78314228"><ele>1006</ele><time>2006-09-16T17:48:29Z</time></trkpt>
<trkpt lat="45.65354971" lon="2.78333416"><ele>1002</ele><time>2006-09-16T17:48:35Z</time></trkpt>
<trkpt lat="45.65354856" lon="2.78362279"><ele>1001</ele><time>2006-09-16T17:48:37Z</time></trkpt>
<trkpt lat="45.65341259" lon="2.78387826"><ele>1000</ele><time>2006-09-16T17:48:38Z</time></trkpt>
<trkpt lat="45.65321030" lon="2.78384455"><ele>1000</ele><time>2006-09-16T17:48:43Z</time></trkpt>
<trkpt lat="45.65300698" lon="2.78406741"><ele>1000</ele><time>2006-09-16T17:48:47Z</time></trkpt>
<trkpt lat="45.65282616" lon="2.78429044"><ele>1002</ele><time>2006-09-16T17:48:56Z</time></trkpt>
<trkpt lat="45.65270886" lon="2.78457175"><ele>1004</ele><time>2006-09-16T17:49:10Z</time></trkpt>
<trkpt lat="45.65263728" lon="2.78498070"><ele>1006</ele><time>2006-09-16T17:49:23Z</time></trkpt>
<trkpt lat="45.65250032" lon="2.78558412"><ele>1009</ele><time>2006-09-16T17:49:41Z</time></trkpt>
<trkpt lat="45.65214551" lon="2.78630404"><ele>1010</ele><time>2006-09-16T17:50:03Z</time></trkpt>
<trkpt lat="45.65177386" lon="2.78696386"><ele>1008</ele><time>2006-09-16T17:50:24Z</time></trkpt>
<trkpt lat="45.65176170" lon="2.78703796"><ele>1008</ele><time>2006-09-16T17:50:26Z</time></trkpt>
<trkpt lat="45.65192750" lon="2.78713812"><ele>1006</ele><time>2006-09-16T17:50:31Z</time></trkpt>
<trkpt lat="45.65223168" lon="2.78723653"><ele>1004</ele><time>2006-09-16T17:50:36Z</time></trkpt>
<trkpt lat="45.65239169" lon="2.78729386"><ele>1002</ele><time>2006-09-16T17:50:38Z</time></trkpt>
<trkpt lat="45.65275320" lon="2.78737868"><ele>998</ele><time>2006-09-16T17:50:42Z</time></trkpt>
<trkpt lat="45.65284574" lon="2.78739888"><ele>997</ele><time>2006-09-16T17:50:43Z</time></trkpt>
<trkpt lat="45.65317422" lon="2.78777037"><ele>987</ele><time>2006-09-16T17:50:48Z</time></trkpt>
<trkpt lat="45.65315729" lon="2.78818167"><ele>985</ele><time>2006-09-16T17:50:51Z</time></trkpt>
<trkpt lat="45.65309535" lon="2.78861929"><ele>983</ele><time>2006-09-16T17:50:54Z</time></trkpt>
<trkpt lat="45.65302854" lon="2.78892933"><ele>983</ele><time>2006-09-16T17:50:56Z</time></trkpt>
<trkpt lat="45.65293467" lon="2.78944666"><ele>983</ele><time>2006-09-16T17:51:00Z</time></trkpt>
<trkpt lat="45.65269754" lon="2.78975663"><ele>984</ele><time>2006-09-16T17:51:05Z</time></trkpt>
<trkpt lat="45.65212950" lon="2.78987884"><ele>986</ele><time>2006-09-16T17:51:21Z</time></trkpt>
<trkpt lat="45.65178341" lon="2.78987691"><ele>988</ele><time>2006-09-16T17:51:36Z</time></trkpt>
<trkpt lat="45.65143883" lon="2.78985972"><ele>990</ele><time>2006-09-16T17:51:53Z</time></trkpt>
<trkpt lat="45.65120364" lon="2.78991538"><ele>991</ele><time>2006-09-16T17:52:06Z</time></trkpt>
<trkpt lat="45.65096802" lon="2.78994774"><ele>994</ele><time>2006-09-16T17:52:20Z</time></trkpt>
<trkpt lat="45.65067910" lon="2.78968697"><ele>999</ele><time>2006-09-16T17:52:38Z</time></trkpt>
<trkpt lat="45.65037735" lon="2.78954398"><ele>1002</ele><time>2006-09-16T17:52:54Z</time></trkpt>
<trkpt lat="45.65009538" lon="2.78975017"><ele>1004</ele><time>2006-09-16T17:53:10Z</time></trkpt>
<trkpt lat="45.64970495" lon="2.79013130"><ele>1002</ele><time>2006-09-16T17:53:29Z</time></trkpt>
<trkpt lat="45.64949063" lon="2.79047429"><ele>998</ele><time>2006-09-16T17:53:38Z</time></trkpt>
<trkpt lat="45.64930220" lon="2.79065818"><ele>996</ele><time>2006-09-16T17:53:43Z</time></trkpt>
<trkpt lat="45.64889953" lon="2.79088911"><ele>994</ele><time>2006-09-16T17:53:52Z</time></trkpt>
<trkpt lat="45.64848388" lon="2.79105649"><ele>992</ele><time>2006-09-16T17:54:00Z</time></trkpt>
<trkpt lat="45.64841397" lon="2.79107292"><ele>992</ele><time>2006-09-16T17:54:01Z</time></trkpt>
<trkpt lat="45.64826963" lon="2.79113051"><ele>992</ele><time>2006-09-16T17:54:03Z</time></trkpt>
<trkpt lat="45.64782556" lon="2.79141541"><ele>989</ele><time>2006-09-16T17:54:09Z</time></trkpt>
<trkpt lat="45.64758299" lon="2.79157852"><ele>987</ele><time>2006-09-16T17:54:12Z</time></trkpt>
<trkpt lat="45.64750353" lon="2.79163551"><ele>987</ele><time>2006-09-16T17:54:13Z</time></trkpt>
<trkpt lat="45.64713196" lon="2.79182939"><ele>987</ele><time>2006-09-16T17:54:19Z</time></trkpt>
<trkpt lat="45.64707538" lon="2.79185730"><ele>987</ele><time>2006-09-16T17:54:20Z</time></trkpt>
<trkpt lat="45.64690925" lon="2.79212628"><ele>985</ele><time>2006-09-16T17:54:24Z</time></trkpt>
<trkpt lat="45.64675804" lon="2.79235695"><ele>985</ele><time>2006-09-16T17:54:27Z</time></trkpt>
<trkpt lat="45.64679333" lon="2.79272332"><ele>983</ele><time>2006-09-16T17:54:31Z</time></trkpt>
<trkpt lat="45.64700665" lon="2.79302666"><ele>981</ele><time>2006-09-16T17:54:35Z</time></trkpt>
<trkpt lat="45.64709893" lon="2.79319136"><ele>980</ele><time>2006-09-16T17:54:37Z</time></trkpt>
<trkpt lat="45.64714411" lon="2.79369168"><ele>979</ele><time>2006-09-16T17:54:42Z</time></trkpt>
<trkpt lat="45.64708091" lon="2.79433323"><ele>979</ele><time>2006-09-16T17:54:49Z</time></trkpt>
<trkpt lat="45.64712198" lon="2.79468594"><ele>978</ele><time>2006-09-16T17:54:53Z</time></trkpt>
<trkpt lat="45.64726213" lon="2.79529681"><ele>979</ele><time>2006-09-16T17:55:00Z</time></trkpt>
<trkpt lat="45.64722776" lon="2.79554911"><ele>980</ele><time>2006-09-16T17:55:03Z</time></trkpt>
<trkpt lat="45.64690255" lon="2.79623634"><ele>982</ele><time>2006-09-16T17:55:13Z</time></trkpt>
<trkpt lat="45.64689308" lon="2.79675200"><ele>985</ele><time>2006-09-16T17:55:25Z</time></trkpt>
<trkpt lat="45.64697958" lon="2.79747083"><ele>988</ele><time>2006-09-16T17:55:46Z</time></trkpt>
<trkpt lat="45.64723640" lon="2.79783947"><ele>990</ele><time>2006-09-16T17:56:01Z</time></trkpt>
<trkpt lat="45.64771961" lon="2.79798464"><ele>991</ele><time>2006-09-16T17:56:20Z</time></trkpt>
<trkpt lat="45.64810200" lon="2.79799143"><ele>991</ele><time>2006-09-16T17:56:35Z</time></trkpt>
<trkpt lat="45.64860885" lon="2.79786679"><ele>990</ele><time>2006-09-16T17:56:51Z</time></trkpt>
<trkpt lat="45.64912249" lon="2.79780049"><ele>989</ele><time>2006-09-16T17:57:02Z</time></trkpt>
<trkpt lat="45.64982632" lon="2.79804105"><ele>986</ele><time>2006-09-16T17:57:15Z</time></trkpt>
<trkpt lat="45.64981132" lon="2.79832042"><ele>988</ele><time>2006-09-16T17:57:23Z</time></trkpt>
<trkpt lat="45.64968743" lon="2.79878176"><ele>991</ele><time>2006-09-16T17:57:38Z</time></trkpt>
<trkpt lat="45.64954151" lon="2.79897940"><ele>992</ele><time>2006-09-16T17:57:50Z</time></trkpt>
<trkpt lat="45.64941427" lon="2.79910756"><ele>994</ele><time>2006-09-16T17:57:59Z</time></trkpt>
<trkpt lat="45.64921671" lon="2.79933153"><ele>996</ele><time>2006-09-16T17:58:14Z</time></trkpt>
<trkpt lat="45.64914211" lon="2.79942012"><ele>997</ele><time>2006-09-16T17:58:20Z</time></trkpt>
<trkpt lat="45.64892518" lon="2.79969262"><ele>1001</ele><time>2006-09-16T17:58:38Z</time></trkpt>
<trkpt lat="45.64873441" lon="2.79992203"><ele>1004</ele><time>2006-09-16T17:58:53Z</time></trkpt>
<trkpt lat="45.64851204" lon="2.80021976"><ele>1008</ele><time>2006-09-16T17:59:11Z</time></trkpt>
<trkpt lat="45.64836167" lon="2.80039921"><ele>1010</ele><time>2006-09-16T17:59:23Z</time></trkpt>
<trkpt lat="45.64813376" lon="2.80070934"><ele>1014</ele><time>2006-09-16T17:59:44Z</time></trkpt>
<trkpt lat="45.64804978" lon="2.80084832"><ele>1015</ele><time>2006-09-16T17:59:56Z</time></trkpt>
<trkpt lat="45.64792447" lon="2.80105979"><ele>1018</ele><time>2006-09-16T18:00:23Z</time></trkpt>
<trkpt lat="45.64775993" lon="2.80109692"><ele>1019</ele><time>2006-09-16T18:00:46Z</time></trkpt>
<trkpt lat="45.64761836" lon="2.80139021"><ele>1024</ele><time>2006-09-16T18:01:04Z</time></trkpt>
<trkpt lat="45.64767276" lon="2.80171065"><ele>1028</ele><time>2006-09-16T18:01:24Z</time></trkpt>
<trkpt lat="45.64778248" lon="2.80197979"><ele>1032</ele><time>2006-09-16T18:01:49Z</time></trkpt>
<trkpt lat="45.64776111" lon="2.80219948"><ele>1036</ele><time>2006-09-16T18:02:09Z</time></trkpt>
<trkpt lat="45.64764527" lon="2.80229822"><ele>1037</ele><time>2006-09-16T18:02:26Z</time></trkpt>
<trkpt lat="45.64744226" lon="2.80246753"><ele>1039</ele><time>2006-09-16T18:02:48Z</time></trkpt>
<trkpt lat="45.64741845" lon="2.80251958"><ele>1040</ele><time>2006-09-16T18:03:01Z</time></trkpt>
<trkpt lat="45.64735550" lon="2.80260055"><ele>1041</ele><time>2006-09-16T18:03:07Z</time></trkpt>
<trkpt lat="45.64718938" lon="2.80271086"><ele>1042</ele><time>2006-09-16T18:03:18Z</time></trkpt>
<trkpt lat="45.64689240" lon="2.80290951"><ele>1045</ele><time>2006-09-16T18:03:36Z</time></trkpt>
<trkpt lat="45.64664782" lon="2.80322475"><ele>1048</ele><time>2006-09-16T18:03:57Z</time></trkpt>
<trkpt lat="45.64656526" lon="2.80336800"><ele>1050</ele><time>2006-09-16T18:04:15Z</time></trkpt>
<trkpt lat="45.64642562" lon="2.80350513"><ele>1051</ele><time>2006-09-16T18:04:37Z</time></trkpt>
<trkpt lat="45.64628430" lon="2.80358383"><ele>1052</ele><time>2006-09-16T18:04:55Z</time></trkpt>
<trkpt lat="45.64618271" lon="2.80365240"><ele>1053</ele><time>2006-09-16T18:05:06Z</time></trkpt>
<trkpt lat="45.64590694" lon="2.80381224"><ele>1054</ele><time>2006-09-16T18:05:27Z</time></trkpt>
<trkpt lat="45.64564199" lon="2.80394317"><ele>1057</ele><time>2006-09-16T18:05:46Z</time></trkpt>
<trkpt lat="45.64540252" lon="2.80415280"><ele>1060</ele><time>2006-09-16T18:06:04Z</time></trkpt>
<trkpt lat="45.64507093" lon="2.80422228"><ele>1064</ele><time>2006-09-16T18:06:23Z</time></trkpt>
<trkpt lat="45.64481319" lon="2.80426662"><ele>1067</ele><time>2006-09-16T18:06:38Z</time></trkpt>
<trkpt lat="45.64449468" lon="2.80421466"><ele>1069</ele><time>2006-09-16T18:06:56Z</time></trkpt>
<trkpt lat="45.64446853" lon="2.80418004"><ele>1069</ele><time>2006-09-16T18:06:58Z</time></trkpt>
<trkpt lat="45.64445218" lon="2.80413821"><ele>1068</ele><time>2006-09-16T18:07:00Z</time></trkpt>
<trkpt lat="45.64439837" lon="2.80402766"><ele>1068</ele><time>2006-09-16T18:07:06Z</time></trkpt>
<trkpt lat="45.64439258" lon="2.80400704"><ele>1068</ele><time>2006-09-16T18:07:27Z</time></trkpt>
<trkpt lat="45.64440583" lon="2.80401265"><ele>1068</ele><time>2006-09-16T18:10:41Z</time></trkpt>
<trkpt lat="45.64438588" lon="2.80401098"><ele>1068</ele><time>2006-09-16T18:10:53Z</time></trkpt>
<trkpt lat="45.64434037" lon="2.80396521"><ele>1069</ele><time>2006-09-16T18:10:57Z</time></trkpt>
<trkpt lat="45.64402169" lon="2.80370638"><ele>1070</ele><time>2006-09-16T18:11:17Z</time></trkpt>
<trkpt lat="45.64357024" lon="2.80356087"><ele>1076</ele><time>2006-09-16T18:11:41Z</time></trkpt>
<trkpt lat="45.64315290" lon="2.80341410"><ele>1079</ele><time>2006-09-16T18:12:01Z</time></trkpt>
<trkpt lat="45.64247740" lon="2.80324085"><ele>1083</ele><time>2006-09-16T18:12:36Z</time></trkpt>
<trkpt lat="45.64186771" lon="2.80321394"><ele>1087</ele><time>2006-09-16T18:13:05Z</time></trkpt>
<trkpt lat="45.64139547" lon="2.80334361"><ele>1092</ele><time>2006-09-16T18:13:27Z</time></trkpt>
<trkpt lat="45.64094503" lon="2.80342567"><ele>1094</ele><time>2006-09-16T18:13:45Z</time></trkpt>
<trkpt lat="45.64024908" lon="2.80375483"><ele>1102</ele><time>2006-09-16T18:14:15Z</time></trkpt>
<trkpt lat="45.63988723" lon="2.80406445"><ele>1108</ele><time>2006-09-16T18:14:33Z</time></trkpt>
<trkpt lat="45.63942438" lon="2.80473610"><ele>1111</ele><time>2006-09-16T18:15:01Z</time></trkpt>
<trkpt lat="45.63906547" lon="2.80507196"><ele>1108</ele><time>2006-09-16T18:15:22Z</time></trkpt>
<trkpt lat="45.63866066" lon="2.80527303"><ele>1108</ele><time>2006-09-16T18:15:40Z</time></trkpt>
<trkpt lat="45.63824672" lon="2.80572432"><ele>1106</ele><time>2006-09-16T18:16:04Z</time></trkpt>
<trkpt lat="45.63808026" lon="2.80575475"><ele>1105</ele><time>2006-09-16T18:16:11Z</time></trkpt>
<trkpt lat="45.63775888" lon="2.80577837"><ele>1105</ele><time>2006-09-16T18:16:21Z</time></trkpt>
<trkpt lat="45.63753370" lon="2.80584058"><ele>1106</ele><time>2006-09-16T18:16:42Z</time></trkpt>
<trkpt lat="45.63705777" lon="2.80670222"><ele>1116</ele><time>2006-09-16T18:17:03Z</time></trkpt>
<trkpt lat="45.63621151" lon="2.80704841"><ele>1129</ele><time>2006-09-16T18:17:26Z</time></trkpt>
<trkpt lat="45.63550509" lon="2.80725486"><ele>1133</ele><time>2006-09-16T18:17:57Z</time></trkpt>
<trkpt lat="45.63469866" lon="2.80754789"><ele>1131</ele><time>2006-09-16T18:18:29Z</time></trkpt>
<trkpt lat="45.63437001" lon="2.80766674"><ele>1128</ele><time>2006-09-16T18:18:41Z</time></trkpt>
<trkpt lat="45.63420564" lon="2.80772760"><ele>1127</ele><time>2006-09-16T18:18:47Z</time></trkpt>
<trkpt lat="45.63393231" lon="2.80782960"><ele>1126</ele><time>2006-09-16T18:18:56Z</time></trkpt>
<trkpt lat="45.63244762" lon="2.80856906"><ele>1124</ele><time>2006-09-16T18:19:04Z</time></trkpt>
<trkpt lat="45.63229113" lon="2.80863846"><ele>1124</ele><time>2006-09-16T18:19:06Z</time></trkpt>
<trkpt lat="45.63089261" lon="2.80923047"><ele>1124</ele><time>2006-09-16T18:19:28Z</time></trkpt>
<trkpt lat="45.63010085" lon="2.80957044"><ele>1126</ele><time>2006-09-16T18:19:44Z</time></trkpt>
<trkpt lat="45.62969710" lon="2.80955678"><ele>1126</ele><time>2006-09-16T18:19:58Z</time></trkpt>
<trkpt lat="45.62951789" lon="2.80945301"><ele>1123</ele><time>2006-09-16T18:20:09Z</time></trkpt>
<trkpt lat="45.62928890" lon="2.80944647"><ele>1124</ele><time>2006-09-16T18:20:26Z</time></trkpt>
<trkpt lat="45.62891532" lon="2.80978745"><ele>1131</ele><time>2006-09-16T18:20:53Z</time></trkpt>
<trkpt lat="45.62867023" lon="2.81017176"><ele>1136</ele><time>2006-09-16T18:21:13Z</time></trkpt>
<trkpt lat="45.62852045" lon="2.81067518"><ele>1145</ele><time>2006-09-16T18:21:35Z</time></trkpt>
<trkpt lat="45.62842567" lon="2.81092438"><ele>1148</ele><time>2006-09-16T18:21:54Z</time></trkpt>
<trkpt lat="45.62831213" lon="2.81117986"><ele>1151</ele><time>2006-09-16T18:21:57Z</time></trkpt>
<trkpt lat="45.62826010" lon="2.81145637"><ele>1156</ele><time>2006-09-16T18:22:18Z</time></trkpt>
<trkpt lat="45.62817515" lon="2.81165953"><ele>1157</ele><time>2006-09-16T18:22:31Z</time></trkpt>
<trkpt lat="45.62810687" lon="2.81185129"><ele>1159</ele><time>2006-09-16T18:22:34Z</time></trkpt>
<trkpt lat="45.62797002" lon="2.81229891"><ele>1161</ele><time>2006-09-16T18:22:48Z</time></trkpt>
<trkpt lat="45.62798660" lon="2.81266713"><ele>1166</ele><time>2006-09-16T18:23:19Z</time></trkpt>
<trkpt lat="45.62788225" lon="2.81291189"><ele>1164</ele><time>2006-09-16T18:23:35Z</time></trkpt>
<trkpt lat="45.62782047" lon="2.81308958"><ele>1164</ele><time>2006-09-16T18:23:48Z</time></trkpt>
<trkpt lat="45.62781192" lon="2.81333350"><ele>1163</ele><time>2006-09-16T18:24:07Z</time></trkpt>
<trkpt lat="45.62782508" lon="2.81355671"><ele>1159</ele><time>2006-09-16T18:24:22Z</time></trkpt>
<trkpt lat="45.62782089" lon="2.81373440"><ele>1156</ele><time>2006-09-16T18:24:34Z</time></trkpt>
<trkpt lat="45.62769346" lon="2.81386730"><ele>1158</ele><time>2006-09-16T18:25:36Z</time></trkpt>
<trkpt lat="45.62755824" lon="2.81393024"><ele>1162</ele><time>2006-09-16T18:25:48Z</time></trkpt>
<trkpt lat="45.62737845" lon="2.81389663"><ele>1170</ele><time>2006-09-16T18:25:50Z</time></trkpt>
<trkpt lat="45.62724405" lon="2.81376725"><ele>1177</ele><time>2006-09-16T18:26:07Z</time></trkpt>
<trkpt lat="45.62697443" lon="2.81370080"><ele>1187</ele><time>2006-09-16T18:26:11Z</time></trkpt>
<trkpt lat="45.62674938" lon="2.81373091"><ele>1194</ele><time>2006-09-16T18:26:29Z</time></trkpt>
<trkpt lat="45.62647977" lon="2.81366447"><ele>1197</ele><time>2006-09-16T18:26:44Z</time></trkpt>
<trkpt lat="45.62618780" lon="2.81356578"><ele>1200</ele><time>2006-09-16T18:27:05Z</time></trkpt>
<trkpt lat="45.62591777" lon="2.81359551"><ele>1204</ele><time>2006-09-16T18:27:30Z</time></trkpt>
<trkpt lat="45.62578160" lon="2.81388283"><ele>1211</ele><time>2006-09-16T18:27:49Z</time></trkpt>
<trkpt lat="45.62575829" lon="2.81407496"><ele>1215</ele><time>2006-09-16T18:27:59Z</time></trkpt>
<trkpt lat="45.62591490" lon="2.81426865"><ele>1215</ele><time>2006-09-16T18:28:13Z</time></trkpt>
<trkpt lat="45.62604876" lon="2.81452625"><ele>1214</ele><time>2006-09-16T18:28:38Z</time></trkpt>
<trkpt lat="45.62613790" lon="2.81471936"><ele>1208</ele><time>2006-09-16T18:28:55Z</time></trkpt>
<trkpt lat="45.62620401" lon="2.81504049"><ele>1198</ele><time>2006-09-16T18:29:05Z</time></trkpt>
<trkpt lat="45.62579876" lon="2.81513315"><ele>1224</ele><time>2006-09-16T18:29:18Z</time></trkpt>
<trkpt lat="45.62555232" lon="2.81490662"><ele>1240</ele><time>2006-09-16T18:30:22Z</time></trkpt>
<trkpt lat="45.62544027" lon="2.81480949"><ele>1241</ele><time>2006-09-16T18:30:55Z</time></trkpt>
<trkpt lat="45.62525452" lon="2.81476110"><ele>1244</ele><time>2006-09-16T18:32:55Z</time></trkpt>
<trkpt lat="45.62511195" lon="2.81482958"><ele>1250</ele><time>2006-09-16T18:33:14Z</time></trkpt>
<trkpt lat="45.62510382" lon="2.81483268"><ele>1251</ele><time>2006-09-16T18:33:15Z</time></trkpt>
<trkpt lat="45.62499267" lon="2.81487778"><ele>1253</ele><time>2006-09-16T18:33:29Z</time></trkpt>
<trkpt lat="45.62480810" lon="2.81494601"><ele>1256</ele><time>2006-09-16T18:33:57Z</time></trkpt>
<trkpt lat="45.62463820" lon="2.81492589"><ele>1255</ele><time>2006-09-16T18:34:42Z</time></trkpt>
<trkpt lat="45.62461892" lon="2.81493980"><ele>1256</ele><time>2006-09-16T18:34:44Z</time></trkpt>
<trkpt lat="45.62449252" lon="2.81510048"><ele>1260</ele><time>2006-09-16T18:34:55Z</time></trkpt>
<trkpt lat="45.62448104" lon="2.81511968"><ele>1260</ele><time>2006-09-16T18:34:56Z</time></trkpt>
<trkpt lat="45.62426870" lon="2.81528016"><ele>1261</ele><time>2006-09-16T18:35:12Z</time></trkpt>
<trkpt lat="45.62411017" lon="2.81553522"><ele>1263</ele><time>2006-09-16T18:35:31Z</time></trkpt>
<trkpt lat="45.62390611" lon="2.81591811"><ele>1258</ele><time>2006-09-16T18:35:48Z</time></trkpt>
<trkpt lat="45.62360723" lon="2.81594153"><ele>1256</ele><time>2006-09-16T18:36:05Z</time></trkpt>
<trkpt lat="45.62313809" lon="2.81570331"><ele>1263</ele><time>2006-09-16T18:36:29Z</time></trkpt>
<trkpt lat="45.62284498" lon="2.81540156"><ele>1269</ele><time>2006-09-16T18:36:46Z</time></trkpt>
<trkpt lat="45.62253828" lon="2.81491793"><ele>1277</ele><time>2006-09-16T18:37:07Z</time></trkpt>
<trkpt lat="45.62234877" lon="2.81468231"><ele>1279</ele><time>2006-09-16T18:37:26Z</time></trkpt>
<trkpt lat="45.62215473" lon="2.81472020"><ele>1279</ele><time>2006-09-16T18:37:41Z</time></trkpt>
<trkpt lat="45.62201525" lon="2.81505313"><ele>1279</ele><time>2006-09-16T18:38:00Z</time></trkpt>
<trkpt lat="45.62204844" lon="2.81542378"><ele>1277</ele><time>2006-09-16T18:38:17Z</time></trkpt>
<trkpt lat="45.62202824" lon="2.81583633"><ele>1274</ele><time>2006-09-16T18:38:33Z</time></trkpt>
<trkpt lat="45.62181878" lon="2.81613615"><ele>1276</ele><time>2006-09-16T18:38:51Z</time></trkpt>
<trkpt lat="45.62149465" lon="2.81633715"><ele>1284</ele><time>2006-09-16T18:39:15Z</time></trkpt>
<trkpt lat="45.62120405" lon="2.81651661"><ele>1288</ele><time>2006-09-16T18:39:32Z</time></trkpt>
<trkpt lat="45.62082963" lon="2.81676974"><ele>1291</ele><time>2006-09-16T18:39:50Z</time></trkpt>
<trkpt lat="45.62026243" lon="2.81712555"><ele>1291</ele><time>2006-09-16T18:40:07Z</time></trkpt>
<trkpt lat="45.62003285" lon="2.81718791"><ele>1291</ele><time>2006-09-16T18:40:11Z</time></trkpt>
<trkpt lat="45.61979824" lon="2.81737056"><ele>1290</ele><time>2006-09-16T18:40:19Z</time></trkpt>
<trkpt lat="45.61977200" lon="2.81756066"><ele>1289</ele><time>2006-09-16T18:40:22Z</time></trkpt>
<trkpt lat="45.61968475" lon="2.81792343"><ele>1287</ele><time>2006-09-16T18:40:26Z</time></trkpt>
<trkpt lat="45.61945081" lon="2.81891626"><ele>1280</ele><time>2006-09-16T18:40:35Z</time></trkpt>
<trkpt lat="45.61943438" lon="2.81903059"><ele>1278</ele><time>2006-09-16T18:40:36Z</time></trkpt>
<trkpt lat="45.61941125" lon="2.81938288"><ele>1275</ele><time>2006-09-16T18:40:39Z</time></trkpt>
<trkpt lat="45.61948568" lon="2.81973358"><ele>1271</ele><time>2006-09-16T18:40:42Z</time></trkpt>
<trkpt lat="45.61977125" lon="2.82003307"><ele>1270</ele><time>2006-09-16T18:40:46Z</time></trkpt>
<trkpt lat="45.62030844" lon="2.82034948"><ele>1273</ele><time>2006-09-16T18:40:53Z</time></trkpt>
<trkpt lat="45.62049402" lon="2.82035300"><ele>1274</ele><time>2006-09-16T18:40:59Z</time></trkpt>
<trkpt lat="45.62046342" lon="2.82033934"><ele>1274</ele><time>2006-09-16T18:46:09Z</time></trkpt>
<trkpt lat="45.62045638" lon="2.82035929"><ele>1274</ele><time>2006-09-16T18:46:30Z</time></trkpt>
<trkpt lat="45.62051011" lon="2.82046851"><ele>1274</ele><time>2006-09-16T18:46:36Z</time></trkpt>
<trkpt lat="45.62050274" lon="2.82051126"><ele>1274</ele><time>2006-09-16T18:46:38Z</time></trkpt>
<trkpt lat="45.62038908" lon="2.82086170"><ele>1274</ele><time>2006-09-16T18:46:50Z</time></trkpt>
<trkpt lat="45.62003964" lon="2.82112640"><ele>1271</ele><time>2006-09-16T18:47:02Z</time></trkpt>
<trkpt lat="45.61992925" lon="2.82117527"><ele>1268</ele><time>2006-09-16T18:47:05Z</time></trkpt>
<trkpt lat="45.61976387" lon="2.82124551"><ele>1264</ele><time>2006-09-16T18:47:10Z</time></trkpt>
<trkpt lat="45.61974116" lon="2.82125238"><ele>1264</ele><time>2006-09-16T18:47:11Z</time></trkpt>
<trkpt lat="45.61968684" lon="2.82132212"><ele>1262</ele><time>2006-09-16T18:47:14Z</time></trkpt>
<trkpt lat="45.61967242" lon="2.82146478"><ele>1262</ele><time>2006-09-16T18:47:17Z</time></trkpt>
<trkpt lat="45.61967092" lon="2.82153946"><ele>1262</ele><time>2006-09-16T18:47:18Z</time></trkpt>
<trkpt lat="45.61966295" lon="2.82177634"><ele>1265</ele><time>2006-09-16T18:47:21Z</time></trkpt>
<trkpt lat="45.61940186" lon="2.82217414"><ele>1263</ele><time>2006-09-16T18:47:29Z</time></trkpt>
<trkpt lat="45.61932709" lon="2.82216802"><ele>1261</ele><time>2006-09-16T18:47:33Z</time></trkpt>
<trkpt lat="45.61913833" lon="2.82217666"><ele>1257</ele><time>2006-09-16T18:47:40Z</time></trkpt>
<trkpt lat="45.61905736" lon="2.82221932"><ele>1256</ele><time>2006-09-16T18:47:44Z</time></trkpt>
<trkpt lat="45.61898553" lon="2.82229744"><ele>1256</ele><time>2006-09-16T18:47:50Z</time></trkpt>
<trkpt lat="45.61899961" lon="2.82239065"><ele>1257</ele><time>2006-09-16T18:47:55Z</time></trkpt>
<trkpt lat="45.61901612" lon="2.82254127"><ele>1259</ele><time>2006-09-16T18:48:10Z</time></trkpt>
<trkpt lat="45.61902962" lon="2.82266750"><ele>1260</ele><time>2006-09-16T18:48:22Z</time></trkpt>
<trkpt lat="45.61904336" lon="2.82287579"><ele>1263</ele><time>2006-09-16T18:48:36Z</time></trkpt>
<trkpt lat="45.61902425" lon="2.82300839"><ele>1265</ele><time>2006-09-16T18:48:47Z</time></trkpt>
<trkpt lat="45.61905275" lon="2.82322808"><ele>1268</ele><time>2006-09-16T18:49:05Z</time></trkpt>
<trkpt lat="45.61904755" lon="2.82331601"><ele>1270</ele><time>2006-09-16T18:49:17Z</time></trkpt>
<trkpt lat="45.61898125" lon="2.82348926"><ele>1271</ele><time>2006-09-16T18:49:28Z</time></trkpt>
<trkpt lat="45.61897287" lon="2.82353947"><ele>1271</ele><time>2006-09-16T18:49:32Z</time></trkpt>
<trkpt lat="45.61896918" lon="2.82355095"><ele>1271</ele><time>2006-09-16T18:49:33Z</time></trkpt>
<trkpt lat="45.61893524" lon="2.82360602"><ele>1271</ele><time>2006-09-16T18:49:37Z</time></trkpt>
<trkpt lat="45.61879501" lon="2.82368816"><ele>1270</ele><time>2006-09-16T18:49:45Z</time></trkpt>
<trkpt lat="45.61848152" lon="2.82385890"><ele>1268</ele><time>2006-09-16T18:49:54Z</time></trkpt>
<trkpt lat="45.61836284" lon="2.82395328"><ele>1267</ele><time>2006-09-16T18:49:57Z</time></trkpt>
<trkpt lat="45.61745960" lon="2.82433994"><ele>1264</ele><time>2006-09-16T18:50:14Z</time></trkpt>
<trkpt lat="45.61634540" lon="2.82471637"><ele>1262</ele><time>2006-09-16T18:50:30Z</time></trkpt>
<trkpt lat="45.61627105" lon="2.82475149"><ele>1262</ele><time>2006-09-16T18:50:31Z</time></trkpt>
<trkpt lat="45.61489994" lon="2.82535046"><ele>1258</ele><time>2006-09-16T18:50:49Z</time></trkpt>
<trkpt lat="45.61401514" lon="2.82589629"><ele>1259</ele><time>2006-09-16T18:51:02Z</time></trkpt>
<trkpt lat="45.61290781" lon="2.82639401"><ele>1255</ele><time>2006-09-16T18:51:18Z</time></trkpt>
<trkpt lat="45.61283187" lon="2.82640415"><ele>1255</ele><time>2006-09-16T18:51:19Z</time></trkpt>
<trkpt lat="45.61252610" lon="2.82632796"><ele>1256</ele><time>2006-09-16T18:51:23Z</time></trkpt>
<trkpt lat="45.61211413" lon="2.82606267"><ele>1256</ele><time>2006-09-16T18:51:29Z</time></trkpt>
<trkpt lat="45.61198974" lon="2.82550134"><ele>1252</ele><time>2006-09-16T18:51:35Z</time></trkpt>
<trkpt lat="45.61202830" lon="2.82511384"><ele>1250</ele><time>2006-09-16T18:51:39Z</time></trkpt>
<trkpt lat="45.61175329" lon="2.82452661"><ele>1253</ele><time>2006-09-16T18:51:47Z</time></trkpt>
<trkpt lat="45.61115038" lon="2.82448931"><ele>1259</ele><time>2006-09-16T18:51:56Z</time></trkpt>
<trkpt lat="45.61084351" lon="2.82465569"><ele>1260</ele><time>2006-09-16T18:52:00Z</time></trkpt>
<trkpt lat="45.61051285" lon="2.82482970"><ele>1258</ele><time>2006-09-16T18:52:04Z</time></trkpt>
<trkpt lat="45.61025200" lon="2.82495484"><ele>1255</ele><time>2006-09-16T18:52:07Z</time></trkpt>
<trkpt lat="45.60903001" lon="2.82527427"><ele>1259</ele><time>2006-09-16T18:52:20Z</time></trkpt>
<trkpt lat="45.60864461" lon="2.82536672"><ele>1259</ele><time>2006-09-16T18:52:24Z</time></trkpt>
<trkpt lat="45.60844906" lon="2.82534988"><ele>1257</ele><time>2006-09-16T18:52:26Z</time></trkpt>
<trkpt lat="45.60796266" lon="2.82529078"><ele>1254</ele><time>2006-09-16T18:52:31Z</time></trkpt>
<trkpt lat="45.60738531" lon="2.82510605"><ele>1249</ele><time>2006-09-16T18:52:37Z</time></trkpt>
<trkpt lat="45.60700326" lon="2.82517545"><ele>1249</ele><time>2006-09-16T18:52:41Z</time></trkpt>
<trkpt lat="45.60622400" lon="2.82546915"><ele>1251</ele><time>2006-09-16T18:52:49Z</time></trkpt>
<trkpt lat="45.60531565" lon="2.82567082"><ele>1249</ele><time>2006-09-16T18:52:58Z</time></trkpt>
<trkpt lat="45.60500527" lon="2.82573360"><ele>1247</ele><time>2006-09-16T18:53:01Z</time></trkpt>
<trkpt lat="45.60469128" lon="2.82576872"><ele>1245</ele><time>2006-09-16T18:53:04Z</time></trkpt>
<trkpt lat="45.60370063" lon="2.82537720"><ele>1237</ele><time>2006-09-16T18:53:14Z</time></trkpt>
<trkpt lat="45.60317097" lon="2.82540151"><ele>1241</ele><time>2006-09-16T18:53:19Z</time></trkpt>
<trkpt lat="45.60251693" lon="2.82554015"><ele>1244</ele><time>2006-09-16T18:53:25Z</time></trkpt>
<trkpt lat="45.60218828" lon="2.82551735"><ele>1240</ele><time>2006-09-16T18:53:28Z</time></trkpt>
<trkpt lat="45.60175795" lon="2.82541241"><ele>1230</ele><time>2006-09-16T18:53:32Z</time></trkpt>
<trkpt lat="45.60142209" lon="2.82546781"><ele>1229</ele><time>2006-09-16T18:53:35Z</time></trkpt>
<trkpt lat="45.60108346" lon="2.82588883"><ele>1233</ele><time>2006-09-16T18:53:39Z</time></trkpt>
<trkpt lat="45.60103853" lon="2.82604205"><ele>1231</ele><time>2006-09-16T18:53:40Z</time></trkpt>
<trkpt lat="45.60100911" lon="2.82620290"><ele>1230</ele><time>2006-09-16T18:53:41Z</time></trkpt>
<trkpt lat="45.60072061" lon="2.82688578"><ele>1207</ele><time>2006-09-16T18:53:46Z</time></trkpt>
<trkpt lat="45.60019280" lon="2.82691930"><ele>1195</ele><time>2006-09-16T18:53:51Z</time></trkpt>
<trkpt lat="45.59994696" lon="2.82663340"><ele>1199</ele><time>2006-09-16T18:53:54Z</time></trkpt>
<trkpt lat="45.59980086" lon="2.82641463"><ele>1200</ele><time>2006-09-16T18:53:56Z</time></trkpt>
<trkpt lat="45.59964043" lon="2.82622377"><ele>1200</ele><time>2006-09-16T18:53:58Z</time></trkpt>
<trkpt lat="45.59834870" lon="2.82538198"><ele>1212</ele><time>2006-09-16T18:54:12Z</time></trkpt>
<trkpt lat="45.59760170" lon="2.82467614"><ele>1204</ele><time>2006-09-16T18:54:21Z</time></trkpt>
<trkpt lat="45.59633846" lon="2.82338147"><ele>1197</ele><time>2006-09-16T18:54:37Z</time></trkpt>
<trkpt lat="45.59471816" lon="2.82167316"><ele>1195</ele><time>2006-09-16T18:54:58Z</time></trkpt>
<trkpt lat="45.59440442" lon="2.82176846"><ele>1197</ele><time>2006-09-16T18:55:02Z</time></trkpt>
<trkpt lat="45.59426914" lon="2.82244597"><ele>1199</ele><time>2006-09-16T18:55:08Z</time></trkpt>
<trkpt lat="45.59443904" lon="2.82412025"><ele>1190</ele><time>2006-09-16T18:55:24Z</time></trkpt>
<trkpt lat="45.59446486" lon="2.82428940"><ele>1189</ele><time>2006-09-16T18:55:28Z</time></trkpt>
<trkpt lat="45.59441758" lon="2.82431396"><ele>1187</ele><time>2006-09-16T18:55:32Z</time></trkpt>
<trkpt lat="45.59434148" lon="2.82415504"><ele>1184</ele><time>2006-09-16T18:55:36Z</time></trkpt>
<trkpt lat="45.59427006" lon="2.82402034"><ele>1182</ele><time>2006-09-16T18:55:39Z</time></trkpt>
<trkpt lat="45.59419638" lon="2.82387374"><ele>1180</ele><time>2006-09-16T18:55:42Z</time></trkpt>
<trkpt lat="45.59416437" lon="2.82381230"><ele>1180</ele><time>2006-09-16T18:55:43Z</time></trkpt>
<trkpt lat="45.59401852" lon="2.82343419"><ele>1176</ele><time>2006-09-16T18:55:48Z</time></trkpt>
<trkpt lat="45.59385457" lon="2.82297897"><ele>1171</ele><time>2006-09-16T18:55:54Z</time></trkpt>
<trkpt lat="45.59379992" lon="2.82282718"><ele>1170</ele><time>2006-09-16T18:55:56Z</time></trkpt>
<trkpt lat="45.59377268" lon="2.82275132"><ele>1169</ele><time>2006-09-16T18:55:57Z</time></trkpt>
<trkpt lat="45.59369071" lon="2.82252367"><ele>1166</ele><time>2006-09-16T18:56:00Z</time></trkpt>
<trkpt lat="45.59358576" lon="2.82217456"><ele>1162</ele><time>2006-09-16T18:56:04Z</time></trkpt>
<trkpt lat="45.59352994" lon="2.82201648"><ele>1160</ele><time>2006-09-16T18:56:06Z</time></trkpt>
<trkpt lat="45.59347252" lon="2.82186376"><ele>1158</ele><time>2006-09-16T18:56:08Z</time></trkpt>
<trkpt lat="45.59337756" lon="2.82155925"><ele>1154</ele><time>2006-09-16T18:56:12Z</time></trkpt>
<trkpt lat="45.59329960" lon="2.82135733"><ele>1150</ele><time>2006-09-16T18:56:15Z</time></trkpt>
<trkpt lat="45.59321193" lon="2.82114761"><ele>1146</ele><time>2006-09-16T18:56:18Z</time></trkpt>
<trkpt lat="45.59311562" lon="2.82086522"><ele>1141</ele><time>2006-09-16T18:56:22Z</time></trkpt>
<trkpt lat="45.59309358" lon="2.82078073"><ele>1141</ele><time>2006-09-16T18:56:23Z</time></trkpt>
<trkpt lat="45.59299677" lon="2.82051168"><ele>1136</ele><time>2006-09-16T18:56:27Z</time></trkpt>
<trkpt lat="45.59291236" lon="2.82021856"><ele>1131</ele><time>2006-09-16T18:56:31Z</time></trkpt>
<trkpt lat="45.59291856" lon="2.81988312"><ele>1130</ele><time>2006-09-16T18:56:35Z</time></trkpt>
<trkpt lat="45.59292301" lon="2.81974314"><ele>1130</ele><time>2006-09-16T18:56:37Z</time></trkpt>
<trkpt lat="45.59294840" lon="2.81952261"><ele>1129</ele><time>2006-09-16T18:56:40Z</time></trkpt>
<trkpt lat="45.59308997" lon="2.81905850"><ele>1129</ele><time>2006-09-16T18:56:46Z</time></trkpt>
<trkpt lat="45.59308754" lon="2.81915263"><ele>1130</ele><time>2006-09-16T18:56:47Z</time></trkpt>
<trkpt lat="45.59291873" lon="2.81931147"><ele>1127</ele><time>2006-09-16T18:56:50Z</time></trkpt>
<trkpt lat="45.59288847" lon="2.81933796"><ele>1126</ele><time>2006-09-16T18:56:51Z</time></trkpt>
<trkpt lat="45.59281035" lon="2.81995067"><ele>1127</ele><time>2006-09-16T18:56:58Z</time></trkpt>
<trkpt lat="45.59277557" lon="2.82011881"><ele>1126</ele><time>2006-09-16T18:56:59Z</time></trkpt>
<trkpt lat="45.59271329" lon="2.82052131"><ele>1124</ele><time>2006-09-16T18:57:03Z</time></trkpt>
<trkpt lat="45.59264355" lon="2.82051310"><ele>1122</ele><time>2006-09-16T18:57:07Z</time></trkpt>
<trkpt lat="45.59259812" lon="2.82019811"><ele>1120</ele><time>2006-09-16T18:57:12Z</time></trkpt>
<trkpt lat="45.59257851" lon="2.82003701"><ele>1119</ele><time>2006-09-16T18:57:14Z</time></trkpt>
<trkpt lat="45.59251179" lon="2.81969620"><ele>1117</ele><time>2006-09-16T18:57:18Z</time></trkpt>
<trkpt lat="45.59240894" lon="2.81932144"><ele>1113</ele><time>2006-09-16T18:57:22Z</time></trkpt>
<trkpt lat="45.59230559" lon="2.81900486"><ele>1109</ele><time>2006-09-16T18:57:25Z</time></trkpt>
<trkpt lat="45.59223007" lon="2.81867461"><ele>1105</ele><time>2006-09-16T18:57:28Z</time></trkpt>
<trkpt lat="45.59220493" lon="2.81857043"><ele>1105</ele><time>2006-09-16T18:57:29Z</time></trkpt>
<trkpt lat="45.59207987" lon="2.81782569"><ele>1100</ele><time>2006-09-16T18:57:34Z</time></trkpt>
<trkpt lat="45.59201575" lon="2.81717283"><ele>1092</ele><time>2006-09-16T18:57:39Z</time></trkpt>
<trkpt lat="45.59198105" lon="2.81693671"><ele>1088</ele><time>2006-09-16T18:57:41Z</time></trkpt>
<trkpt lat="45.59196370" lon="2.81681861"><ele>1086</ele><time>2006-09-16T18:57:42Z</time></trkpt>
<trkpt lat="45.59176178" lon="2.81630714"><ele>1081</ele><time>2006-09-16T18:57:46Z</time></trkpt>
<trkpt lat="45.59157763" lon="2.81593616"><ele>1075</ele><time>2006-09-16T18:57:49Z</time></trkpt>
<trkpt lat="45.59139348" lon="2.81556518"><ele>1067</ele><time>2006-09-16T18:57:52Z</time></trkpt>
<trkpt lat="45.59133204" lon="2.81544146"><ele>1066</ele><time>2006-09-16T18:57:53Z</time></trkpt>
<trkpt lat="45.59108645" lon="2.81494676"><ele>1064</ele><time>2006-09-16T18:57:57Z</time></trkpt>
<trkpt lat="45.59066777" lon="2.81465608"><ele>1067</ele><time>2006-09-16T18:58:04Z</time></trkpt>
<trkpt lat="45.59061287" lon="2.81462330"><ele>1068</ele><time>2006-09-16T18:58:05Z</time></trkpt>
<trkpt lat="45.59022864" lon="2.81439389"><ele>1069</ele><time>2006-09-16T18:58:12Z</time></trkpt>
<trkpt lat="45.59015565" lon="2.81370324"><ele>1061</ele><time>2006-09-16T18:58:19Z</time></trkpt>
<trkpt lat="45.58995541" lon="2.81318895"><ele>1054</ele><time>2006-09-16T18:58:24Z</time></trkpt>
<trkpt lat="45.58953638" lon="2.81383306"><ele>1060</ele><time>2006-09-16T18:58:27Z</time></trkpt>
<trkpt lat="45.58947477" lon="2.81384228"><ele>1061</ele><time>2006-09-16T18:58:29Z</time></trkpt>
<trkpt lat="45.58905156" lon="2.81417422"><ele>1071</ele><time>2006-09-16T18:58:38Z</time></trkpt>
<trkpt lat="45.58869020" lon="2.81452347"><ele>1088</ele><time>2006-09-16T18:58:50Z</time></trkpt>
<trkpt lat="45.58853413" lon="2.81420178"><ele>1075</ele><time>2006-09-16T18:58:58Z</time></trkpt>
<trkpt lat="45.58835475" lon="2.81407209"><ele>1072</ele><time>2006-09-16T18:59:10Z</time></trkpt>
<trkpt lat="45.58808473" lon="2.81410179"><ele>1074</ele><time>2006-09-16T18:59:20Z</time></trkpt>
<trkpt lat="45.58792606" lon="2.81438872"><ele>1080</ele><time>2006-09-16T18:59:22Z</time></trkpt>
<trkpt lat="45.58790194" lon="2.81477292"><ele>1089</ele><time>2006-09-16T18:59:33Z</time></trkpt>
<trkpt lat="45.58774341" lon="2.81502781"><ele>1088</ele><time>2006-09-16T18:59:52Z</time></trkpt>
<trkpt lat="45.58758707" lon="2.81477019"><ele>1088</ele><time>2006-09-16T19:00:09Z</time></trkpt>
<trkpt lat="45.58754318" lon="2.81451355"><ele>1086</ele><time>2006-09-16T19:00:38Z</time></trkpt>
<trkpt lat="45.58752178" lon="2.81425709"><ele>1082</ele><time>2006-09-16T19:01:43Z</time></trkpt>
<trkpt lat="45.58752287" lon="2.81400084"><ele>1079</ele><time>2006-09-16T19:02:00Z</time></trkpt>
<trkpt lat="45.58754659" lon="2.81371274"><ele>1077</ele><time>2006-09-16T19:02:04Z</time></trkpt>
<trkpt lat="45.58759252" lon="2.81348890"><ele>1075</ele><time>2006-09-16T19:02:08Z</time></trkpt>
<trkpt lat="45.58770566" lon="2.81332971"><ele>1072</ele><time>2006-09-16T19:02:13Z</time></trkpt>
<trkpt lat="45.58783888" lon="2.81317743"><ele>1070</ele><time>2006-09-16T19:02:19Z</time></trkpt>
<trkpt lat="45.58787576" lon="2.81309277"><ele>1070</ele><time>2006-09-16T19:02:21Z</time></trkpt>
<trkpt lat="45.58793108" lon="2.81296578"><ele>1070</ele><time>2006-09-16T19:02:24Z</time></trkpt>
<trkpt lat="45.58794952" lon="2.81292345"><ele>1070</ele><time>2006-09-16T19:02:25Z</time></trkpt>
<trkpt lat="45.58807868" lon="2.81262715"><ele>1067</ele><time>2006-09-16T19:02:32Z</time></trkpt>
<trkpt lat="45.58814616" lon="2.81231116"><ele>1066</ele><time>2006-09-16T19:02:35Z</time></trkpt>
<trkpt lat="45.58819092" lon="2.81195979"><ele>1064</ele><time>2006-09-16T19:02:38Z</time></trkpt>
<trkpt lat="45.58820014" lon="2.81181746"><ele>1063</ele><time>2006-09-16T19:02:39Z</time></trkpt>
<trkpt lat="45.58830374" lon="2.81126484"><ele>1058</ele><time>2006-09-16T19:02:44Z</time></trkpt>
<trkpt lat="45.58832905" lon="2.81117147"><ele>1057</ele><time>2006-09-16T19:02:45Z</time></trkpt>
<trkpt lat="45.58836870" lon="2.81093359"><ele>1054</ele><time>2006-09-16T19:02:47Z</time></trkpt>
<trkpt lat="45.58827398" lon="2.80934606"><ele>1048</ele><time>2006-09-16T19:02:52Z</time></trkpt>
<trkpt lat="45.58837197" lon="2.80907188"><ele>1045</ele><time>2006-09-16T19:02:54Z</time></trkpt>
<trkpt lat="45.58850935" lon="2.80856528"><ele>1051</ele><time>2006-09-16T19:02:58Z</time></trkpt>
<trkpt lat="45.58867145" lon="2.80860350"><ele>1048</ele><time>2006-09-16T19:03:00Z</time></trkpt>
<trkpt lat="45.58872166" lon="2.80860619"><ele>1046</ele><time>2006-09-16T19:03:02Z</time></trkpt>
<trkpt lat="45.58858755" lon="2.80820134"><ele>1055</ele><time>2006-09-16T19:03:18Z</time></trkpt>
<trkpt lat="45.58852167" lon="2.80756909"><ele>1061</ele><time>2006-09-16T19:03:36Z</time></trkpt>
<trkpt lat="45.58849703" lon="2.80726936"><ele>1060</ele><time>2006-09-16T19:03:43Z</time></trkpt>
<trkpt lat="45.58846886" lon="2.80705788"><ele>1060</ele><time>2006-09-16T19:03:47Z</time></trkpt>
<trkpt lat="45.58844179" lon="2.80687096"><ele>1059</ele><time>2006-09-16T19:03:51Z</time></trkpt>
<trkpt lat="45.58842821" lon="2.80677751"><ele>1058</ele><time>2006-09-16T19:03:53Z</time></trkpt>
<trkpt lat="45.58841463" lon="2.80668405"><ele>1058</ele><time>2006-09-16T19:03:55Z</time></trkpt>
<trkpt lat="45.58838991" lon="2.80648632"><ele>1057</ele><time>2006-09-16T19:03:58Z</time></trkpt>
<trkpt lat="45.58836384" lon="2.80626001"><ele>1054</ele><time>2006-09-16T19:03:59Z</time></trkpt>
<trkpt lat="45.58821372" lon="2.80351561"><ele>1027</ele><time>2006-09-16T19:04:03Z</time></trkpt>
<trkpt lat="45.58828203" lon="2.80311596"><ele>1026</ele><time>2006-09-16T19:04:06Z</time></trkpt>
<trkpt lat="45.58822855" lon="2.80288437"><ele>1026</ele><time>2006-09-16T19:04:08Z</time></trkpt>
<trkpt lat="45.58820198" lon="2.80276534"><ele>1027</ele><time>2006-09-16T19:04:09Z</time></trkpt>
<trkpt lat="45.58782170" lon="2.80207593"><ele>1026</ele><time>2006-09-16T19:04:17Z</time></trkpt>
<trkpt lat="45.58759178" lon="2.80174124"><ele>1024</ele><time>2006-09-16T19:04:21Z</time></trkpt>
<trkpt lat="45.58733689" lon="2.80158358"><ele>1023</ele><time>2006-09-16T19:04:24Z</time></trkpt>
<trkpt lat="45.58724971" lon="2.80154930"><ele>1023</ele><time>2006-09-16T19:04:25Z</time></trkpt>
<trkpt lat="45.58663733" lon="2.80156287"><ele>1028</ele><time>2006-09-16T19:04:33Z</time></trkpt>
<trkpt lat="45.58651647" lon="2.80157637"><ele>1029</ele><time>2006-09-16T19:04:35Z</time></trkpt>
<trkpt lat="45.58622913" lon="2.80168910"><ele>1031</ele><time>2006-09-16T19:04:40Z</time></trkpt>
<trkpt lat="45.58592169" lon="2.80178927"><ele>1029</ele><time>2006-09-16T19:04:45Z</time></trkpt>
<trkpt lat="45.58520243" lon="2.80233652"><ele>1022</ele><time>2006-09-16T19:04:56Z</time></trkpt>
<trkpt lat="45.58476297" lon="2.80266970"><ele>1020</ele><time>2006-09-16T19:05:02Z</time></trkpt>
<trkpt lat="45.58469181" lon="2.80272494"><ele>1021</ele><time>2006-09-16T19:05:03Z</time></trkpt>
<trkpt lat="45.58422066" lon="2.80303951"><ele>1020</ele><time>2006-09-16T19:05:09Z</time></trkpt>
<trkpt lat="45.58389435" lon="2.80326649"><ele>1018</ele><time>2006-09-16T19:05:13Z</time></trkpt>
<trkpt lat="45.58327217" lon="2.80356330"><ele>1013</ele><time>2006-09-16T19:05:21Z</time></trkpt>
<trkpt lat="45.58312724" lon="2.80357160"><ele>1011</ele><time>2006-09-16T19:05:24Z</time></trkpt>
<trkpt lat="45.58293329" lon="2.80372909"><ele>1011</ele><time>2006-09-16T19:05:29Z</time></trkpt>
<trkpt lat="45.58258904" lon="2.80419161"><ele>1017</ele><time>2006-09-16T19:05:41Z</time></trkpt>
<trkpt lat="45.58202704" lon="2.80500130"><ele>1024</ele><time>2006-09-16T19:06:01Z</time></trkpt>
<trkpt lat="45.58140929" lon="2.80564872"><ele>1026</ele><time>2006-09-16T19:06:21Z</time></trkpt>
<trkpt lat="45.58092590" lon="2.80602775"><ele>1025</ele><time>2006-09-16T19:06:35Z</time></trkpt>
<trkpt lat="45.58031134" lon="2.80651138"><ele>1025</ele><time>2006-09-16T19:06:54Z</time></trkpt>
<trkpt lat="45.57971296" lon="2.80679620"><ele>1026</ele><time>2006-09-16T19:07:11Z</time></trkpt>
<trkpt lat="45.57907266" lon="2.80707959"><ele>1027</ele><time>2006-09-16T19:07:29Z</time></trkpt>
<trkpt lat="45.57839373" lon="2.80762047"><ele>1033</ele><time>2006-09-16T19:07:49Z</time></trkpt>
<trkpt lat="45.57801101" lon="2.80805030"><ele>1038</ele><time>2006-09-16T19:08:02Z</time></trkpt>
<trkpt lat="45.57734189" lon="2.80873091"><ele>1046</ele><time>2006-09-16T19:08:24Z</time></trkpt>
<trkpt lat="45.57676521" lon="2.80929459"><ele>1057</ele><time>2006-09-16T19:08:43Z</time></trkpt>
<trkpt lat="45.57666664" lon="2.80920826"><ele>1051</ele><time>2006-09-16T19:08:47Z</time></trkpt>
<trkpt lat="45.57663714" lon="2.80898128"><ele>1041</ele><time>2006-09-16T19:08:52Z</time></trkpt>
<trkpt lat="45.57660981" lon="2.80840645"><ele>1032</ele><time>2006-09-16T19:08:59Z</time></trkpt>
<trkpt lat="45.57656958" lon="2.80813177"><ele>1030</ele><time>2006-09-16T19:09:02Z</time></trkpt>
<trkpt lat="45.57647411" lon="2.80788040"><ele>1029</ele><time>2006-09-16T19:09:06Z</time></trkpt>
<trkpt lat="45.57634075" lon="2.80788568"><ele>1029</ele><time>2006-09-16T19:09:10Z</time></trkpt>
<trkpt lat="45.57622693" lon="2.80801090"><ele>1030</ele><time>2006-09-16T19:09:14Z</time></trkpt>
<trkpt lat="45.57584136" lon="2.80843310"><ele>1031</ele><time>2006-09-16T19:09:27Z</time></trkpt>
<trkpt lat="45.57522328" lon="2.80883007"><ele>1034</ele><time>2006-09-16T19:09:45Z</time></trkpt>
<trkpt lat="45.57470662" lon="2.80906241"><ele>1036</ele><time>2006-09-16T19:10:00Z</time></trkpt>
<trkpt lat="45.57401779" lon="2.80945284"><ele>1040</ele><time>2006-09-16T19:10:20Z</time></trkpt>
<trkpt lat="45.57365695" lon="2.80965904"><ele>1043</ele><time>2006-09-16T19:10:31Z</time></trkpt>
<trkpt lat="45.57354178" lon="2.80951638"><ele>1043</ele><time>2006-09-16T19:10:37Z</time></trkpt>
<trkpt lat="45.57352552" lon="2.80944262"><ele>1043</ele><time>2006-09-16T19:10:39Z</time></trkpt>
<trkpt lat="45.57325403" lon="2.80950406"><ele>1045</ele><time>2006-09-16T19:10:49Z</time></trkpt>
<trkpt lat="45.57284617" lon="2.80956097"><ele>1047</ele><time>2006-09-16T19:11:03Z</time></trkpt>
<trkpt lat="45.57275296" lon="2.80962090"><ele>1047</ele><time>2006-09-16T19:11:07Z</time></trkpt>
<trkpt lat="45.57263553" lon="2.80949274"><ele>1048</ele><time>2006-09-16T19:11:16Z</time></trkpt>
<trkpt lat="45.57262933" lon="2.80953088"><ele>1048</ele><time>2006-09-16T19:11:45Z</time></trkpt>
<trkpt lat="45.57261894" lon="2.80954178"><ele>1048</ele><time>2006-09-16T19:12:04Z</time></trkpt>
</trkseg></trk></gpx>